[[{"header":{"parameterUnit":"m.s-1","parameterCategory":1,"la1":30.6,"la2":29.2853,"lo1":-89.7004,"lo2":-87.6739,"dy":0.0162,"dx":0.0183,"nx":112,"ny":82,"refTime":"2026-02-26T12:00:00:Z","depth":0,"parameterNumber":2,"parameterNumberName":"U-component_of_WINDS"},"data":[0.0,0.0,0.0,0.0,0.0,0.0,0.0,0.0,0.0,0.0,0.0,0.0,0.0,0.0,0.0,0.0,0.0,0.0,0.0,0.0,0.0,0.0,0.0,0.0,0.0,0.0,0.0,0.0,0.0,0.0,0.0,0.0,0.0,0.0,0.0,0.0,0.0,0.0,0.0,0.0,0.0,0.0,0.0,0.0,0.0,0.0,0.0,0.0,0.0,0.0,0.0,0.0,0.0,0.0,0.0,0.0,0.0,0.0,0.0,0.0,0.0,0.0,0.0,0.0,0.0,0.0,0.0,0.0,0.0,0.0,0.0,0.0,0.0,0.0,0.0,0.0,0.0,0.0,0.0,0.0,0.0,0.0,0.0,0.0,0.0,0.0,0.0,0.0,0.0,0.0,0.0,-2.4128,-2.4343,-2.4405,-2.4105,-2.3973,-2.361,-2.2933,0.0,0.0,0.0,0.0,0.0,0.0,0.0,0.0,0.0,0.0,0.0,0.0,0.0,0.0,0.0,0.0,0.0,0.0,0.0,0.0,0.0,0.0,0.0,0.0,0.0,0.0,0.0,0.0,0.0,0.0,0.0,0.0,0.0,0.0,0.0,0.0,0.0,0.0,0.0,0.0,0.0,0.0,0.0,0.0,0.0,0.0,0.0,0.0,0.0,0.0,0.0,0.0,0.0,0.0,0.0,0.0,0.0,0.0,0.0,0.0,0.0,0.0,0.0,0.0,0.0,0.0,0.0,0.0,0.0,0.0,0.0,0.0,0.0,0.0,0.0,0.0,0.0,0.0,0.0,0.0,0.0,0.0,0.0,0.0,0.0,0.0,0.0,0.0,0.0,0.0,0.0,0.0,0.0,0.0,0.0,0.0,0.0,0.0,0.0,0.0,0.0,0.0,0.0,0.0,-2.4503,-2.4503,-2.4276,-2.4094,-2.4099,-2.3422,-2.2962,-2.2888,0.0,0.0,0.0,0.0,0.0,0.0,0.0,0.0,0.0,0.0,0.0,0.0,0.0,0.0,0.0,0.0,0.0,0.0,0.0,0.0,0.0,0.0,0.0,0.0,0.0,0.0,0.0,0.0,0.0,0.0,0.0,0.0,0.0,0.0,0.0,0.0,0.0,0.0,0.0,0.0,0.0,0.0,0.0,0.0,0.0,0.0,0.0,0.0,0.0,0.0,0.0,0.0,0.0,0.0,0.0,0.0,0.0,0.0,0.0,0.0,0.0,0.0,0.0,0.0,0.0,0.0,0.0,0.0,0.0,0.0,0.0,0.0,0.0,0.0,0.0,0.0,0.0,0.0,0.0,0.0,0.0,0.0,0.0,0.0,0.0,0.0,0.0,0.0,0.0,0.0,0.0,0.0,0.0,0.0,0.0,0.0,0.0,0.0,0.0,0.0,0.0,0.0,0.0,-2.424,-2.4605,-2.471,-2.4634,-2.4492,-2.4224,-2.3668,-2.3223,-2.2925,-2.2797,0.0,0.0,0.0,0.0,0.0,0.0,0.0,0.0,0.0,0.0,0.0,0.0,0.0,0.0,0.0,0.0,0.0,0.0,0.0,0.0,0.0,0.0,0.0,0.0,0.0,0.0,0.0,0.0,0.0,0.0,0.0,0.0,0.0,0.0,0.0,0.0,0.0,0.0,0.0,0.0,0.0,0.0,0.0,0.0,0.0,0.0,0.0,0.0,0.0,0.0,0.0,0.0,0.0,0.0,0.0,0.0,0.0,0.0,0.0,0.0,0.0,0.0,0.0,0.0,0.0,0.0,0.0,0.0,0.0,0.0,0.0,0.0,0.0,0.0,0.0,0.0,0.0,0.0,0.0,0.0,0.0,0.0,0.0,0.0,0.0,0.0,0.0,0.0,0.0,0.0,0.0,0.0,0.0,0.0,0.0,0.0,0.0,0.0,0.0,0.0,0.0,0.0,-2.4156,-2.4369,-2.4558,-2.4659,-2.4538,-2.412,-2.3739,-2.3341,-2.2902,-2.2661,0.0,0.0,0.0,0.0,0.0,0.0,0.0,0.0,0.0,0.0,0.0,0.0,0.0,0.0,0.0,0.0,0.0,0.0,0.0,0.0,0.0,0.0,0.0,0.0,0.0,0.0,0.0,0.0,0.0,0.0,0.0,0.0,0.0,0.0,0.0,0.0,0.0,0.0,0.0,0.0,0.0,0.0,0.0,0.0,0.0,0.0,0.0,0.0,0.0,0.0,0.0,0.0,0.0,0.0,0.0,0.0,0.0,0.0,0.0,0.0,0.0,0.0,0.0,0.0,0.0,0.0,0.0,0.0,0.0,0.0,0.0,0.0,0.0,0.0,0.0,0.0,0.0,0.0,0.0,0.0,0.0,0.0,0.0,0.0,0.0,0.0,0.0,0.0,0.0,0.0,0.0,0.0,0.0,0.0,0.0,0.0,0.0,0.0,0.0,0.0,0.0,0.0,-2.3581,-2.3545,-2.3921,-2.3709,-2.3515,-2.3471,-2.2994,-2.2721,-2.2795,-2.2546,0.0,0.0,0.0,0.0,0.0,0.0,0.0,0.0,0.0,0.0,0.0,0.0,0.0,0.0,0.0,0.0,0.0,0.0,0.0,0.0,0.0,0.0,0.0,0.0,0.0,0.0,0.0,0.0,0.0,0.0,0.0,0.0,0.0,0.0,0.0,0.0,0.0,0.0,0.0,0.0,0.0,0.0,0.0,0.0,0.0,0.0,0.0,0.0,0.0,0.0,0.0,0.0,0.0,0.0,0.0,0.0,0.0,0.0,0.0,0.0,0.0,0.0,0.0,0.0,0.0,0.0,0.0,0.0,0.0,0.0,0.0,0.0,0.0,0.0,0.0,0.0,0.0,0.0,0.0,0.0,0.0,0.0,0.0,0.0,0.0,0.0,0.0,0.0,0.0,0.0,0.0,0.0,0.0,0.0,0.0,0.0,0.0,0.0,0.0,0.0,0.0,0.0,-2.3616,-2.3601,0.0,-2.3651,-2.35,-2.3282,-2.2979,-2.276,-2.2675,0.0,0.0,0.0,0.0,0.0,0.0,0.0,0.0,0.0,0.0,0.0,0.0,0.0,0.0,0.0,0.0,0.0,0.0,0.0,0.0,0.0,0.0,0.0,0.0,0.0,0.0,0.0,0.0,0.0,0.0,0.0,0.0,0.0,0.0,0.0,0.0,0.0,0.0,0.0,0.0,0.0,0.0,0.0,0.0,0.0,0.0,0.0,0.0,0.0,0.0,0.0,0.0,0.0,0.0,0.0,0.0,0.0,0.0,0.0,0.0,0.0,0.0,0.0,0.0,0.0,0.0,0.0,0.0,0.0,0.0,0.0,0.0,0.0,0.0,0.0,0.0,0.0,0.0,0.0,0.0,0.0,0.0,0.0,0.0,0.0,0.0,0.0,0.0,0.0,0.0,0.0,0.0,0.0,0.0,0.0,0.0,0.0,0.0,0.0,0.0,0.0,0.0,-2.3179,-2.3253,-2.3208,0.0,-2.3008,-2.2854,-2.2382,-2.2417,-2.239,-2.2261,0.0,0.0,0.0,0.0,0.0,0.0,0.0,0.0,0.0,0.0,0.0,0.0,0.0,0.0,0.0,0.0,0.0,0.0,0.0,0.0,0.0,0.0,0.0,0.0,0.0,0.0,0.0,0.0,0.0,0.0,0.0,0.0,0.0,0.0,0.0,0.0,0.0,0.0,0.0,0.0,0.0,0.0,0.0,0.0,0.0,0.0,0.0,0.0,0.0,0.0,0.0,0.0,0.0,0.0,0.0,0.0,0.0,0.0,0.0,0.0,0.0,0.0,0.0,0.0,0.0,0.0,0.0,0.0,0.0,0.0,0.0,0.0,0.0,0.0,0.0,0.0,0.0,0.0,0.0,0.0,0.0,0.0,0.0,0.0,0.0,0.0,0.0,0.0,0.0,0.0,0.0,0.0,0.0,0.0,0.0,0.0,0.0,0.0,0.0,0.0,0.0,0.0,-2.2356,-2.2379,-2.2167,-2.1549,-2.1552,-2.1282,-2.055,-2.1124,-2.1492,0.0,0.0,0.0,0.0,0.0,0.0,0.0,0.0,0.0,0.0,0.0,0.0,0.0,0.0,0.0,0.0,0.0,0.0,0.0,0.0,0.0,0.0,0.0,0.0,0.0,0.0,0.0,0.0,0.0,0.0,0.0,0.0,0.0,0.0,0.0,0.0,0.0,0.0,0.0,0.0,0.0,0.0,0.0,0.0,0.0,0.0,0.0,0.0,0.0,0.0,0.0,0.0,0.0,0.0,0.0,0.0,0.0,0.0,0.0,0.0,0.0,0.0,0.0,0.0,0.0,0.0,0.0,0.0,0.0,0.0,0.0,0.0,0.0,0.0,0.0,0.0,0.0,0.0,0.0,0.0,0.0,0.0,0.0,0.0,0.0,0.0,0.0,0.0,0.0,0.0,0.0,0.0,0.0,0.0,0.0,0.0,0.0,0.0,0.0,0.0,0.0,0.0,0.0,-2.1662,-2.1629,-2.138,-2.0803,-2.0754,-2.0669,-2.0443,-2.1,-2.1375,-2.1375,0.0,0.0,0.0,0.0,0.0,0.0,0.0,0.0,0.0,0.0,0.0,0.0,0.0,0.0,0.0,0.0,0.0,0.0,0.0,0.0,0.0,0.0,0.0,0.0,0.0,0.0,0.0,0.0,0.0,0.0,0.0,0.0,0.0,0.0,0.0,0.0,0.0,0.0,0.0,0.0,0.0,0.0,0.0,0.0,0.0,0.0,0.0,0.0,0.0,0.0,0.0,0.0,0.0,0.0,0.0,0.0,0.0,0.0,0.0,0.0,0.0,0.0,0.0,0.0,0.0,0.0,0.0,0.0,0.0,0.0,0.0,0.0,0.0,0.0,0.0,0.0,0.0,0.0,0.0,0.0,0.0,0.0,0.0,0.0,0.0,0.0,0.0,0.0,0.0,0.0,0.0,0.0,0.0,0.0,0.0,0.0,0.0,0.0,0.0,0.0,0.0,0.0,-2.1251,-2.1018,-2.0609,-1.9886,-1.9858,-1.9697,-1.9188,-1.9916,-2.0228,-1.9893,0.0,0.0,0.0,0.0,0.0,0.0,0.0,0.0,0.0,0.0,0.0,0.0,0.0,0.0,0.0,0.0,0.0,0.0,0.0,0.0,0.0,0.0,0.0,0.0,0.0,0.0,0.0,0.0,0.0,0.0,0.0,0.0,0.0,0.0,0.0,0.0,0.0,0.0,0.0,0.0,0.0,0.0,0.0,0.0,0.0,0.0,0.0,0.0,0.0,0.0,0.0,0.0,0.0,0.0,0.0,0.0,0.0,0.0,0.0,0.0,0.0,0.0,0.0,0.0,0.0,0.0,0.0,0.0,0.0,0.0,0.0,0.0,0.0,0.0,0.0,0.0,0.0,0.0,0.0,0.0,0.0,0.0,0.0,0.0,0.0,0.0,0.0,0.0,0.0,0.0,0.0,0.0,0.0,0.0,0.0,0.0,0.0,0.0,0.0,0.0,0.0,0.0,-2.101,-2.0506,-1.979,-1.8874,-1.883,-1.8445,-1.7352,-1.8302,-1.8623,-1.7823,0.0,0.0,0.0,0.0,0.0,0.0,0.0,0.0,0.0,0.0,0.0,0.0,0.0,0.0,0.0,0.0,0.0,0.0,0.0,0.0,0.0,0.0,0.0,0.0,0.0,0.0,0.0,0.0,0.0,0.0,0.0,0.0,0.0,0.0,0.0,0.0,0.0,0.0,0.0,0.0,0.0,0.0,0.0,0.0,0.0,0.0,0.0,0.0,0.0,0.0,0.0,0.0,0.0,0.0,0.0,0.0,0.0,0.0,0.0,0.0,-2.2624,0.0,0.0,0.0,0.0,0.0,0.0,0.0,0.0,0.0,0.0,0.0,0.0,0.0,0.0,0.0,0.0,0.0,0.0,0.0,0.0,0.0,0.0,0.0,0.0,0.0,0.0,0.0,0.0,0.0,0.0,0.0,0.0,0.0,0.0,0.0,0.0,0.0,0.0,0.0,0.0,0.0,-2.0372,-1.9482,-1.8633,-1.7946,-1.754,-1.718,-1.6925,-1.7948,-1.8521,-1.8346,-1.9035,0.0,0.0,0.0,0.0,0.0,0.0,0.0,0.0,0.0,0.0,0.0,0.0,0.0,0.0,0.0,0.0,0.0,0.0,0.0,0.0,0.0,0.0,0.0,0.0,0.0,0.0,0.0,0.0,0.0,0.0,0.0,0.0,0.0,0.0,0.0,0.0,0.0,0.0,0.0,0.0,0.0,0.0,0.0,0.0,0.0,0.0,0.0,0.0,0.0,0.0,0.0,0.0,0.0,0.0,0.0,0.0,0.0,0.0,0.0,0.0,-2.2678,0.0,0.0,0.0,0.0,0.0,0.0,0.0,0.0,0.0,0.0,0.0,0.0,0.0,0.0,0.0,0.0,0.0,0.0,0.0,0.0,0.0,0.0,0.0,0.0,0.0,0.0,0.0,0.0,0.0,0.0,0.0,0.0,0.0,0.0,0.0,0.0,0.0,0.0,0.0,0.0,-1.9644,-1.8672,-1.7834,-1.742,-1.6941,-1.6536,-1.6256,-1.7002,-1.7427,-1.7251,-1.7824,0.0,0.0,0.0,0.0,0.0,0.0,0.0,0.0,0.0,0.0,0.0,0.0,0.0,0.0,0.0,0.0,0.0,0.0,0.0,0.0,0.0,0.0,0.0,0.0,0.0,0.0,0.0,0.0,0.0,0.0,0.0,0.0,0.0,0.0,0.0,0.0,0.0,0.0,0.0,0.0,0.0,0.0,0.0,0.0,0.0,0.0,0.0,0.0,0.0,0.0,0.0,0.0,0.0,-2.3028,-2.2823,-2.1881,-2.223,-2.1713,-2.0602,-2.1747,-2.2029,-2.173,-2.2048,0.0,0.0,0.0,0.0,0.0,0.0,0.0,0.0,0.0,0.0,0.0,0.0,0.0,0.0,0.0,0.0,0.0,0.0,0.0,0.0,0.0,0.0,0.0,0.0,-1.5412,-1.5322,0.0,0.0,0.0,0.0,0.0,0.0,0.0,0.0,0.0,0.0,0.0,0.0,-1.8884,-1.7958,-1.7255,-1.7153,-1.6616,-1.614,-1.5806,-1.615,-1.6266,-1.608,-1.6493,-1.6462,0.0,0.0,0.0,0.0,0.0,0.0,0.0,0.0,0.0,0.0,0.0,0.0,0.0,0.0,0.0,0.0,0.0,0.0,0.0,0.0,0.0,0.0,0.0,0.0,0.0,0.0,0.0,0.0,0.0,0.0,0.0,0.0,-2.3053,-2.2692,0.0,0.0,0.0,0.0,0.0,0.0,0.0,0.0,0.0,0.0,0.0,0.0,0.0,-2.1402,-2.079,-2.1568,-2.1773,-2.1394,-2.1829,-2.1808,-2.1291,-2.0594,-2.0188,-1.9966,-1.9414,0.0,-2.1703,-2.1675,0.0,0.0,0.0,0.0,0.0,0.0,0.0,0.0,0.0,0.0,0.0,0.0,0.0,0.0,0.0,0.0,0.0,0.0,0.0,0.0,0.0,0.0,-1.4338,-1.399,-1.3664,-1.3355,0.0,-1.4775,-1.6307,-1.5982,-1.598,0.0,0.0,0.0,0.0,0.0,0.0,0.0,-1.8039,-1.7126,-1.675,-1.7308,-1.6125,-1.5603,-1.6397,-1.6312,-1.6376,-1.6752,-1.6631,-1.667,-1.6967,-1.5902,0.0,0.0,0.0,0.0,0.0,0.0,0.0,0.0,0.0,0.0,0.0,0.0,0.0,0.0,0.0,0.0,0.0,0.0,0.0,0.0,0.0,0.0,0.0,0.0,0.0,0.0,0.0,0.0,0.0,-2.2208,-2.2245,-2.1619,-2.2074,-2.2157,0.0,0.0,0.0,0.0,0.0,0.0,0.0,0.0,0.0,-1.9288,-1.959,-1.9675,-1.9545,-1.9865,-1.9876,-1.959,-2.012,-2.0172,-1.9737,-1.9614,-1.9427,-1.9167,-1.8762,-1.9127,-1.9918,-1.9649,-1.9597,-1.9622,0.0,0.0,0.0,0.0,-1.7366,-1.7229,-1.6375,-1.5922,0.0,-1.5807,0.0,0.0,0.0,0.0,0.0,0.0,0.0,0.0,0.0,0.0,-1.3512,-1.323,-1.3134,-1.3023,-1.2727,-1.3658,-1.4603,0.0,-1.5093,-1.5595,-1.6371,0.0,0.0,0.0,0.0,0.0,-1.7076,-1.672,-1.6573,-1.6874,-1.602,-1.5617,-1.605,-1.5993,-1.614,-1.664,-1.6567,-1.6504,-1.6585,-1.6052,-1.585,0.0,0.0,0.0,0.0,0.0,0.0,0.0,0.0,0.0,0.0,0.0,0.0,0.0,0.0,0.0,0.0,0.0,0.0,0.0,0.0,0.0,0.0,0.0,0.0,0.0,0.0,0.0,0.0,-2.1352,-2.1441,-2.0888,-2.1035,-2.0771,0.0,0.0,0.0,0.0,0.0,0.0,-1.8749,-1.813,-1.8078,-1.8661,-1.8528,-1.8539,-1.8752,-1.8757,-1.8658,-1.8368,-1.8892,-1.8862,-1.8452,-1.8589,-1.8432,-1.8083,-1.7883,-1.777,-1.7777,-1.7904,-1.7994,-1.7928,-1.7149,-1.6857,-1.675,-1.6158,-1.5956,-1.5842,-1.5215,-1.4796,-1.4581,-1.4903,0.0,-1.4816,-1.5389,0.0,0.0,0.0,0.0,-1.4463,-1.365,-1.3138,-1.2787,-1.2628,-1.2668,-1.2697,-1.2517,-1.2647,-1.2932,0.0,-1.4114,-1.476,-1.5604,0.0,0.0,0.0,0.0,-1.5943,-1.603,-1.6077,-1.6153,-1.6298,-1.5733,-1.5503,-1.588,-1.56,-1.5701,-1.6369,-1.6199,-1.5991,-1.5808,-1.5779,-1.5515,-1.5006,0.0,0.0,0.0,0.0,0.0,0.0,0.0,0.0,0.0,0.0,0.0,0.0,0.0,0.0,0.0,0.0,0.0,0.0,0.0,0.0,0.0,0.0,0.0,0.0,0.0,0.0,0.0,0.0,0.0,-2.0586,-1.9962,0.0,0.0,0.0,0.0,-1.7828,-1.8044,-1.8191,-1.8146,-1.8106,-1.8052,-1.8063,-1.8389,-1.8611,-1.8628,-1.9056,-1.9048,-1.8602,-1.8619,-1.843,-1.7997,-1.7196,-1.6829,-1.6731,-1.5906,-1.5548,-1.5684,-1.7403,-1.7872,-1.7507,-1.7115,-1.6732,-1.6219,-1.5294,-1.4966,-1.4832,-1.392,-1.3601,-1.3564,-1.3601,-1.3848,-1.4068,-1.3753,-1.4132,0.0,0.0,-1.3638,-1.3581,-1.3142,-1.2533,-1.2058,-1.2025,-1.1863,-1.1667,-1.1652,-1.1769,-1.2073,0.0,-1.2997,-1.3363,-1.4154,0.0,-1.4694,-1.4619,-1.5183,-1.5406,-1.4872,-1.4887,-1.5193,-1.5763,-1.4957,-1.4949,-1.6346,-1.5363,-1.5061,-1.6053,-1.541,-1.4972,-1.4943,-1.4592,-1.4649,-1.5158,-1.4659,0.0,0.0,0.0,0.0,0.0,0.0,0.0,0.0,0.0,0.0,0.0,0.0,0.0,0.0,0.0,0.0,0.0,0.0,0.0,0.0,0.0,0.0,0.0,0.0,0.0,0.0,0.0,0.0,-1.925,-1.9044,0.0,-1.825,-1.8143,-1.7954,-1.7536,-1.7328,-1.7319,-1.7515,-1.7006,-1.6772,-1.6947,-1.6912,-1.6865,-1.6865,-1.6807,-1.6698,-1.6531,-1.6531,-1.6469,-1.6312,-1.5989,-1.5865,-1.5865,-1.5548,-1.5389,-1.5428,-1.5699,-1.5787,-1.5779,-1.5259,-1.4959,-1.4752,-1.4214,-1.3985,-1.3949,-1.3637,-1.3492,-1.3492,-1.3492,-1.3601,-1.3688,-1.3533,-1.3685,-1.3833,-1.3569,-1.2981,-1.2419,-1.2247,-1.1722,-1.122,-1.122,-1.142,-1.1591,-1.1591,-1.1654,-1.1778,-1.2081,-1.2367,-1.2789,-1.3502,-1.3326,-1.3286,-1.39,-1.411,-1.4227,-1.4357,-1.4666,-1.4984,-1.5216,-1.4898,-1.4897,-1.5439,-1.5061,-1.4955,-1.5323,-1.5069,-1.4893,-1.4893,-1.4458,-1.4116,-1.393,-1.3617,-1.3322,0.0,0.0,0.0,0.0,0.0,0.0,0.0,0.0,0.0,0.0,0.0,0.0,0.0,0.0,0.0,0.0,0.0,0.0,0.0,0.0,0.0,0.0,0.0,0.0,0.0,0.0,-1.8305,-1.8372,-1.7835,-1.7413,-1.7392,-1.7162,-1.6942,-1.6677,-1.6485,-1.6396,-1.6502,-1.5977,-1.5691,-1.5821,-1.5591,-1.549,-1.549,-1.5274,-1.5215,-1.5298,-1.5298,-1.5215,-1.5041,-1.5041,-1.4957,-1.4713,-1.4713,-1.4713,-1.4664,-1.4076,-1.3943,-1.4062,-1.3675,-1.3664,-1.3754,-1.3124,-1.301,-1.3156,-1.2973,-1.29,-1.29,-1.29,-1.29,-1.29,-1.29,-1.29,-1.29,-1.29,-1.2279,-1.1591,-1.1497,-1.1069,-1.0636,-1.0536,-1.0793,-1.1045,-1.1045,-1.1045,-1.1139,-1.1397,-1.1864,-1.2398,-1.2873,-1.2587,-1.2544,-1.3295,-1.3237,-1.3258,-1.3674,-1.3941,-1.4073,-1.4073,-1.4142,-1.4231,-1.435,-1.4291,-1.43,-1.435,-1.4261,-1.4172,-1.4073,-1.3974,-1.3657,-1.3152,-1.3161,-1.2952,-1.246,0.0,0.0,0.0,0.0,0.0,0.0,0.0,0.0,0.0,0.0,0.0,0.0,0.0,0.0,0.0,0.0,0.0,0.0,0.0,0.0,0.0,0.0,0.0,-1.7377,-1.7173,-1.7252,-1.8019,-1.6391,-1.5526,-1.6375,-1.5698,-1.5182,-1.5182,-1.5513,-1.5504,-1.5159,-1.5145,-1.4963,-1.4615,-1.4608,-1.4608,-1.4608,-1.4608,-1.4741,-1.4999,-1.4999,-1.479,-1.4307,-1.4307,-1.3977,-1.3349,-1.3349,-1.3349,-1.3305,-1.2694,-1.246,-1.2476,-1.2532,-1.2936,-1.3309,-1.212,-1.2077,-1.2489,-1.1892,-1.1669,-1.1669,-1.1669,-1.1669,-1.1669,-1.1669,-1.1669,-1.1669,-1.1669,-1.143,-1.1116,-1.0928,-1.0615,-1.0331,-1.0046,-1.0009,-1.0002,-1.0002,-1.0028,-1.0148,-1.0674,-1.1459,-1.2089,-1.2243,-1.239,-1.2552,-1.2744,-1.2613,0.0,-1.2775,-1.2613,-1.2482,-1.2482,-1.2674,-1.292,-1.3238,-1.3094,-1.3072,-1.3268,-1.2981,-1.2705,-1.2521,-1.3011,-1.3196,-1.2964,-1.3262,-1.3303,-1.2964,0.0,0.0,0.0,0.0,0.0,0.0,0.0,0.0,0.0,0.0,0.0,0.0,0.0,0.0,0.0,0.0,0.0,0.0,0.0,0.0,0.0,0.0,-1.5276,-1.5777,-1.5742,-1.5792,-1.6001,-1.5305,-1.5036,-1.5512,-1.512,-1.4824,-1.4824,-1.4944,-1.4653,-1.3913,-1.3913,-1.3528,-1.276,-1.276,-1.276,-1.276,-1.276,-1.2802,-1.2845,-1.2845,-1.2802,-1.2674,-1.2674,-1.2547,-1.2382,-1.2382,-1.2382,-1.2353,-1.1934,-1.1688,-1.1597,-1.1841,-1.204,-1.215,-1.1818,-1.1781,-1.1892,-1.1409,-1.126,-1.1217,-1.0907,-1.0832,-1.0832,-1.0832,-1.0832,-1.087,-1.1019,-1.0686,-1.0299,-1.0384,-1.0248,-1.0097,-1.0019,-1.0153,-1.0307,-1.0307,-1.0142,-1.0053,-1.018,-1.0401,-1.085,-1.1646,-1.1895,-1.205,-1.2243,-1.2336,0.0,-1.2552,-1.2513,-1.2482,-1.2482,-1.2674,-1.2775,-1.2728,-1.2797,-1.2828,-1.2728,-1.2636,-1.2552,-1.2482,-1.2639,-1.2601,-1.2352,-1.2287,-1.2287,0.0,0.0,0.0,0.0,0.0,0.0,0.0,0.0,0.0,0.0,0.0,0.0,0.0,0.0,0.0,0.0,0.0,0.0,0.0,0.0,0.0,0.0,-1.385,-1.3789,-1.3956,-1.463,-1.5008,-1.4716,-1.4568,-1.4267,-1.381,-1.3844,-1.3717,-1.333,-1.3288,-1.3069,-1.2559,-1.2516,-1.2254,-1.174,-1.1697,-1.1697,-1.1697,-1.1697,-1.1778,-1.1858,-1.1858,-1.1778,-1.1569,-1.1569,-1.144,-1.1139,-1.1139,-1.1139,-1.1123,-1.0847,-1.0632,0.0,0.0,0.0,0.0,0.0,-1.0651,-1.0395,-1.0169,-1.0094,-1.0056,-0.9825,-0.9744,-0.9744,-0.9744,-0.9744,-0.9782,-0.9895,-0.9649,-0.9422,-0.9447,-0.9392,-0.9335,-0.9308,-0.9484,-0.9655,-0.9651,-0.9604,-0.9586,-0.9696,-0.9709,0.0,-1.0793,-1.0975,-1.1101,-1.1327,-1.1351,-1.1476,-1.1825,-1.1833,-1.1864,-1.2089,-1.2274,-1.2305,-1.2143,-1.2367,0.0,0.0,0.0,-1.2274,-1.2413,-1.2138,0.0,0.0,0.0,0.0,0.0,0.0,0.0,0.0,-1.1703,-1.1596,0.0,0.0,0.0,0.0,0.0,0.0,0.0,0.0,0.0,0.0,0.0,0.0,0.0,0.0,0.0,0.0,-1.2682,-1.2293,-1.232,-1.3707,-1.4482,-1.3819,-1.3799,-1.3268,-1.1888,-1.2233,-1.2186,-1.1365,-1.1284,-1.1235,-1.1149,0.0,0.0,0.0,0.0,-1.0982,-1.0982,-1.0982,-1.1101,-1.1348,-1.1348,-1.1144,-1.0727,-1.0727,-1.0381,-0.9825,-0.9825,-0.9825,-0.9806,-0.9586,-0.9456,-0.948,-0.9722,-1.0048,-1.0273,-0.9748,-0.9224,-0.8731,-0.8698,0.0,0.0,-0.8622,-0.857,-0.8546,-0.8546,-0.8546,-0.8585,-0.8589,-0.8627,-0.8585,-0.8444,-0.8397,-0.8424,-0.8351,-0.8461,-0.8569,-0.8579,-0.8683,-0.8863,-0.907,-0.9121,-0.9239,-0.964,-0.9888,-1.0047,-1.0243,-1.011,-1.0212,-1.0825,-1.0769,-1.0895,-1.1373,0.0,0.0,-1.158,-1.1832,-1.1855,-1.158,-1.1606,-1.174,-1.2034,-1.1465,-1.1353,-1.1816,-1.1207,-1.0689,-1.0375,-1.034,-1.0292,-1.0238,-1.0632,-1.0837,0.0,0.0,0.0,0.0,0.0,0.0,0.0,0.0,0.0,0.0,0.0,0.0,0.0,0.0,0.0,-1.2118,-1.224,-1.2399,-1.2587,-1.2742,-1.2651,-1.2114,-1.2082,-1.1899,-1.1451,-1.1478,-1.1494,-1.1327,-1.1284,-1.0977,-1.0202,-1.0159,-0.9859,-0.913,-0.913,-0.913,-0.913,-0.913,-0.9126,-0.9213,0.0,0.0,-0.9043,-0.9043,-0.9003,-0.8872,-0.8872,-0.8872,-0.8867,-0.8834,-0.8685,-0.8607,-0.9114,-0.9389,-0.9436,-0.9316,-0.9195,-0.9039,-0.872,-0.8538,-0.8404,-0.8098,-0.7875,-0.7748,-0.7748,-0.7748,0.0,-0.791,-0.8102,-0.8246,-0.8358,-0.8533,-0.8633,-0.8632,-0.8532,-0.844,-0.8433,-0.8284,-0.8131,-0.8025,-0.8015,-0.7989,-0.8002,-0.909,-1.0021,-1.0047,-1.0015,-1.0053,-1.018,-1.018,-1.018,-1.0307,-1.0496,-1.0794,-1.1312,-1.1263,-1.1252,-1.1351,-1.0732,-1.039,-1.0449,-1.0328,-1.0162,-1.0025,-1.0007,-0.9858,-0.9544,-0.9411,-0.9269,-0.9125,-1.0053,-1.038,0.0,0.0,0.0,0.0,0.0,0.0,0.0,0.0,0.0,0.0,0.0,-1.2018,-1.1938,0.0,-1.0918,-1.1047,-1.0786,-1.0616,-1.0716,-1.0643,-1.071,-1.119,-1.1452,-1.118,-1.0146,-1.0396,-1.0419,-0.999,-0.9946,-0.9733,-0.9257,-0.9257,-0.9043,-0.8612,-0.8612,-0.8612,-0.8612,-0.8612,-0.8612,-0.8612,-0.8612,-0.8612,-0.8612,-0.8612,-0.8612,-0.8612,-0.8612,-0.8612,-0.8612,-0.8612,-0.8555,-0.8461,-0.8794,-0.8761,-0.8582,-0.8582,-0.8582,-0.8587,-0.8386,-0.8241,-0.8165,-0.7967,-0.7804,-0.7661,-0.7661,-0.7596,-0.7522,-0.7603,-0.7718,-0.7829,-0.7906,-0.8016,-0.8131,-0.8212,-0.8254,-0.823,-0.8203,-0.8207,-0.8139,-0.7897,-0.7855,-0.7822,-0.7753,-0.8435,-0.9025,-0.9134,-0.9226,-0.9476,-0.9931,-0.9983,-1.0083,-1.0342,-1.0441,-1.0631,-1.0954,-1.0896,-1.0877,-1.0988,-1.059,-1.0276,-1.0076,-0.9844,-0.9538,-0.9148,-0.8987,-0.8806,-0.8639,-0.8578,-0.8553,-0.8596,-0.9154,-0.9341,0.0,0.0,0.0,0.0,0.0,0.0,0.0,0.0,-1.2482,-1.2355,-1.1865,-1.1399,-1.1216,-1.0548,-1.0018,-1.0005,-0.9319,-0.8825,-0.8825,-0.8825,-0.9215,-1.0377,-1.0779,-1.0424,-0.8828,-0.922,-0.9248,-0.8524,-0.8476,-0.8476,-0.8476,-0.8476,-0.8476,-0.8476,-0.852,-0.852,-0.852,-0.852,-0.8564,-0.8612,-0.8564,-0.8564,-0.8612,-0.8612,-0.8612,-0.8612,-0.8612,-0.852,-0.8388,-0.8388,-0.8296,-0.8164,-0.8164,-0.8076,-0.7905,-0.8076,-0.8122,-0.8122,-0.8122,-0.8097,-0.8065,-0.8065,-0.7951,-0.7849,-0.7849,-0.7743,-0.7577,-0.7584,-0.7575,-0.7567,-0.7492,-0.7484,-0.7522,-0.7723,-0.7876,-0.7982,-0.79,-0.8092,-0.8139,-0.7892,-0.7851,-0.7842,-0.7801,-0.7828,-0.7944,-0.8191,-0.8381,-0.8756,-0.9498,-0.9596,-0.9765,-1.0129,-1.017,-1.0233,-1.0309,-1.0392,-1.0398,-1.0349,-1.0233,-1.0025,-0.9719,-0.9335,-0.895,-0.8539,-0.8148,-0.7923,-0.7851,-0.7928,-0.8057,-0.83,-0.8337,-0.8412,-1.5469,-1.4986,-1.4706,-1.4962,-1.4126,-1.3324,0.0,0.0,-1.2004,-1.1959,-1.1273,-1.0584,-1.0429,-0.9702,-0.9115,-0.897,-0.8859,-0.8825,-0.8825,-0.8825,-0.8867,-0.8992,-0.8978,-0.8749,-0.8223,-0.8268,-0.8192,-0.8,-0.7988,-0.7988,-0.7988,-0.7988,-0.7988,-0.7988,-0.816,-0.8245,-0.8245,-0.8245,-0.838,-0.8612,-0.8336,-0.838,-0.8612,-0.8612,-0.8612,-0.8612,-0.8612,-0.8204,-0.7621,-0.7621,-0.7224,-0.6653,-0.6653,-0.7027,-0.7658,-0.8281,-0.8551,-0.8551,-0.8551,-0.8398,-0.826,-0.826,-0.8134,-0.7983,-0.7983,-0.7971,-0.7923,-0.7812,-0.7767,-0.7731,-0.7563,-0.7484,-0.7522,-0.7522,-0.7561,-0.7553,-0.757,-0.757,-0.7555,-0.7339,-0.7302,-0.7253,-0.7124,-0.7193,-0.7464,-0.7972,-0.8037,-0.8122,-0.8212,-0.8216,-0.8252,-0.8282,-0.8317,-0.8493,-0.8985,-0.9246,-0.9278,-0.9036,-0.8564,-0.8282,-0.8247,-0.8181,-0.8009,-0.7664,-0.7716,-0.7588,-0.7302,-0.7656,-0.7833,-0.7857,-0.805,-0.84,-1.4929,-1.4193,0.0,0.0,-1.3186,-1.2439,-1.2686,-1.1947,-1.1157,-1.1017,-1.0317,-0.9663,-0.9482,-0.9014,-0.8652,0.0,-0.8432,-0.8333,-0.8333,-0.8333,-0.8301,-0.8206,-0.8224,-0.8267,-0.8227,-0.8158,-0.8035,-0.7911,-0.79,-0.79,-0.79,-0.7356,-0.7044,-0.7044,-0.6596,-0.6328,-0.6328,-0.6328,-0.6375,-0.6511,-0.6375,-0.6375,-0.6511,-0.6511,-0.6511,-0.6511,-0.6776,-0.6732,-0.6464,-0.6735,-0.6694,-0.6384,-0.6384,-0.6605,-0.6959,-0.7672,-0.8248,-0.8524,-0.8116,-0.7891,-0.7827,-0.7827,-0.7718,-0.7624,-0.8048,-0.8097,-0.8,-0.7927,-0.7906,-0.789,-0.7813,-0.772,-0.7686,-0.7686,-0.76,-0.7484,-0.7484,-0.7484,-0.746,-0.7387,-0.7374,-0.735,-0.731,-0.7331,-0.7443,-0.7666,-0.7901,-0.8129,-0.8388,-0.8402,-0.8402,-0.8402,-0.8402,-0.8513,-0.8734,-0.8854,-0.8864,-0.8739,-0.855,-0.8291,-0.8078,-0.8078,-0.7893,-0.7521,-0.7555,-0.7522,-0.7374,-0.7528,-0.7698,-0.78,-0.7875,-0.8148,-1.4355,0.0,0.0,-1.3093,-1.2349,-1.1631,-1.1947,-1.1096,-1.0232,-1.0044,-0.9527,-0.9031,-0.8726,-0.8531,-0.8382,-0.8283,-0.8137,-0.7988,-0.7988,-0.7739,-0.7499,-0.7446,-0.7242,-0.715,-0.7282,-0.7466,-0.7412,-0.6943,-0.6894,-0.6915,-0.6915,-0.6198,-0.5838,-0.5838,-0.522,-0.491,-0.491,-0.491,-0.491,-0.4996,-0.491,-0.491,-0.4999,-0.4999,-0.4999,-0.4999,-0.5351,-0.5398,-0.522,-0.5581,-0.5583,-0.545,-0.545,-0.5539,-0.5761,-0.629,-0.7136,-0.7896,-0.7404,-0.718,-0.718,-0.718,-0.7108,-0.7066,-0.7627,-0.7669,-0.756,-0.7514,-0.7499,-0.7492,-0.7447,-0.744,-0.7481,-0.7481,-0.7501,-0.7484,-0.7484,-0.7484,-0.7484,-0.7484,-0.7443,-0.7427,-0.7476,-0.7443,-0.7427,-0.7476,-0.7752,-0.8056,-0.8342,-0.836,-0.836,-0.836,-0.836,-0.836,-0.836,-0.836,-0.836,-0.836,-0.836,-0.8246,-0.7949,-0.7949,-0.7791,-0.7522,-0.7484,-0.7484,-0.7484,-0.7571,-0.7694,-0.7873,-0.7922,-0.8114,0.0,0.0,-1.2901,-1.2439,-1.1517,-1.081,-1.1162,-1.0194,-0.9229,-0.9229,-0.9027,-0.8726,-0.8482,-0.8382,-0.8333,-0.8038,-0.7988,-0.7988,-0.7988,-0.7086,-0.6434,-0.6431,-0.5536,-0.4838,0.0,-0.5661,-0.5738,-0.4518,-0.4428,-0.4423,-0.4423,-0.4376,-0.4376,-0.4376,-0.4512,-0.4603,-0.4603,-0.4603,-0.4734,-0.4996,-0.4734,-0.4734,-0.4999,-0.4999,-0.4999,-0.4999,-0.4999,-0.4601,-0.3937,-0.3981,-0.3582,-0.3001,-0.3001,-0.3403,-0.3981,-0.3983,-0.505,-0.6473,-0.6428,-0.6428,-0.6428,-0.6428,-0.6428,-0.6425,-0.6467,-0.6464,-0.6433,-0.6297,-0.626,-0.623,-0.602,-0.6342,-0.6718,-0.6718,-0.7105,-0.7484,-0.7484,-0.7484,-0.7484,-0.7484,-0.7346,-0.7285,-0.7456,-0.7342,-0.7289,-0.7456,-0.7518,-0.7514,-0.7522,-0.7522,-0.7522,-0.7522,-0.7522,-0.7522,-0.7522,-0.7522,-0.7522,-0.7522,-0.7522,-0.7522,-0.7522,-0.7522,-0.7522,-0.7484,-0.7484,-0.7484,-0.7484,-0.7702,-0.7882,-0.8008,-0.8191,-0.8377,0.0,0.0,-1.1429,-1.1298,-1.0495,-0.9743,-0.9854,-0.9373,-0.8878,-0.8684,-0.8581,-0.8432,-0.8187,-0.8137,-0.8088,-0.8041,-0.7388,-0.6936,-0.6936,-0.6032,-0.5304,-0.5192,-0.4961,0.0,0.0,0.0,0.0,-0.4334,-0.4293,-0.4289,-0.4289,-0.3712,-0.3357,-0.3357,-0.2776,-0.2463,-0.2463,-0.2463,-0.2508,-0.2596,-0.2508,-0.2508,-0.2596,-0.2596,-0.2596,-0.264,-0.2999,-0.3001,-0.278,-0.309,-0.309,-0.2911,-0.2911,-0.3045,-0.3224,-0.3224,-0.358,-0.416,-0.4605,-0.4739,-0.4739,-0.4739,-0.4739,-0.4872,-0.5539,-0.5847,-0.588,-0.5709,-0.5783,-0.5772,-0.5382,-0.559,-0.5754,-0.5451,-0.5691,-0.6059,-0.6446,-0.6505,-0.6713,-0.7389,-0.7435,-0.7415,-0.7472,-0.7435,-0.7415,-0.7476,-0.7484,-0.7484,-0.7484,-0.7484,-0.7484,-0.7484,-0.7484,-0.7484,-0.7484,-0.7484,-0.7484,-0.7484,-0.7484,-0.7484,-0.7484,-0.7484,-0.7484,-0.7484,-0.7484,-0.758,-0.7706,-0.7771,-0.7951,-0.8199,-0.826,-0.839,-1.1136,-1.0702,-1.0353,-1.0092,-0.9531,-0.908,-0.908,-0.8829,-0.8627,-0.8432,-0.8333,-0.8187,-0.8038,-0.769,-0.7437,-0.7437,-0.6534,-0.5832,-0.5832,-0.4926,-0.4207,-0.4109,-0.3824,-0.3332,0.0,0.0,0.0,-0.3346,-0.3308,-0.3301,-0.3301,-0.2698,-0.2376,-0.2376,-0.1749,-0.1391,-0.1391,-0.1391,-0.1391,-0.1391,-0.1391,-0.1391,-0.1391,-0.1391,-0.1391,-0.1436,-0.1749,-0.193,-0.193,-0.2241,-0.2376,-0.2373,-0.2355,-0.2359,-0.2371,-0.2336,-0.2334,-0.2484,-0.326,-0.3537,-0.3537,-0.3537,-0.3537,-0.3669,-0.4291,-0.4601,-0.4688,-0.4559,-0.4575,-0.459,-0.4284,-0.4495,-0.4699,-0.4393,-0.462,-0.5033,-0.5368,-0.5482,-0.5646,-0.6264,-0.6349,-0.6311,-0.6391,-0.6391,-0.643,-0.6591,-0.6638,-0.6847,-0.7411,-0.7484,-0.7484,-0.7484,-0.7484,-0.7484,-0.7484,-0.7484,-0.7484,-0.7484,-0.7484,-0.7484,-0.7484,-0.7484,-0.7516,-0.762,-0.762,-0.771,-0.789,-0.7959,-0.811,-0.8292,-0.8357,-0.8494,-1.0047,-0.9823,-0.9682,-0.8981,-0.8775,-0.8775,-0.8775,-0.8581,-0.8382,-0.8382,-0.8187,-0.7988,0.0,0.0,-0.6395,-0.6395,-0.5436,-0.4732,-0.4732,-0.3776,-0.3123,0.0,0.0,0.0,0.0,0.0,0.0,-0.1571,0.0,-0.148,-0.148,-0.1452,-0.1391,-0.1391,-0.1391,-0.1391,-0.1391,-0.1391,-0.1391,-0.1391,-0.1391,-0.1391,-0.1391,-0.1391,-0.1391,-0.1391,-0.1391,-0.1391,-0.1391,-0.1391,-0.1389,-0.1385,-0.1401,-0.1407,-0.1379,-0.1326,-0.1322,-0.1522,-0.2484,-0.2814,-0.2814,-0.2814,-0.2814,-0.2814,-0.2814,-0.2858,-0.2858,-0.2858,-0.2816,-0.2771,-0.2728,-0.3104,-0.3509,-0.3503,-0.3876,-0.4286,-0.4419,-0.44,-0.4417,-0.4396,-0.4256,-0.419,-0.4387,-0.4384,-0.4538,-0.4904,-0.5026,-0.5646,-0.7242,-0.7458,-0.7462,-0.7508,-0.7492,-0.7488,-0.7508,-0.75,-0.75,-0.7508,-0.7508,-0.7508,-0.7508,-0.7508,-0.7633,-0.7812,-0.7812,-0.7898,-0.8028,-0.8203,-0.8296,-0.8308,-0.8526,-0.8612,-0.8992,-0.9013,-0.9015,-0.8863,-0.8627,-0.8478,-0.8478,-0.8287,-0.8088,-0.8088,-0.8038,-0.7988,0.0,0.0,0.0,-0.6468,-0.4879,0.0,-0.3701,-0.2695,0.0,-0.2019,0.0,-0.1609,-0.1616,-0.1603,0.0,0.0,-0.1528,-0.148,-0.148,-0.1452,-0.1391,-0.1391,-0.1391,-0.1391,-0.1391,-0.1391,-0.1391,-0.1391,-0.1391,-0.1391,-0.1391,-0.1391,-0.1391,-0.1391,-0.1391,-0.1391,-0.1391,-0.1391,-0.1422,-0.1401,-0.1393,-0.1382,-0.1326,-0.1311,-0.131,-0.136,-0.1624,-0.1712,-0.1712,-0.1712,-0.1712,-0.1754,-0.1966,-0.2137,-0.2265,-0.2052,-0.2128,-0.2205,-0.1782,-0.206,-0.2377,-0.1974,-0.2288,-0.2807,-0.3238,-0.3315,-0.3544,-0.4336,-0.4419,-0.4401,-0.4485,-0.4337,-0.4355,-0.4596,-0.4522,-0.5039,-0.677,-0.6932,-0.7139,-0.7785,-0.7642,-0.759,-0.7858,-0.776,-0.7784,-0.787,-0.7878,-0.7878,-0.7878,-0.7878,-0.7902,-0.7947,-0.7947,-0.8036,-0.8219,-0.8268,-0.8361,-0.8539,-0.8592,-0.8612,-0.8338,-0.8417,-0.8432,-0.8432,-0.8333,-0.8233,-0.8233,-0.8088,-0.7988,-0.7988,-0.7988,0.0,0.0,0.0,0.0,0.0,0.0,0.0,-0.2596,-0.2057,-0.1632,0.0,-0.1617,0.0,-0.1617,-0.1617,-0.1617,0.0,-0.1545,-0.15,-0.15,-0.1413,-0.1391,-0.1391,-0.1391,-0.1391,-0.1391,-0.1391,-0.1391,-0.1391,-0.1391,-0.1391,-0.1391,-0.1391,-0.1391,-0.1391,0.0,-0.1391,-0.1389,-0.1421,-0.1406,-0.1388,-0.1376,-0.1319,-0.1304,-0.1291,-0.1286,-0.1284,-0.1313,-0.1308,-0.1313,-0.1298,-0.1305,-0.1348,-0.1473,-0.1641,-0.1725,-0.1556,-0.1629,-0.1699,-0.1369,-0.1523,-0.1678,-0.1366,-0.1549,-0.1815,-0.2145,-0.2207,-0.2388,-0.2988,-0.308,-0.3109,-0.3099,-0.2988,-0.3017,-0.3347,-0.3345,-0.3796,-0.5289,-0.5618,-0.594,-0.6423,-0.6492,-0.6579,-0.675,-0.69,-0.7015,-0.7057,-0.7064,-0.7064,-0.7064,-0.6866,-0.6985,-0.7559,-0.7319,-0.7567,-0.8292,-0.8292,-0.8252,-0.8116,-0.8432,-0.8256,-0.8054,-0.7988,-0.7988,-0.7988,-0.7988,-0.7988,-0.7988,-0.7988,-0.7988,-0.7988,0.0,-0.769,-0.6587,-0.5563,-0.4553,-0.348,0.0,-0.1691,-0.1723,-0.1713,-0.1647,-0.162,-0.1566,-0.1566,-0.1566,-0.1516,-0.1516,-0.1566,-0.1463,-0.1478,-0.1478,-0.1426,-0.1395,-0.1391,-0.1391,-0.1391,-0.1391,-0.1391,-0.1391,-0.1391,-0.1391,-0.1391,-0.1391,-0.1391,-0.1388,-0.1385,-0.1389,0.0,-0.1383,-0.1406,-0.1396,-0.1393,-0.1322,-0.1311,-0.1307,-0.132,-0.1309,-0.1305,-0.1319,-0.1309,-0.1317,-0.128,-0.1294,-0.1294,-0.1294,-0.1294,-0.1294,-0.1294,-0.1317,-0.1296,-0.1296,-0.1317,-0.1303,-0.129,-0.13,-0.131,-0.1294,-0.1303,-0.1305,-0.1305,-0.1285,-0.1318,-0.1306,-0.1311,-0.1439,-0.1866,-0.1983,-0.2355,-0.3351,-0.401,-0.442,-0.4559,-0.487,-0.5113,-0.5186,-0.5516,-0.5769,-0.5787,-0.579,-0.579,-0.579,-0.5342,-0.5621,-0.6704,-0.6289,-0.664,-0.785,-0.7936,-0.7703,-0.7265,-0.7984,-0.7628,-0.7982,-0.7988,-0.7988,-0.7988,-0.7988,-0.7988,-0.7988,-0.7988,0.0,0.0,0.0,-0.769,-0.6587,-0.5563,0.0,-0.3486,0.0,0.0,0.0,0.0,-0.1623,0.0,0.0,0.0,0.0,0.0,0.0,0.0,0.0,-0.1287,-0.1478,-0.1492,-0.1461,-0.1391,-0.1391,-0.1391,-0.1391,-0.1391,-0.1391,-0.1391,-0.1391,-0.1391,-0.1391,-0.1391,-0.1422,-0.1399,-0.138,0.0,-0.1399,-0.1419,-0.1383,-0.138,-0.1395,-0.1382,-0.1379,-0.1309,-0.1298,-0.1298,-0.1292,-0.129,-0.1284,-0.1286,-0.1312,-0.1312,-0.1312,-0.1312,-0.1312,-0.1312,-0.1309,-0.1305,-0.1305,-0.13,-0.1298,-0.1303,-0.1284,-0.1304,-0.1309,-0.1288,-0.1305,-0.1305,-0.1302,-0.1307,-0.1378,-0.1382,-0.1391,-0.1504,-0.1513,-0.1606,-0.1783,-0.3014,-0.4118,-0.4847,-0.4747,-0.4713,-0.5017,-0.4949,-0.4978,-0.5158,-0.5166,-0.5166,-0.5166,-0.5056,-0.51,-0.5339,-0.5277,-0.5329,-0.559,-0.594,-0.6083,-0.6018,-0.6558,-0.6653,-0.7988,-0.7988,-0.7988,-0.7988,-0.7988,-0.7968,-0.7891,0.0,0.0,0.0,0.0,-0.6833,-0.5779,0.0,0.0,0.0,0.0,0.0,0.0,0.0,0.0,0.0,0.0,0.0,0.0,0.0,0.0,0.0,0.0,-0.1109,-0.1479,-0.1482,-0.1451,-0.1391,-0.1391,-0.1391,-0.1391,-0.1391,-0.1383,-0.1412,-0.1412,-0.1412,-0.1411,-0.1353,-0.1346,-0.1391,-0.1406,0.0,-0.1413,-0.1412,-0.1421,-0.1387,-0.1401,-0.139,-0.1391,-0.1349,-0.134,-0.1369,-0.1369,-0.1317,-0.1301,-0.1313,-0.1304,-0.1304,-0.1304,-0.1304,-0.1304,-0.1304,-0.1304,-0.1304,-0.1304,-0.1304,-0.1304,-0.1304,-0.1316,-0.128,-0.1306,-0.1314,-0.1288,-0.1303,-0.1294,-0.1292,-0.1363,-0.1368,-0.133,-0.1344,-0.1346,-0.1346,-0.1346,-0.2039,-0.2666,-0.3078,-0.3251,-0.3371,-0.3528,-0.3677,-0.3802,-0.3887,-0.389,-0.389,-0.389,-0.3627,-0.3738,-0.4305,-0.4043,-0.4214,-0.4826,-0.5087,-0.5029,-0.4779,-0.5536,-0.5542,-0.7998,-0.8015,-0.8029,-0.7998,-0.7988,-0.7958,-0.7885,-0.7904,0.0,0.0,0.0,-0.6074,-0.4999,0.0,0.0,0.0,0.0,0.0,0.0,0.0,0.0,0.0,0.0,0.0,0.0,0.0,0.0,0.0,0.0,0.0,-0.1328,-0.1282,-0.1256,-0.1256,-0.13,-0.1348,-0.1355,-0.1387,-0.1416,-0.1399,-0.1386,-0.1381,-0.138,-0.1315,-0.1317,-0.1381,-0.1344,0.0,0.0,-0.1281,-0.1249,-0.127,-0.1339,-0.1334,-0.1341,-0.1396,-0.143,-0.1408,-0.1401,-0.1385,-0.1324,-0.1324,-0.1315,-0.1305,-0.1305,-0.1305,-0.1305,-0.1305,-0.1305,-0.1305,-0.1305,-0.1305,-0.1305,-0.1305,-0.1305,-0.13,-0.1318,-0.1312,-0.1319,-0.1302,-0.1287,-0.1322,-0.1309,-0.1315,-0.1317,-0.1323,-0.1324,-0.1322,-0.1315,-0.1382,-0.1406,-0.1379,-0.179,-0.2019,-0.2019,-0.2376,-0.2598,-0.2598,-0.2598,-0.2598,-0.2598,-0.2162,-0.2361,-0.3185,-0.2791,-0.3045,-0.4004,-0.4092,-0.3957,-0.3537,-0.4469,-0.4338,-0.8029,-0.8143,-0.8214,-0.8025,-0.7988,-0.7985,-0.7971,0.0,0.0,0.0,-0.7129,-0.6051,-0.5012,0.0,0.0,0.0,0.0,0.0,0.0,0.0,0.0,0.0,0.0,0.0,0.0,0.0,0.0,0.0,0.0,0.0,-0.0882,-0.0817,-0.0762,-0.0762,-0.0987,-0.1132,-0.1107,-0.1288,-0.1407,-0.1385,-0.1334,-0.1309,-0.1309,-0.1307,-0.1307,-0.1311,-0.1122,0.0,0.0,-0.0862,-0.0791,-0.0853,-0.1041,-0.1148,-0.1258,-0.1402,-0.1475,-0.1468,-0.1441,-0.1385,-0.1383,-0.1383,-0.1348,-0.1305,-0.1305,-0.1305,-0.1305,-0.1305,-0.1305,-0.1305,-0.1305,-0.1305,-0.1305,-0.1305,-0.1305,-0.1305,-0.1302,-0.1302,-0.1302,-0.1305,-0.1304,-0.1311,-0.1381,-0.1386,-0.1395,-0.1379,-0.1383,-0.1373,-0.1389,-0.1412,-0.1422,-0.1397,-0.1463,-0.148,-0.148,-0.1524,-0.1524,-0.1524,-0.1524,-0.1524,-0.1524,-0.1478,-0.152,-0.1609,-0.1562,-0.1606,-0.1698,-0.219,-0.2417,-0.2378,-0.2868,-0.309,-0.8299,-0.835,-0.8384,-0.8319,-0.8241,-0.813,-0.7943,0.0,-0.7938,-0.7811,-0.653,-0.5316,-0.4876,-0.3403,0.0,0.0,0.0,0.0,0.0,0.0,0.0,0.0,0.0,0.0,0.0,0.0,0.0,0.0,0.0,0.0,0.1292,0.0581,0.0134,0.0134,0.0044,-0.0309,-0.0848,-0.0953,-0.0978,-0.0974,-0.0957,-0.0956,-0.0927,-0.0884,-0.0891,-0.0946,-0.0835,0.0,0.0,-0.0735,-0.0754,-0.0823,-0.0851,-0.0901,-0.0962,-0.1029,-0.1157,-0.1248,-0.1237,-0.1315,-0.1391,-0.1391,-0.1375,-0.1356,-0.1356,-0.1356,-0.1356,-0.1356,-0.1356,-0.1356,-0.1356,-0.1356,-0.1352,-0.1378,-0.1344,-0.1352,-0.1378,-0.1373,-0.1373,-0.1373,-0.1317,-0.1309,-0.132,-0.1322,-0.1326,-0.1338,-0.134,-0.1335,-0.1323,-0.139,-0.1403,-0.1391,-0.1417,-0.1391,-0.1391,-0.1391,-0.1391,-0.1391,-0.1391,-0.1391,-0.1391,-0.1391,-0.1391,-0.1391,-0.1391,-0.1391,-0.1391,-0.1615,-0.1705,-0.1705,-0.2062,-0.2332,-0.8404,-0.8482,-0.8537,-0.8492,-0.8377,-0.8214,0.0,0.0,-0.7931,-0.7773,-0.6165,-0.4808,-0.4757,-0.3053,-0.1573,-0.1576,0.0,-0.1582,0.0,0.0,0.0,0.0,0.0,0.0,0.0,0.0,0.0,0.0,0.0,0.0,0.3155,0.2249,0.1546,0.1229,0.1169,0.0776,0.013,-0.0169,-0.0333,-0.0332,-0.0573,-0.0659,-0.0674,-0.0632,-0.0642,-0.0703,-0.0624,0.0,0.0,-0.0517,-0.0527,-0.0587,-0.0619,-0.0617,-0.0671,-0.0794,-0.0879,-0.1017,-0.101,-0.109,-0.1211,-0.13,-0.13,-0.13,-0.1391,-0.1391,-0.1391,-0.1391,-0.1391,-0.1391,-0.1391,-0.1391,-0.1385,-0.1408,-0.142,-0.1385,-0.1408,-0.1403,-0.1403,-0.1403,-0.1344,-0.1331,-0.1331,-0.1331,-0.1331,-0.1331,-0.1331,-0.1328,-0.1319,-0.1385,-0.14,-0.1391,-0.1417,-0.1391,-0.1391,-0.1391,-0.1391,-0.1391,-0.1391,-0.1391,-0.1391,-0.1391,-0.1391,-0.1391,-0.1391,-0.1391,-0.1391,-0.1391,-0.1391,-0.1391,-0.1625,-0.1817,-0.8364,-0.8486,-0.8672,-0.852,-0.8377,-0.8323,0.0,-0.8147,-0.7988,-0.7985,-0.6276,-0.4771,-0.4693,-0.3,-0.1601,-0.1492,-0.158,0.0,0.0,0.0,0.0,0.0,0.0,0.0,0.0,0.0,0.0,0.0,0.0,0.0,0.4212,0.4124,0.3564,0.252,0.2223,0.2078,0.208,0.1079,0.054,0.0477,-0.0249,-0.0618,-0.059,-0.059,-0.0646,0.0,0.0,0.0,0.0,-0.0097,0.0,-0.0049,-0.0294,-0.0393,-0.044,-0.0704,-0.0786,-0.0784,-0.0723,-0.0718,-0.0762,-0.1031,-0.1121,-0.1121,-0.1345,-0.1391,-0.1391,-0.1391,-0.1391,-0.1391,-0.1391,-0.1391,-0.1391,-0.139,-0.139,-0.1391,-0.139,-0.139,-0.139,-0.139,-0.139,-0.1389,-0.1389,-0.1389,-0.1389,-0.1389,-0.1389,-0.1379,-0.1393,-0.1416,-0.1379,-0.1393,-0.1417,-0.1391,-0.1391,-0.1391,-0.1391,-0.1391,-0.1391,-0.1391,-0.1391,-0.1391,-0.1391,-0.1391,-0.1391,-0.1391,-0.1391,-0.1391,-0.1391,-0.1391,-0.1466,-0.1496,-0.8401,-0.8482,-0.8543,-0.8496,-0.8377,-0.8241,-0.8136,-0.8025,-0.7961,-0.7906,-0.6223,-0.479,-0.4768,-0.2991,-0.1548,-0.157,-0.1376,0.0,0.0,0.0,0.0,0.0,0.0,0.0,0.0,0.0,0.0,0.0,0.0,0.0,0.5393,0.5245,0.4697,0.3606,0.3509,0.3132,0.2362,0.2165,0.2059,0.2121,0.1213,0.1144,0.1843,0.1203,0.0859,0.0,0.0,0.0,0.0,-0.0049,0.0,0.0,-0.0097,-0.0143,-0.0141,-0.0229,-0.0363,-0.0543,-0.0494,-0.0583,-0.0718,-0.0807,-0.0807,-0.0852,-0.0897,-0.1166,-0.1391,-0.1391,-0.1391,-0.1391,-0.1391,-0.1391,-0.1391,-0.1391,-0.1391,-0.1391,-0.1391,-0.1391,-0.1391,-0.1391,-0.1391,-0.1391,-0.1391,-0.1391,-0.1391,-0.1391,-0.1391,-0.1387,-0.1422,-0.1385,-0.1387,-0.1422,-0.1385,-0.1391,-0.1391,-0.1391,-0.1391,-0.1391,-0.1391,-0.1391,-0.1391,-0.1455,-0.1466,-0.1466,-0.1487,-0.1451,-0.1451,-0.1451,-0.1451,-0.1451,-0.1507,-0.1528,0.0,-0.8442,-0.8482,-0.8482,-0.8377,-0.8245,-0.8147,-0.8032,-0.7862,-0.7373,-0.5929,-0.4686,-0.4227,-0.272,-0.1512,-0.1418,-0.1233,0.0,0.0,0.0,0.0,0.0,0.0,0.0,0.0,0.0,0.0,0.0,0.0,0.0,0.5972,0.586,0.5492,0.4796,0.466,0.4303,0.3618,0.3381,0.3281,0.3355,0.2424,0.2295,0.2955,0.2377,0.1854,0.0,0.0,0.0,0.0,0.0,0.0,0.0,0.0,0.0,0.0,0.0,-0.009,-0.0269,-0.0269,-0.0314,-0.0449,-0.0538,-0.0628,-0.0718,-0.0718,-0.0987,-0.13,-0.13,-0.1345,-0.1391,-0.1391,-0.1391,-0.1391,-0.1391,-0.1391,-0.1391,-0.1391,-0.1391,-0.1391,-0.1391,-0.1391,-0.1391,-0.1391,-0.1391,-0.1391,-0.1391,-0.1391,-0.1391,-0.1391,-0.14,-0.1453,-0.1453,-0.1417,-0.1424,-0.1424,-0.1403,-0.1391,-0.1391,-0.1446,-0.1453,-0.1453,-0.1482,-0.1498,-0.1498,-0.1516,-0.1478,-0.1478,-0.1478,-0.1532,-0.1543,-0.1543,-0.156,0.0,-0.835,-0.8448,-0.8448,-0.835,-0.8255,-0.8255,-0.8143,0.0,-0.6637,-0.5522,-0.4466,-0.3309,-0.2256,-0.1483,-0.1174,0.0,0.0,0.0,0.0,0.0,0.0,0.0,0.0,0.0,0.0,0.0,0.0,0.0,0.0,0.6111,0.6002,0.5939,0.5939,0.5667,0.5532,0.5508,0.4631,0.4168,0.4084,0.3304,0.2905,0.2926,0.2888,0.2337,0.0,0.0,0.0,0.0,0.0,0.0,0.0,0.0,0.0,0.0,0.0,0.0,0.0,0.0,0.0,-0.0045,-0.0269,-0.0493,-0.0628,-0.0628,-0.0852,-0.1076,-0.1076,-0.1211,-0.1345,-0.139,-0.1391,-0.1391,-0.1391,-0.1391,-0.1391,-0.1391,-0.1391,-0.1391,-0.1391,-0.1392,-0.1393,-0.1391,-0.1394,-0.1396,-0.1394,-0.1395,-0.1397,-0.1397,-0.1466,-0.1484,-0.1484,-0.1509,-0.1478,-0.1478,-0.1428,-0.1397,-0.1397,-0.1468,-0.1484,-0.1484,-0.1513,-0.1529,-0.1529,-0.1483,-0.1484,-0.1484,-0.1484,-0.1547,-0.1624,-0.1624,-0.159,-0.8032,0.0,-0.8093,-0.8093,-0.8119,-0.8096,0.0,-0.8015,-0.769,-0.6637,0.0,0.0,-0.336,-0.2107,0.0,0.0,0.0,0.0,0.0,0.0,0.0,0.0,0.0,0.0,0.0,0.0,0.0,0.0,0.0,0.6352,0.6352,0.6276,0.6263,0.6263,0.6083,0.5828,0.551,0.5263,0.4872,0.4223,0.3334,0.2946,0.2955,0.2262,0.1719,0.0,0.0,0.0,0.0,0.0,0.0,0.0,0.0,0.0,0.0,0.0,0.0,0.0,0.0,0.0,0.0,-0.009,-0.0135,-0.018,-0.018,-0.0449,-0.0807,-0.0807,-0.0807,-0.0897,-0.1121,-0.1166,-0.1211,-0.1345,-0.1391,-0.1391,-0.1391,-0.1391,-0.1391,-0.1391,-0.1454,-0.1463,-0.1394,-0.1428,-0.1497,-0.1473,-0.1489,-0.1458,-0.1458,-0.1511,-0.1515,-0.1515,-0.1522,-0.1478,-0.1478,-0.1465,-0.1458,-0.1458,-0.1511,-0.1515,-0.1515,-0.1545,-0.1561,-0.1561,-0.1583,-0.1596,-0.1596,-0.1596,-0.1599,-0.1606,-0.1606,-0.161,-0.7988,-0.7988,-0.7988,-0.7988,-0.7988,-0.7988,-0.7988,0.0,0.0,0.0,0.0,0.0,0.0,0.0,0.0,0.0,0.0,0.0,0.0,0.0,0.0,0.0,0.0,0.0,0.0,0.0,0.0,0.0,0.0,0.6387,0.6387,0.6387,0.6387,0.6387,0.6263,0.6048,0.5798,0.5242,0.4714,0.4311,0.3359,0.2908,0.2947,0.2448,0.1939,0.0,0.0,0.0,0.0,0.0,0.0,0.0,0.0,0.0,0.0,0.0,0.0,0.0,0.0,0.0,0.0,0.0,0.0,0.0,0.0,-0.018,-0.0404,-0.0538,-0.0628,-0.0718,-0.0897,-0.0897,-0.0942,-0.1031,-0.1084,-0.1089,-0.1079,-0.1175,-0.1274,-0.1274,-0.1378,-0.148,-0.1432,-0.1457,-0.1521,-0.1504,-0.1515,-0.1478,-0.1478,-0.1538,-0.1547,-0.1547,-0.1559,-0.1568,-0.1568,-0.1568,-0.1555,-0.148,-0.1539,-0.1547,-0.1547,-0.1576,-0.1592,-0.1592,-0.1609,-0.1617,-0.1617,-0.1617,-0.1617,-0.1617,-0.1617,-0.1624,-0.7988,-0.7988,-0.7988,-0.7988,-0.7971,-0.7955,-0.7955,0.0,0.0,0.0,0.0,0.0,0.0,0.0,0.0,0.0,0.0,0.0,0.0,0.0,0.0,0.0,0.0,0.0,0.0,0.0,0.0,0.0,0.0,0.6387,0.6387,0.6387,0.6387,0.6387,0.6328,0.6257,0.6086,0.5105,0.442,0.4073,0.3288,0.2758,0.2474,0.2516,0.2048,0.1171,0.0,0.0,0.0,0.0,0.0,0.0,0.0,0.0,0.0,0.0,0.0,0.0,0.0,0.0,0.0,0.0,0.0,0.0,0.0,0.0,-0.0045,-0.0271,-0.0451,-0.0584,-0.063,-0.0676,-0.0676,-0.0679,-0.0688,-0.0694,-0.0682,-0.0872,-0.1023,-0.1023,-0.1212,-0.1407,-0.1428,-0.1438,-0.149,-0.1486,-0.1537,-0.1492,-0.1492,-0.1562,-0.1579,-0.1579,-0.1601,-0.1617,-0.1617,-0.1617,-0.1595,-0.1495,-0.1564,-0.1579,-0.1579,-0.1603,-0.1617,-0.1617,-0.1617,-0.1617,-0.1617,-0.1617,-0.1617,-0.1617,-0.1622,-0.1637,-0.7988,-0.7988,-0.7988,-0.7988,-0.7894,-0.7845,-0.7845,0.0,0.0,0.0,0.0,0.0,0.0,0.0,0.0,0.0,0.0,0.0,0.0,0.0,0.0,0.0,0.0,0.0,0.0,0.0,0.0,0.0,0.0,0.6387,0.6387,0.6387,0.6387,0.6387,0.6328,0.6257,0.6086,0.5907,0.4953,0.3216,0.3075,0.2086,0.0429,0.0478,0.0383,0.0239,0.0,0.0144,0.0,0.0,0.0,0.0,0.0,0.0,0.0,0.0,0.0,0.0,0.0,0.0,0.0,0.0,0.0,0.0,0.0,0.0,0.0,-0.0047,-0.0092,-0.018,-0.0367,-0.046,-0.0509,-0.0659,-0.071,-0.0711,-0.0709,-0.071,-0.0759,-0.0759,-0.0818,-0.0969,-0.1147,-0.1225,-0.1345,-0.1568,-0.1586,-0.1603,-0.1603,-0.1607,-0.161,-0.161,-0.1614,-0.1617,-0.1617,-0.1617,-0.1613,-0.1604,-0.1607,-0.161,-0.161,-0.1614,-0.1617,-0.1617,-0.1617,-0.1617,-0.1617,-0.1617,-0.1617,-0.1618,-0.1643,-0.171,-0.7801,-0.7858,-0.7916,-0.7916,-0.7877,-0.7736,-0.699,0.0,0.0,0.0,0.0,0.0,0.0,0.0,0.0,0.0,0.0,0.0,0.0,0.0,0.0,0.0,0.0,0.0,0.0,0.0,0.0,0.0,0.0,0.0,0.6344,0.6285,0.6304,0.6381,0.6263,0.6203,0.6274,0.6214,0.509,0.2946,0.2473,0.1435,0.0,0.0,0.0,0.0,0.0,0.0,0.0,0.0,0.0,0.0,0.0,0.0,0.0,0.0,0.0,0.0,0.0,0.0,0.0,0.0,0.0,0.0,0.0,0.0,0.0,0.0,0.0,-0.0046,-0.014,-0.0188,-0.0189,-0.0285,-0.0336,-0.0338,-0.0335,-0.0433,-0.0533,-0.0533,-0.0683,-0.0835,-0.0935,-0.0949,-0.1058,-0.1348,-0.1406,-0.1415,-0.1566,-0.1617,-0.1617,-0.1617,-0.1617,-0.1617,-0.1617,-0.1617,-0.1617,-0.1617,-0.1617,-0.1617,-0.1617,-0.1617,-0.1617,-0.1617,-0.1617,-0.1617,-0.1617,-0.1617,-0.1625,-0.1641,-0.1707,-0.1732,-0.76,-0.7678,-0.7763,-0.7763,0.0,-0.7307,-0.6216,-0.4939,0.0,0.0,0.0,0.0,0.0,0.0,0.0,0.0,0.0,0.0,0.0,0.0,0.0,0.0,0.0,0.0,0.0,0.0,0.0,0.0,0.0,0.0,0.6276,0.6138,0.6181,0.6391,0.6222,0.6214,0.6396,0.6336,0.5317,0.3302,0.2633,0.173,0.0677,0.0429,0.033,0.0329,0.0093,0.0,0.0,0.0,0.0,0.0,0.0,0.0,0.0,0.0,0.0,0.0,0.0,0.0,0.0,0.0,0.0,0.0,0.0,0.0,0.0,0.0,0.0,0.0,0.0,0.0,0.0,0.0,0.0,0.0,0.0,-0.0147,-0.0296,-0.0296,-0.0494,-0.0646,-0.0705,-0.0707,-0.0808,-0.1061,-0.1111,-0.1212,-0.1465,-0.1465,-0.1465,-0.1566,-0.1566,-0.1516,-0.1617,-0.1624,-0.1627,-0.1627,-0.1621,-0.1617,-0.1617,-0.1617,-0.162,-0.1627,-0.1627,-0.163,-0.1637,-0.1637,-0.165,-0.1725,-0.1732,-0.176,-0.76,-0.7607,-0.7614,-0.7614,-0.6951,0.0,-0.5882,-0.4157,0.0,-0.1953,0.0,0.0,0.0,0.0,0.0,0.0,0.0,0.0,0.0,0.0,0.0,0.0,0.0,0.0,0.0,0.0,0.0,0.0,0.0,0.0,0.61,0.6089,0.6146,0.6325,0.6314,0.6311,0.6331,0.6377,0.5768,0.459,0.4493,0.3835,0.264,0.1712,0.1283,0.1262,0.036,0.0,0.0,0.0,0.0,0.0,0.0,0.0,0.0,0.0,0.0,0.0,0.0,0.0,0.0,0.0,0.0,0.0,0.0,0.0,0.0,0.0,0.0,0.0,0.0,0.0,0.0,0.0,0.0,0.0,0.0,0.0,-0.005,-0.005,-0.005,-0.0151,-0.0404,-0.0404,-0.0505,-0.0808,-0.0808,-0.0909,-0.1212,-0.101,-0.1061,-0.1566,-0.1364,-0.1314,-0.1566,-0.1643,-0.1711,-0.1711,-0.1633,-0.1617,-0.1617,-0.1617,-0.163,-0.171,-0.1711,-0.1671,-0.1698,-0.1698,-0.1699,-0.1701,-0.1784,-0.18,-0.7267,-0.7455,-0.7456,-0.6785,-0.5844,0.0,0.0,-0.3336,-0.1911,-0.0913,0.0,0.0,0.0,0.0,0.0,0.0,0.0,0.0,0.0,0.0,0.0,0.0,0.0,0.0,0.0,0.0,0.0,0.0,0.0,0.0,0.5972,0.5907,0.5956,0.6149,0.6013,0.6007,0.6154,0.6121,0.5892,0.5427,0.4921,0.4074,0.2858,0.1869,0.14,0.1345,0.0404,0.0,0.0,0.0,0.0,0.0,0.0,0.0,0.0,0.0,0.0,0.0,0.0,0.0,0.0,0.0,0.0,0.0,0.0,0.0,0.0,0.0,0.0,0.0,0.0,0.0,0.0,0.0,0.0,0.0,0.0,0.0,0.0,0.0,0.0,-0.0051,-0.0152,-0.0152,-0.0253,-0.0505,-0.0556,-0.0657,-0.0909,-0.0859,-0.0964,-0.1386,-0.1453,-0.1566,-0.1671,-0.1682,-0.1688,-0.1688,-0.1677,-0.1671,-0.1671,-0.1671,-0.1677,-0.1688,-0.1688,-0.1694,-0.1704,-0.1704,-0.1714,-0.1787,-0.1799,-0.1815,-0.6671,-0.6767,-0.6686,-0.5541,0.0,0.0,-0.3224,-0.2308,-0.1237,-0.0209,0.0,0.0,0.0,0.0,0.0,0.0,0.0,0.0,0.0,0.0,0.0,0.0,0.0,0.0,0.0,0.0,0.0,0.0,0.0,0.0,0.0,0.5731,0.5822,0.6024,0.5871,0.5882,0.6083,0.6002,0.5942,0.5904,0.5332,0.4612,0.3744,0.2479,0.1883,0.1793,0.0539,0.0,0.0,0.0,0.0,0.0,0.0,0.0,0.0,0.0,0.0,0.0,0.0,0.0,0.0,0.0,0.0,0.0,0.0,0.0,0.0,0.0,0.0,0.0,0.0,0.0,0.0,0.0,0.0,0.0,0.0,0.0,0.0,0.0,0.0,0.0,0.0,0.0,-0.0051,-0.0255,-0.0256,-0.036,-0.0617,-0.0617,-0.0672,-0.0994,-0.1375,-0.1598,-0.1598,-0.1659,-0.1718,-0.1718,-0.1727,-0.1724,-0.1705,-0.1704,-0.1709,-0.1718,-0.1718,-0.1723,-0.1733,-0.1733,-0.1744,-0.1819,-0.1819,-0.1775,-0.5756,-0.5481,-0.5279,0.0,0.0,0.0,-0.1805,-0.1046,-0.0306,-0.0053,0.0,0.0,0.0,0.0,0.0,0.0,0.0,0.0,0.0,0.0,0.0,0.0,0.0,0.0,0.0,0.0,0.0,0.0,0.0,0.0,0.0,0.5688,0.5739,0.5899,0.5901,0.5958,0.6081,0.6083,0.6021,0.5901,0.5901,0.5841,0.5644,0.3762,0.2911,0.2778,0.0853,0.0,0.0,0.0,0.0,0.0,0.0,0.0,0.0,0.0,0.0,0.0,0.0,0.0,0.0,0.0,0.0,0.0,0.0,0.0,0.0,0.0,0.0,0.0,0.0,0.0,0.0,0.0,0.0,0.0,0.0,0.0,0.0,0.0,0.0,0.0,0.0,0.0,0.0,0.0,0.0,-0.0107,-0.0373,-0.016,-0.0107,-0.0373,-0.0959,-0.1279,-0.1281,-0.1625,-0.1804,-0.1804,-0.1778,-0.1768,-0.1707,-0.1705,-0.1719,-0.1804,-0.1804,-0.182,-0.1795,-0.1795,-0.1795,-0.1795,-0.1795,-0.1795,-0.5565,-0.5013,0.0,0.0,0.0,0.0,0.0,-0.0457,0.0,0.0,0.0,0.0,0.0,0.0,0.0,0.0,0.0,0.0,0.0,0.0,0.0,0.0,0.0,0.0,0.0,0.0,0.0,0.0,0.0,0.0,0.0,0.5731,0.5739,0.5899,0.5825,0.5756,0.5839,0.5839,0.582,0.5739,0.5739,0.5721,0.5644,0.3762,0.2911,0.2778,0.0853,0.0,0.0,0.0,0.0,0.0,0.0,0.0,0.0,0.0,0.0,0.0,0.0,0.0,0.0,0.0,0.0,0.0,0.0,0.0,0.0,0.0,0.0,0.0,0.0,0.0,0.0,0.0,0.0,0.0,0.0,0.0,0.0,0.0,0.0,0.0,0.0,0.0,0.0,0.0,0.0,-0.0053,-0.0107,-0.0216,-0.038,-0.0705,-0.1097,-0.1381,-0.1658,-0.1721,-0.1781,-0.1781,-0.179,-0.1787,-0.1769,-0.1768,-0.1772,-0.1781,-0.1781,-0.1786,-0.1795,-0.1795,-0.1795,-0.1795,-0.1795,-0.1795,-0.4304,0.0,0.0,0.0,0.0,0.0,0.0,0.0,0.0,0.0,0.0,0.0,0.0,0.0,0.0,0.0,0.0,0.0,0.0,0.0,0.0,0.0,0.0,0.0,0.0,0.0,0.0,0.0,0.0,0.0,0.0,0.5912,0.5882,0.5904,0.5836,0.5734,0.5688,0.5688,0.5688,0.5688,0.5688,0.5688,0.5644,0.4164,0.3449,0.3361,0.1402,0.0364,0.0,0.0,0.0,0.0,0.0,0.0,0.0,0.0,0.0,0.0,0.0,0.0,0.0,0.0,0.0,0.0,0.0,0.0,0.0,0.0,0.0,0.0,0.0,0.0,0.0,0.0,0.0,0.0,0.0,0.0,0.0,0.0,0.0,0.0,0.0,0.0,0.0,0.0,0.0,0.0,0.0,-0.0165,-0.0332,-0.0497,-0.078,-0.1065,-0.1402,-0.1514,-0.1683,-0.1795,-0.1795,-0.1795,-0.1795,-0.1795,-0.1795,-0.1795,-0.1795,-0.1795,-0.1795,-0.1795,-0.1795,-0.1795,-0.1795,-0.1795,-0.2462,0.0,0.0,0.0,0.0,0.0,0.0,0.0,0.0,0.0,0.0,0.0,0.0,0.0,0.0,0.0,0.0,0.0,0.0,0.0,0.0,0.0,0.0,0.0,0.0,0.0,0.0,0.0,0.0,0.0,0.0,0.6092,0.6034,0.5923,0.5909,0.5847,0.5691,0.5688,0.5688,0.5688,0.5688,0.5688,0.5688,0.4746,0.421,0.3944,0.2059,0.0786,0.0,0.0,0.0,0.0,0.0,0.0,0.0,0.0,0.0,0.0,0.0,0.0,0.0,0.0,0.0,0.0,0.0,0.0,0.0,0.0,0.0,0.0,0.0,0.0,0.0,0.0,0.0,0.0,0.0,0.0,0.0,0.0,0.0,0.0,0.0,0.0,0.0,0.0,0.0,0.0,0.0,0.0,0.0,-0.0056,-0.028,-0.0561,-0.0897,-0.1177,-0.1458,-0.1795,-0.1795,-0.1795,-0.1795,-0.1795,-0.1795,-0.1795,-0.1795,-0.1795,-0.1795,-0.1795,-0.1795,-0.1795,-0.1795,-0.1795,0.0,-0.1416,0.0,0.0,0.0,0.0,0.0,0.0,0.0,0.0,0.0,0.0,0.0,0.0,0.0,0.0,0.0,0.0,0.0,0.0,0.0,0.0,0.0,0.0,0.0,0.0,0.0,0.0,0.0,0.0,0.6273,0.6138,0.6072,0.6048,0.5953,0.5847,0.5691,0.5688,0.5688,0.0,0.5688,0.5688,0.5688,0.4746,0.3449,0.1974,0.0824,0.0187,0.0,0.0,0.0,0.0,0.0,0.0,0.0,0.0,0.0,0.0,0.0,0.0,0.0,0.0,0.0,0.0,0.0,0.0,0.0,0.0,0.0,0.0,0.0,0.0,0.0,0.0,0.0,0.0,0.0,0.0,0.0,0.0,0.0,0.0,0.0,0.0,0.0,0.0,0.0,0.0,0.0,0.0,-0.0056,-0.028,-0.0617,-0.0897,-0.1177,-0.1514,-0.1739,-0.1795,-0.1795,-0.1795,-0.1795,-0.1795,-0.1795,-0.1795,-0.1795,-0.1795,-0.1795,-0.1795,-0.1795,-0.1795,-0.1795,-0.1795,0.0,0.0,0.0,0.0,0.0,0.0,0.0,0.0,0.0,0.0,0.0,0.0,0.0,0.0,0.0,0.0,0.0,0.0,0.0,0.0,0.0,0.0,0.0,0.0,0.0,0.0,0.0,0.0,0.0,0.6282,0.6344,0.6287,0.6227,0.6173,0.6053,0.5934,0.5814,0.5715,0.5688,0.5688,0.5688,0.5688,0.5688,0.4746,0.3494,0.2065,0.111,0.0425,0.0,0.0,0.0,0.0,0.0,0.0,0.0,0.0,0.0,0.0,0.0,0.0,0.0,0.0,0.0,0.0,0.0,0.0,0.0,0.0,0.0,0.0,0.0,0.0,0.0,0.0,0.0,0.0,0.0,0.0,0.0,0.0,0.0,0.0,0.0,0.0,0.0,0.0,0.0,0.0,0.0,0.0,-0.0056,-0.0168,-0.0505,-0.0785,-0.1065,-0.1402,-0.1627,-0.1795,-0.1795,-0.1795,-0.1795,-0.1795,-0.1795,-0.1795,-0.1795,-0.1795,-0.1795,-0.1795,-0.1795,-0.1795,-0.1795,-0.1795,0.0,0.0,0.0,0.0,0.0,0.0,0.0,0.0,0.0,0.0,0.0,0.0,0.0,0.0,0.0,0.0,0.0,0.0,0.0,0.0,0.0,0.0,0.0,0.0,0.0,0.0,0.0,0.0,0.0,0.6387,0.6387,0.6387,0.6385,0.6322,0.6149,0.6026,0.5904,0.5745,0.5688,0.5688,0.5688,0.5688,0.5644,0.4567,0.3633,0.2843,0.1686,0.0716,0.0,0.0,0.0,0.0,0.0,0.0,0.0,0.0,0.0,0.0,0.0,0.0,0.0,0.0,0.0,0.0,0.0,0.0,0.0,0.0,0.0,0.0,0.0,0.0,0.0,0.0,0.0,0.0,0.0,0.0,0.0,0.0,0.0,0.0,0.0,0.0,0.0,0.0,0.0,0.0,0.0,0.0,0.0,0.0,-0.0224,-0.0561,-0.0897,-0.1121,-0.1458,-0.1795,-0.1795,-0.1795,-0.1795,-0.1795,-0.1795,-0.1795,-0.1795,-0.1795,-0.1795,-0.1795,-0.1795,-0.1795,-0.1795,-0.1795,0.0,0.0,0.0,0.0,0.0,0.0,0.0,0.0,0.0,0.0,0.0,0.0,0.0,0.0,0.0,0.0,0.0,0.0,0.0,0.0,0.0,0.0,0.0,0.0,0.0,0.0,0.0,0.0,0.6387,0.6387,0.6387,0.6387,0.6385,0.6322,0.6149,0.6026,0.5904,0.5745,0.5688,0.5688,0.5688,0.5688,0.5644,0.3896,0.3029,0.2805,0.099,0.0096,0.0,0.0,0.0,0.0,0.0,0.0,0.0,0.0,0.0,0.0,0.0,0.0,0.0,0.0,0.0,0.0,0.0,0.0,0.0,0.0,0.0,0.0,0.0,0.0,0.0,0.0,0.0,0.0,0.0,0.0,0.0,0.0,0.0,0.0,0.0,0.0,0.0,0.0,0.0,0.0,0.0,0.0,0.0,0.0,-0.0224,-0.0561,-0.0897,-0.1121,-0.1458,-0.1795,-0.1795,-0.1795,-0.1795,-0.1795,-0.1795,-0.1795,-0.1795,-0.1795,-0.1795,-0.1795,-0.1795,-0.1795,-0.1795,-0.1795,-0.0654,-0.0144,0.0,0.0,0.0,0.0,0.0,0.0,0.0,0.0,0.0,0.0,0.0,0.0,0.0,0.0,0.0,0.0,0.0,0.0,0.0,0.0,0.0,0.0,0.0,0.0,0.0,0.0,0.6387,0.6387,0.6387,0.6387,0.6365,0.6363,0.6181,0.6062,0.6005,0.5825,0.5721,0.5828,0.5828,0.5542,0.5002,0.3567,0.2943,0.2773,0.0846,0.0,0.0,0.0,0.0,0.0,0.0,0.0,0.0,0.0,0.0,0.0,0.0,0.0,0.0,0.0,0.0,0.0,0.0,0.0,0.0,0.0,0.0,0.0,0.0,0.0,0.0,0.0,0.0,0.0,0.0,0.0,0.0,0.0,0.0,0.0,0.0,0.0,0.0,0.0,0.0,0.0,0.0,0.0,0.0,0.0,-0.0224,-0.0561,-0.0897,-0.1121,-0.1458,-0.1795,-0.1795,-0.1795,-0.1795,-0.1795,-0.1795,-0.1795,-0.1795,-0.1795,-0.1795,-0.1795,-0.1795,-0.1795,-0.1795,-0.1795,0.0,0.0,0.0,0.0,0.0,0.0,0.0,0.0,0.0,0.0,0.0,0.0,0.0,0.0,0.0,0.0,0.0,0.0,0.0,0.0,0.0,0.0,0.0,0.0,0.0,0.0,0.0,0.0,0.6587,0.6587,0.6487,0.6487,0.6487,0.6387,0.6208,0.6086,0.6086,0.588,0.582,0.5904,0.5934,0.5575,0.4847,0.3564,0.2995,0.2826,0.0851,0.0,0.0,0.0,0.0,0.0,0.0,0.0,0.0,0.0,0.0,0.0,0.0,0.0,0.0,0.0,0.0,0.0,0.0,0.0,0.0,0.0,0.0,0.0,0.0,0.0,0.0,0.0,0.0,0.0,0.0,0.0,0.0,0.0,0.0,0.0,0.0,0.0,0.0,0.0,0.0,0.0,0.0,0.0,0.0,0.0,-0.0168,-0.0449,-0.0841,-0.1065,-0.1346,-0.1795,-0.1795,-0.1795,-0.1795,-0.1795,-0.1795,-0.1795,-0.1795,-0.1795,-0.1795,-0.1795,-0.1795,-0.1795,-0.1795,-0.1795,0.0,0.0,0.0,0.0,0.0,0.0,0.0,0.0,0.0,0.0,0.0,0.0,0.0,0.0,0.0,0.0,0.0,0.0,0.0,0.0,0.0,0.0,0.0,0.0,0.0,0.0,0.0,0.0,0.7138,0.7039,0.6795,0.6795,0.6642,0.6387,0.6208,0.6086,0.6086,0.5958,0.5896,0.5904,0.6021,0.6081,0.5942,0.3943,0.2991,0.2895,0.0874,0.0,0.0,0.0,0.0,0.0,0.0,0.0,0.0,0.0,0.0,0.0,0.0,0.0,0.0,0.0,0.0,0.0,0.0,0.0,0.0,0.0,0.0,0.0,0.0,0.0,0.0,0.0,0.0,0.0,0.0,0.0,0.0,0.0,0.0,0.0,0.0,0.0,0.0,0.0,0.0,0.0,0.0,0.0,0.0,0.0,0.0,-0.028,-0.0841,-0.0897,-0.1177,-0.1739,-0.1795,-0.1795,-0.1795,-0.1795,-0.1795,-0.1795,-0.1795,-0.1795,-0.1795,-0.1795,-0.1795,-0.1795,-0.1795,-0.1795,0.0,0.0,0.0,0.0,0.0051,0.0468,0.0,0.0,0.0,0.0,0.0,0.0,0.0,0.0,0.0,0.0,0.0,0.0,0.0,0.0,0.0,0.0,0.0,0.0,0.0,0.0,0.0,0.0,0.0,0.6732,0.6361,0.6359,0.6346,0.6325,0.6094,0.5969,0.5969,0.5926,0.5652,0.5129,0.5165,0.4485,0.3207,0.2419,0.1729,0.1038,0.0299,0.0,0.0,0.0,0.0,0.0,0.0,0.0,0.0,0.0,0.0,0.0,0.0,0.0,0.0,0.0,0.0,0.0,0.0,0.0,0.0,0.0,0.0,0.0,0.0,0.0,0.0,0.0,0.0,0.0,0.0,0.0,0.0,0.0,0.0,0.0,0.0,0.0,0.0,0.0,0.0,0.0,0.0,0.0,0.0,0.0,0.0,-0.0168,-0.0561,-0.0785,-0.1065,-0.1458,-0.1683,-0.1795,-0.1795,-0.1795,-0.1795,-0.1795,-0.1795,-0.1795,-0.1795,-0.1795,-0.1795,-0.1795,-0.1795,-0.1806,-0.0135,0.0,0.0,0.0,0.0,0.0459,0.1754,0.0,0.3394,0.0,0.0,0.0,0.0,0.0,0.0,0.0,0.0,0.0,0.0,0.0,0.0,0.0,0.0,0.0,0.0,0.0,0.0,0.0,0.0,0.0,0.6375,0.6322,0.6311,0.6251,0.6089,0.6005,0.5964,0.5676,0.5246,0.4698,0.4336,0.3482,0.2116,0.1765,0.121,0.0505,0.0151,0.0,0.0,0.0,0.0,0.0,0.0,0.0,0.0,0.0,0.0,0.0,0.0,0.0,0.0,0.0,0.0,0.0,0.0,0.0,0.0,0.0,0.0,0.0,0.0,0.0,0.0,0.0,0.0,0.0,0.0,0.0,0.0,0.0,0.0,0.0,0.0,0.0,0.0,0.0,0.0,0.0,0.0,0.0,0.0,0.0,0.0,-0.0112,-0.0393,-0.0729,-0.1009,-0.129,-0.1635,-0.1806,-0.1795,-0.1814,-0.1821,-0.181,-0.181,-0.181,-0.181,-0.18,-0.1795,-0.1795,-0.1795,-0.1817,0.0,0.0,0.0,0.0,0.0,0.0,0.0,0.0,0.3537,0.6426,0.0,0.0,0.0,0.0,0.0,0.0,0.0,0.0,0.0,0.0,0.0,0.0,0.0,0.0,0.0,0.0,0.0,0.0,0.7666,0.75,0.6841,0.6741,0.6505,0.6081,0.6149,0.6158,0.5997,0.5092,0.4651,0.4606,0.3595,0.3123,0.3073,0.2016,0.1563,0.1513,0.0454,0.0,0.0,0.0,0.0,0.0,0.0,0.0,0.0,0.0,0.0,0.0,0.0,0.0,0.0,0.0,0.0,0.0,0.0,0.0,0.0,0.0,0.0,0.0,0.0,0.0,0.0,0.0,0.0,0.0,0.0,0.0,0.0,0.0,0.0,0.0,0.0,0.0,0.0,0.0,0.0,0.0,0.0,0.0,0.0,0.0,0.0,-0.0112,-0.0393,-0.0729,-0.101,-0.1291,-0.1596,-0.1827,-0.1799,-0.1854,-0.1872,-0.1784,-0.1784,-0.1784,-0.1783,-0.181,-0.1795,-0.1796,-0.1798,-0.1831,-0.129,0.0,0.0,0.0,0.0,0.0,0.0,0.0,0.0,0.4851,0.617,0.0,0.0,0.0,0.0,0.0,0.0,0.0,0.0,0.0,0.0,0.0,0.0,0.0,0.0,0.0,0.0,0.0,0.7286,0.6932,0.6473,0.5627,0.5021,0.4787,0.4218,0.3897,0.3834,0.3611,0.3154,0.245,0.2161,0.1613,0.0858,0.0555,0.0454,0.0404,0.0151,0.0,0.0,0.0,0.0,0.0,0.0,0.0,0.0,0.0,0.0,0.0,0.0,0.0,0.0,0.0,0.0,0.0,0.0,0.0,0.0,0.0,0.0,0.0,0.0,0.0,0.0,0.0,0.0,0.0,0.0,0.0,0.0,0.0,0.0,0.0,0.0,0.0,0.0,0.0,0.0,0.0,0.0,0.0,0.0,0.0,0.0,-0.0056,-0.0112,-0.0617,-0.0958,-0.1027,-0.1492,-0.1847,-0.186,-0.1877,-0.1882,-0.1874,-0.1873,-0.1862,-0.1783,-0.181,-0.1806,-0.1829,-0.1872,-0.1902,0.0,0.0,0.0,0.0,0.0,0.0,0.0,0.1541,0.0,0.0,0.4788,0.5771,0.0,0.0,0.0,0.0,0.0,0.0,0.0,0.0,0.0,0.0,0.0,0.0,0.0,0.817,0.7922,0.7429,0.7244,0.67,0.5729,0.4658,0.3965,0.3779,0.332,0.3097,0.3083,0.2616,0.2143,0.1613,0.116,0.0606,0.0,0.0,0.0,0.0,0.0,0.0,0.0,0.0,0.0,0.0,0.0,0.0,0.0,0.0,0.0,0.0,0.0,0.0,0.0,0.0,0.0,0.0,0.0,0.0,0.0,0.0,0.0,0.0,0.0,0.0,0.0,0.0,0.0,0.0,0.0,0.0,0.0,0.0,0.0,0.0,0.0,0.0,0.0,0.0,0.0,0.0,0.0,0.0,0.0,0.0,0.0,-0.0057,-0.0172,-0.063,-0.0977,-0.1103,-0.1578,-0.1881,-0.1885,-0.191,-0.1917,-0.1905,-0.1904,-0.1889,-0.1859,-0.1841,-0.1842,-0.1861,-0.1909,-0.1871,-0.2052,-0.0996,0.0,0.0,0.0,0.0,0.029,0.0593,0.1208,0.0,0.0,0.3748,0.0,0.0,0.0,0.0,0.0,0.0,0.0,0.0,0.0,0.0,0.0,0.0,0.8482,0.8367,0.7973,0.7219,0.7036,0.6272,0.4652,0.3714,0.3066,0.2832,0.2836,0.2843,0.2849,0.1899,0.1412,0.1412,0.0454,0.0,0.0,0.0,0.0,0.0,0.0,0.0,0.0,0.0,0.0,0.0,0.0,0.0,0.0,0.0,0.0,0.0,0.0,0.0,0.0,0.0,0.0,0.0,0.0,0.0,0.0,0.0,0.0,0.0,0.0,0.0,0.0,0.0,0.0,0.0,0.0,0.0,0.0,0.0,0.0,0.0,0.0,0.0,0.0,0.0,0.0,0.0,0.0,0.0,0.0,0.0,0.0,-0.0118,-0.0412,-0.0707,-0.1002,-0.1359,-0.1677,-0.1921,-0.1897,-0.1948,-0.1964,-0.1937,-0.1933,-0.1919,-0.1896,-0.1892,-0.1891,-0.1892,-0.1922,-0.1936,-0.3098,-0.1968,-0.0967,0.0,0.0,0.0,0.0,0.0282,0.0573,0.0,0.2059,0.3165,0.0,0.0,0.0,0.0,0.0,0.0,0.0,0.0,0.0,0.0,0.0,0.0,0.8492,0.8249,0.7648,0.6578,0.5048,0.391,0.3293,0.2323,0.1744,0.1695,0.1025,0.0643,0.0602,0.0403,0.0303,0.0303,0.0101,0.0,0.0,0.0,0.0,0.0,0.0,0.0,0.0,0.0,0.0,0.0,0.0,0.0,0.0,0.0,0.0,0.0,0.0,0.0,0.0,0.0,0.0,0.0,0.0,0.0,0.0,0.0,0.0,0.0,0.0,0.0,0.0,0.0,0.0,0.0,0.0,0.0,0.0,0.0,0.0,0.0,0.0,0.0,0.0,0.0,0.0,0.0,0.0,0.0,0.0,0.0,0.0,0.0,-0.0118,-0.0589,-0.0948,-0.108,-0.1566,-0.1939,-0.1958,-0.1971,-0.1974,-0.1968,-0.1943,-0.194,-0.1959,-0.1934,-0.1922,-0.1923,-0.1954,-0.1968,-0.402,-0.2684,-0.1352,-0.0848,0.0,0.0,0.0,0.0,0.0421,0.039,0.0,0.0,0.0,0.0,0.0,0.0,0.0,0.0,0.0,0.0,0.0,0.0,0.0,0.0,0.7624,0.7398,0.6613,0.5083,0.3451,0.2441,0.2268,0.1288,0.0687,0.0687,0.0245,0.0,0.0,0.0,0.0,0.0,0.0,0.0,0.0,0.0,0.0,0.0,0.0,0.0,0.0,0.0,0.0,0.0,0.0,0.0,0.0,0.0,0.0,0.0,0.0,0.0,0.0,0.0,0.0,0.0,0.0,0.0,0.0,0.0,0.0,0.0,0.0,0.0,0.0,0.0,0.0,0.0,0.0,0.0,0.0,0.0,0.0,0.0,0.0,0.0,0.0,0.0,0.0,0.0,0.0,0.0,0.0,0.0,0.0,-0.006,-0.0241,-0.0664,-0.1029,-0.122,-0.1709,-0.196,-0.1976,-0.1977,-0.1977,-0.1977,-0.1962,-0.1961,-0.1977,-0.1961,-0.1954,-0.1954,-0.1969,-0.1977,0.0,0.0,0.0,0.0,0.0,0.0,0.0,0.0,0.0,0.0,0.0,0.0,0.0,0.0,0.0,0.0,0.0,0.0,0.0,0.0,0.0,0.0,0.0,0.0,0.6393,0.5963,0.5022,0.3382,0.2055,0.1305,0.131,0.0457,0.0,0.0,0.0,0.0,0.0,0.0,0.0,0.0,0.0,0.0,0.0,0.0,0.0,0.0,0.0,0.0,0.0,0.0,0.0,0.0,0.0,0.0,0.0,0.0,0.0,0.0,0.0,0.0,0.0,0.0,0.0,0.0,0.0,0.0,0.0,0.0,0.0,0.0,0.0,0.0,0.0,0.0,0.0,0.0,0.0,0.0,0.0,0.0,0.0,0.0,0.0,0.0,0.0,0.0,0.0,0.0,0.0,0.0,0.0,0.0,0.0,-0.0123,-0.037,-0.0741,-0.1111,-0.1359,-0.1791,-0.1977,-0.1977,-0.1977,-0.1977,-0.1977,-0.1977,-0.1977,-0.1977,-0.1977,-0.1977,-0.1977,-0.1977,-0.1977,0.0,0.0,0.0,0.0,-0.0673,0.0,0.0,0.0,0.0,0.0,0.0,0.0,0.0,0.0,0.0,0.0,0.0,0.0,0.0,0.0,0.0,0.0,0.0,0.0,0.0,0.3659,0.2481,0.2055,0.0865,0.0161,0.0163,0.0053,0.0,0.0,0.0,0.0,0.0,0.0,0.0,0.0,0.0,0.0,0.0,0.0,0.0,0.0,0.0,0.0,0.0,0.0,0.0,0.0,0.0,0.0,0.0,0.0,0.0,0.0,0.0,0.0,0.0,0.0,0.0,0.0,0.0,0.0,0.0,0.0,0.0,0.0,0.0,0.0,0.0,0.0,0.0,0.0,0.0,0.0,0.0,0.0,0.0,0.0,0.0,0.0,0.0,0.0,0.0,0.0,0.0,0.0,0.0,0.0,0.0,0.0,-0.0062,-0.0617,-0.0988,-0.105,-0.1667,-0.1977,-0.1977,-0.1977,-0.1977,-0.1977,-0.1977,-0.1977,-0.1977,-0.1977,-0.1977,-0.1977,-0.1977,-0.1977,0.0,0.0,0.0,0.0,0.0,0.0,0.0,0.0,0.0,0.0,0.0,0.0,0.0,0.0,0.0,0.0,0.0,0.0,0.0,0.0,0.0,0.0,0.0,0.0,0.0,0.0,0.0,0.0,0.0273,0.0,0.0,0.0,0.0,0.0,0.0,0.0,0.0,0.0,0.0,0.0,0.0,0.0,0.0,0.0,0.0,0.0,0.0,0.0,0.0,0.0,0.0,0.0,0.0,0.0,0.0,0.0,0.0,0.0,0.0,0.0,0.0,0.0,0.0,0.0,0.0,0.0,0.0,0.0,0.0,0.0,0.0,0.0,0.0,0.0,0.0,0.0,0.0,0.0,0.0,0.0,0.0,0.0,0.0,0.0,0.0,0.0,0.0,0.0,0.0,0.0,0.0,0.0,0.0,-0.0062,-0.0247,-0.0741,-0.1111,-0.1297,-0.1729,-0.1977,-0.1977,-0.1977,-0.1977,-0.1977,-0.1977,-0.1977,-0.1977,-0.1977,-0.1977,-0.1977,-0.1977,-0.1977,-0.6724,0.0,0.0,0.0,0.0,0.0,0.0,0.0,0.0,0.0,0.0,0.0,0.0,0.0,0.0,0.0,0.0,0.0,0.0,0.0,0.0,0.0,0.0,0.0,0.0,0.0,0.0,0.0,0.0,0.0,0.0,0.0,0.0,0.0,0.0,0.0,0.0,0.0,0.0,0.0,0.0,0.0,0.0,0.0,0.0,0.0,0.0,0.0,0.0,0.0,0.0,0.0,0.0,0.0,0.0,0.0,0.0,0.0,0.0,0.0,0.0,0.0,0.0,0.0,0.0,0.0,0.0,0.0,0.0,0.0,0.0,0.0,0.0,0.0,0.0,0.0,0.0,0.0,0.0,0.0,0.0,0.0,0.0,0.0,0.0,0.0,0.0,0.0,0.0,0.0,0.0,0.0,0.0,-0.0123,-0.0494,-0.0803,-0.1173,-0.1606,-0.1853,-0.1977,-0.1977,-0.1977,-0.1977,-0.1977,-0.1977,-0.1977,-0.1977,-0.1977,-0.1977,-0.1977,-0.1977,-0.1977,0.0,0.0,0.0,-0.3504,0.0,0.0,0.0,0.0,0.0,0.0,0.0,0.0,0.0,0.0,0.0,0.0,0.0,0.0,0.0,0.0,0.0,0.0,0.0,0.0,0.0,0.0,0.0,0.0,0.0,0.0,0.0,0.0,0.0,0.0,0.0,0.0,0.0,0.0,0.0,0.0,0.0,0.0,0.0,0.0,0.0,0.0,0.0,0.0,0.0,0.0,0.0,0.0,0.0,0.0,0.0,0.0,0.0,0.0,0.0,0.0,0.0,0.0,0.0,0.0,0.0,0.0,0.0,0.0,0.0,0.0,0.0,0.0,0.0,0.0,0.0,0.0,0.0,0.0,0.0,0.0,0.0,0.0,0.0,0.0,0.0,0.0,0.0,0.0,0.0,0.0,0.0,0.0,0.0,-0.0123,-0.0494,-0.0803,-0.1297,-0.1915,-0.1977,-0.1977,-0.1977,-0.1977,-0.1977,-0.1977,-0.1977,-0.1977,-0.1977,-0.1977,-0.1977,-0.1977,-0.1977,-0.1977,0.0,0.0,-0.4021,-0.3594,0.0,0.0,0.0,0.0,0.0,0.0,0.0,0.0,0.0,0.0,0.0,0.0,0.0,0.0,0.0,0.0,0.0,0.0,0.0,0.0,0.0,0.0,0.0,0.0,0.0,0.0,0.0,0.0,0.0,0.0,0.0,0.0,0.0,0.0,0.0,0.0,0.0,0.0,0.0,0.0,0.0,0.0,0.0,0.0,0.0,0.0,0.0,0.0,0.0,0.0,0.0,0.0,0.0,0.0,0.0,0.0,0.0,0.0,0.0,0.0,0.0,0.0,0.0,0.0,0.0,0.0,0.0,0.0,0.0,0.0,0.0,0.0,0.0,0.0,0.0,0.0,0.0,0.0,0.0,0.0,0.0,0.0,0.0,0.0,0.0,0.0,0.0,0.0,0.0,-0.0247,-0.0803,-0.1359,-0.1729,-0.1977,-0.1977,-0.1977,-0.1977,-0.1977,-0.1977,-0.1977,-0.1977,-0.1977,-0.1977,-0.1977,-0.1977,-0.1977,-0.1977,-0.1977,-0.7243,-0.578,0.0,-0.3764,-0.209,0.0,-0.0093,0.0,0.0,0.0,0.0,0.0,0.0,0.0,0.0,0.0,0.0,0.0,0.0,0.0,0.0,0.0,0.0,0.0,0.0,0.0,0.0,0.0,0.0,0.0,0.0,0.0,0.0,0.0,0.0,0.0,0.0,0.0,0.0,0.0,0.0,0.0,0.0,0.0,0.0,0.0,0.0,0.0,0.0,0.0,0.0,0.0,0.0,0.0,0.0,0.0,0.0,0.0,0.0,0.0,0.0,0.0,0.0,0.0,0.0,0.0,0.0,0.0,0.0,0.0,0.0,0.0,0.0,0.0,0.0,0.0,0.0,0.0,0.0,0.0,0.0,0.0,0.0,0.0,0.0,0.0,0.0,0.0,0.0,0.0,0.0,0.0,-0.0123,-0.0432,-0.1111,-0.1667,-0.1977,-0.1977,-0.1977,-0.1977,-0.1977,-0.1977,-0.1977,-0.1977,-0.1977,-0.1977,-0.1977,-0.1977,-0.1977,-0.1977,-0.1977,-0.1977]},{"header":{"parameterUnit":"m.s-1","parameterCategory":1,"la1":30.6,"la2":29.2853,"lo1":-89.7004,"lo2":-87.6739,"dy":0.0162,"dx":0.0183,"nx":112,"ny":82,"refTime":"2026-02-26T12:00:00:Z","depth":0,"parameterNumber":3,"parameterNumberName":"V-component_of_WINDS"},"data":[0.0,0.0,0.0,0.0,0.0,0.0,0.0,0.0,0.0,0.0,0.0,0.0,0.0,0.0,0.0,0.0,0.0,0.0,0.0,0.0,0.0,0.0,0.0,0.0,0.0,0.0,0.0,0.0,0.0,0.0,0.0,0.0,0.0,0.0,0.0,0.0,0.0,0.0,0.0,0.0,0.0,0.0,0.0,0.0,0.0,0.0,0.0,0.0,0.0,0.0,0.0,0.0,0.0,0.0,0.0,0.0,0.0,0.0,0.0,0.0,0.0,0.0,0.0,0.0,0.0,0.0,0.0,0.0,0.0,0.0,0.0,0.0,0.0,0.0,0.0,0.0,0.0,0.0,0.0,0.0,0.0,0.0,0.0,0.0,0.0,0.0,0.0,0.0,0.0,0.0,0.0,1.9364,1.8934,1.8854,1.9174,1.937,1.9811,2.0649,0.0,0.0,0.0,0.0,0.0,0.0,0.0,0.0,0.0,0.0,0.0,0.0,0.0,0.0,0.0,0.0,0.0,0.0,0.0,0.0,0.0,0.0,0.0,0.0,0.0,0.0,0.0,0.0,0.0,0.0,0.0,0.0,0.0,0.0,0.0,0.0,0.0,0.0,0.0,0.0,0.0,0.0,0.0,0.0,0.0,0.0,0.0,0.0,0.0,0.0,0.0,0.0,0.0,0.0,0.0,0.0,0.0,0.0,0.0,0.0,0.0,0.0,0.0,0.0,0.0,0.0,0.0,0.0,0.0,0.0,0.0,0.0,0.0,0.0,0.0,0.0,0.0,0.0,0.0,0.0,0.0,0.0,0.0,0.0,0.0,0.0,0.0,0.0,0.0,0.0,0.0,0.0,0.0,0.0,0.0,0.0,0.0,0.0,0.0,0.0,0.0,0.0,0.0,0.0,1.9015,1.8759,1.9052,1.9251,1.9212,2.0093,2.0675,2.0699,0.0,0.0,0.0,0.0,0.0,0.0,0.0,0.0,0.0,0.0,0.0,0.0,0.0,0.0,0.0,0.0,0.0,0.0,0.0,0.0,0.0,0.0,0.0,0.0,0.0,0.0,0.0,0.0,0.0,0.0,0.0,0.0,0.0,0.0,0.0,0.0,0.0,0.0,0.0,0.0,0.0,0.0,0.0,0.0,0.0,0.0,0.0,0.0,0.0,0.0,0.0,0.0,0.0,0.0,0.0,0.0,0.0,0.0,0.0,0.0,0.0,0.0,0.0,0.0,0.0,0.0,0.0,0.0,0.0,0.0,0.0,0.0,0.0,0.0,0.0,0.0,0.0,0.0,0.0,0.0,0.0,0.0,0.0,0.0,0.0,0.0,0.0,0.0,0.0,0.0,0.0,0.0,0.0,0.0,0.0,0.0,0.0,0.0,0.0,0.0,0.0,0.0,0.0,1.9066,1.8625,1.8452,1.8521,1.8709,1.9054,1.9772,2.0322,2.0687,2.0799,0.0,0.0,0.0,0.0,0.0,0.0,0.0,0.0,0.0,0.0,0.0,0.0,0.0,0.0,0.0,0.0,0.0,0.0,0.0,0.0,0.0,0.0,0.0,0.0,0.0,0.0,0.0,0.0,0.0,0.0,0.0,0.0,0.0,0.0,0.0,0.0,0.0,0.0,0.0,0.0,0.0,0.0,0.0,0.0,0.0,0.0,0.0,0.0,0.0,0.0,0.0,0.0,0.0,0.0,0.0,0.0,0.0,0.0,0.0,0.0,0.0,0.0,0.0,0.0,0.0,0.0,0.0,0.0,0.0,0.0,0.0,0.0,0.0,0.0,0.0,0.0,0.0,0.0,0.0,0.0,0.0,0.0,0.0,0.0,0.0,0.0,0.0,0.0,0.0,0.0,0.0,0.0,0.0,0.0,0.0,0.0,0.0,0.0,0.0,0.0,0.0,0.0,1.9172,1.8869,1.859,1.8456,1.8617,1.9186,1.9656,2.0156,2.0712,2.0947,0.0,0.0,0.0,0.0,0.0,0.0,0.0,0.0,0.0,0.0,0.0,0.0,0.0,0.0,0.0,0.0,0.0,0.0,0.0,0.0,0.0,0.0,0.0,0.0,0.0,0.0,0.0,0.0,0.0,0.0,0.0,0.0,0.0,0.0,0.0,0.0,0.0,0.0,0.0,0.0,0.0,0.0,0.0,0.0,0.0,0.0,0.0,0.0,0.0,0.0,0.0,0.0,0.0,0.0,0.0,0.0,0.0,0.0,0.0,0.0,0.0,0.0,0.0,0.0,0.0,0.0,0.0,0.0,0.0,0.0,0.0,0.0,0.0,0.0,0.0,0.0,0.0,0.0,0.0,0.0,0.0,0.0,0.0,0.0,0.0,0.0,0.0,0.0,0.0,0.0,0.0,0.0,0.0,0.0,0.0,0.0,0.0,0.0,0.0,0.0,0.0,0.0,1.9875,1.9888,1.9371,1.9631,1.9863,1.9914,2.0523,2.0911,2.0888,2.1071,0.0,0.0,0.0,0.0,0.0,0.0,0.0,0.0,0.0,0.0,0.0,0.0,0.0,0.0,0.0,0.0,0.0,0.0,0.0,0.0,0.0,0.0,0.0,0.0,0.0,0.0,0.0,0.0,0.0,0.0,0.0,0.0,0.0,0.0,0.0,0.0,0.0,0.0,0.0,0.0,0.0,0.0,0.0,0.0,0.0,0.0,0.0,0.0,0.0,0.0,0.0,0.0,0.0,0.0,0.0,0.0,0.0,0.0,0.0,0.0,0.0,0.0,0.0,0.0,0.0,0.0,0.0,0.0,0.0,0.0,0.0,0.0,0.0,0.0,0.0,0.0,0.0,0.0,0.0,0.0,0.0,0.0,0.0,0.0,0.0,0.0,0.0,0.0,0.0,0.0,0.0,0.0,0.0,0.0,0.0,0.0,0.0,0.0,0.0,0.0,0.0,0.0,1.9773,1.976,0.0,1.967,1.985,2.0105,2.051,2.081,2.0961,0.0,0.0,0.0,0.0,0.0,0.0,0.0,0.0,0.0,0.0,0.0,0.0,0.0,0.0,0.0,0.0,0.0,0.0,0.0,0.0,0.0,0.0,0.0,0.0,0.0,0.0,0.0,0.0,0.0,0.0,0.0,0.0,0.0,0.0,0.0,0.0,0.0,0.0,0.0,0.0,0.0,0.0,0.0,0.0,0.0,0.0,0.0,0.0,0.0,0.0,0.0,0.0,0.0,0.0,0.0,0.0,0.0,0.0,0.0,0.0,0.0,0.0,0.0,0.0,0.0,0.0,0.0,0.0,0.0,0.0,0.0,0.0,0.0,0.0,0.0,0.0,0.0,0.0,0.0,0.0,0.0,0.0,0.0,0.0,0.0,0.0,0.0,0.0,0.0,0.0,0.0,0.0,0.0,0.0,0.0,0.0,0.0,0.0,0.0,0.0,0.0,0.0,2.0283,2.0169,2.0042,0.0,1.9825,1.9823,1.9976,2.0317,2.0607,2.0804,0.0,0.0,0.0,0.0,0.0,0.0,0.0,0.0,0.0,0.0,0.0,0.0,0.0,0.0,0.0,0.0,0.0,0.0,0.0,0.0,0.0,0.0,0.0,0.0,0.0,0.0,0.0,0.0,0.0,0.0,0.0,0.0,0.0,0.0,0.0,0.0,0.0,0.0,0.0,0.0,0.0,0.0,0.0,0.0,0.0,0.0,0.0,0.0,0.0,0.0,0.0,0.0,0.0,0.0,0.0,0.0,0.0,0.0,0.0,0.0,0.0,0.0,0.0,0.0,0.0,0.0,0.0,0.0,0.0,0.0,0.0,0.0,0.0,0.0,0.0,0.0,0.0,0.0,0.0,0.0,0.0,0.0,0.0,0.0,0.0,0.0,0.0,0.0,0.0,0.0,0.0,0.0,0.0,0.0,0.0,0.0,0.0,0.0,0.0,0.0,0.0,0.0,2.1215,2.1191,2.0989,2.0449,2.0274,2.002,1.9544,2.0046,2.0395,0.0,0.0,0.0,0.0,0.0,0.0,0.0,0.0,0.0,0.0,0.0,0.0,0.0,0.0,0.0,0.0,0.0,0.0,0.0,0.0,0.0,0.0,0.0,0.0,0.0,0.0,0.0,0.0,0.0,0.0,0.0,0.0,0.0,0.0,0.0,0.0,0.0,0.0,0.0,0.0,0.0,0.0,0.0,0.0,0.0,0.0,0.0,0.0,0.0,0.0,0.0,0.0,0.0,0.0,0.0,0.0,0.0,0.0,0.0,0.0,0.0,0.0,0.0,0.0,0.0,0.0,0.0,0.0,0.0,0.0,0.0,0.0,0.0,0.0,0.0,0.0,0.0,0.0,0.0,0.0,0.0,0.0,0.0,0.0,0.0,0.0,0.0,0.0,0.0,0.0,0.0,0.0,0.0,0.0,0.0,0.0,0.0,0.0,0.0,0.0,0.0,0.0,0.0,2.0782,2.0705,2.0512,1.9958,1.9867,1.9786,1.9655,2.0147,2.0462,2.0462,0.0,0.0,0.0,0.0,0.0,0.0,0.0,0.0,0.0,0.0,0.0,0.0,0.0,0.0,0.0,0.0,0.0,0.0,0.0,0.0,0.0,0.0,0.0,0.0,0.0,0.0,0.0,0.0,0.0,0.0,0.0,0.0,0.0,0.0,0.0,0.0,0.0,0.0,0.0,0.0,0.0,0.0,0.0,0.0,0.0,0.0,0.0,0.0,0.0,0.0,0.0,0.0,0.0,0.0,0.0,0.0,0.0,0.0,0.0,0.0,0.0,0.0,0.0,0.0,0.0,0.0,0.0,0.0,0.0,0.0,0.0,0.0,0.0,0.0,0.0,0.0,0.0,0.0,0.0,0.0,0.0,0.0,0.0,0.0,0.0,0.0,0.0,0.0,0.0,0.0,0.0,0.0,0.0,0.0,0.0,0.0,0.0,0.0,0.0,0.0,0.0,0.0,2.0702,2.0745,2.0519,1.9584,1.9472,1.9441,1.9398,2.0134,2.054,2.0376,0.0,0.0,0.0,0.0,0.0,0.0,0.0,0.0,0.0,0.0,0.0,0.0,0.0,0.0,0.0,0.0,0.0,0.0,0.0,0.0,0.0,0.0,0.0,0.0,0.0,0.0,0.0,0.0,0.0,0.0,0.0,0.0,0.0,0.0,0.0,0.0,0.0,0.0,0.0,0.0,0.0,0.0,0.0,0.0,0.0,0.0,0.0,0.0,0.0,0.0,0.0,0.0,0.0,0.0,0.0,0.0,0.0,0.0,0.0,0.0,0.0,0.0,0.0,0.0,0.0,0.0,0.0,0.0,0.0,0.0,0.0,0.0,0.0,0.0,0.0,0.0,0.0,0.0,0.0,0.0,0.0,0.0,0.0,0.0,0.0,0.0,0.0,0.0,0.0,0.0,0.0,0.0,0.0,0.0,0.0,0.0,0.0,0.0,0.0,0.0,0.0,0.0,2.0919,2.1142,2.0854,1.946,1.9203,1.9059,1.8936,2.0105,2.0683,2.0323,0.0,0.0,0.0,0.0,0.0,0.0,0.0,0.0,0.0,0.0,0.0,0.0,0.0,0.0,0.0,0.0,0.0,0.0,0.0,0.0,0.0,0.0,0.0,0.0,0.0,0.0,0.0,0.0,0.0,0.0,0.0,0.0,0.0,0.0,0.0,0.0,0.0,0.0,0.0,0.0,0.0,0.0,0.0,0.0,0.0,0.0,0.0,0.0,0.0,0.0,0.0,0.0,0.0,0.0,0.0,0.0,0.0,0.0,0.0,0.0,2.9955,0.0,0.0,0.0,0.0,0.0,0.0,0.0,0.0,0.0,0.0,0.0,0.0,0.0,0.0,0.0,0.0,0.0,0.0,0.0,0.0,0.0,0.0,0.0,0.0,0.0,0.0,0.0,0.0,0.0,0.0,0.0,0.0,0.0,0.0,0.0,0.0,0.0,0.0,0.0,0.0,0.0,2.1514,2.1354,2.1015,2.024,1.9609,1.9249,1.9214,2.0421,2.1166,2.1059,2.1754,0.0,0.0,0.0,0.0,0.0,0.0,0.0,0.0,0.0,0.0,0.0,0.0,0.0,0.0,0.0,0.0,0.0,0.0,0.0,0.0,0.0,0.0,0.0,0.0,0.0,0.0,0.0,0.0,0.0,0.0,0.0,0.0,0.0,0.0,0.0,0.0,0.0,0.0,0.0,0.0,0.0,0.0,0.0,0.0,0.0,0.0,0.0,0.0,0.0,0.0,0.0,0.0,0.0,0.0,0.0,0.0,0.0,0.0,0.0,0.0,3.0232,0.0,0.0,0.0,0.0,0.0,0.0,0.0,0.0,0.0,0.0,0.0,0.0,0.0,0.0,0.0,0.0,0.0,0.0,0.0,0.0,0.0,0.0,0.0,0.0,0.0,0.0,0.0,0.0,0.0,0.0,0.0,0.0,0.0,0.0,0.0,0.0,0.0,0.0,0.0,0.0,2.2155,2.1862,2.1443,2.0669,1.9923,1.9576,1.9808,2.0763,2.1425,2.1591,2.2158,0.0,0.0,0.0,0.0,0.0,0.0,0.0,0.0,0.0,0.0,0.0,0.0,0.0,0.0,0.0,0.0,0.0,0.0,0.0,0.0,0.0,0.0,0.0,0.0,0.0,0.0,0.0,0.0,0.0,0.0,0.0,0.0,0.0,0.0,0.0,0.0,0.0,0.0,0.0,0.0,0.0,0.0,0.0,0.0,0.0,0.0,0.0,0.0,0.0,0.0,0.0,0.0,0.0,3.3349,3.3442,3.2288,3.3746,3.3919,3.305,3.2166,3.1903,3.1989,3.0839,0.0,0.0,0.0,0.0,0.0,0.0,0.0,0.0,0.0,0.0,0.0,0.0,0.0,0.0,0.0,0.0,0.0,0.0,0.0,0.0,0.0,0.0,0.0,0.0,3.0004,2.983,0.0,0.0,0.0,0.0,0.0,0.0,0.0,0.0,0.0,0.0,0.0,0.0,2.2806,2.2476,2.2086,2.142,2.0473,2.0154,2.0786,2.1383,2.1882,2.2285,2.2805,2.2972,0.0,0.0,0.0,0.0,0.0,0.0,0.0,0.0,0.0,0.0,0.0,0.0,0.0,0.0,0.0,0.0,0.0,0.0,0.0,0.0,0.0,0.0,0.0,0.0,0.0,0.0,0.0,0.0,0.0,0.0,0.0,0.0,3.4911,3.4284,0.0,0.0,0.0,0.0,0.0,0.0,0.0,0.0,0.0,0.0,0.0,0.0,0.0,3.3353,3.376,3.5024,3.5357,3.4742,3.5621,3.5588,3.4828,3.5403,3.5591,3.547,3.5664,0.0,3.3181,3.3059,0.0,0.0,0.0,0.0,0.0,0.0,0.0,0.0,0.0,0.0,0.0,0.0,0.0,0.0,0.0,0.0,0.0,0.0,0.0,0.0,0.0,0.0,3.1371,3.0521,2.9896,2.9221,0.0,2.7714,2.7274,2.6467,2.6399,0.0,0.0,0.0,0.0,0.0,0.0,0.0,2.3455,2.3092,2.3054,2.3444,2.1792,2.1182,2.2465,2.2816,2.3225,2.3868,2.4142,2.4541,2.5095,2.341,0.0,0.0,0.0,0.0,0.0,0.0,0.0,0.0,0.0,0.0,0.0,0.0,0.0,0.0,0.0,0.0,0.0,0.0,0.0,0.0,0.0,0.0,0.0,0.0,0.0,0.0,0.0,0.0,0.0,3.5455,3.5685,3.5108,3.5584,3.5117,0.0,0.0,0.0,0.0,0.0,0.0,0.0,0.0,0.0,3.571,3.5433,3.5587,3.6281,3.6397,3.6324,3.6079,3.6769,3.6674,3.5977,3.6599,3.6632,3.6239,3.6429,3.5973,3.5115,3.4729,3.4287,3.3731,0.0,0.0,0.0,0.0,3.1329,3.1405,3.188,3.2109,0.0,3.2231,0.0,0.0,0.0,0.0,0.0,0.0,0.0,0.0,0.0,0.0,3.1076,3.0794,3.0388,2.9862,2.9096,2.8714,2.8201,0.0,2.7229,2.7148,2.6136,0.0,0.0,0.0,0.0,0.0,2.4903,2.4271,2.3945,2.4211,2.3093,2.2564,2.319,2.3325,2.365,2.4325,2.4446,2.47,2.5116,2.4718,2.4523,0.0,0.0,0.0,0.0,0.0,0.0,0.0,0.0,0.0,0.0,0.0,0.0,0.0,0.0,0.0,0.0,0.0,0.0,0.0,0.0,0.0,0.0,0.0,0.0,0.0,0.0,0.0,0.0,3.6068,3.6491,3.5638,3.6434,3.6158,0.0,0.0,0.0,0.0,0.0,0.0,3.5356,3.5677,3.6359,3.7531,3.7161,3.7286,3.7921,3.7417,3.7117,3.7044,3.7481,3.7321,3.6609,3.7283,3.7274,3.677,3.6869,3.6944,3.6855,3.5813,3.522,3.4903,3.3656,3.2994,3.2698,3.2319,3.2179,3.2214,3.2536,3.275,3.2846,3.2702,0.0,3.2699,3.2173,0.0,0.0,0.0,0.0,3.1464,3.1867,3.1236,3.0494,3.0581,3.0395,3.0002,2.9399,2.9173,2.8792,0.0,2.7925,2.7832,2.6623,0.0,0.0,0.0,0.0,2.539,2.5842,2.5236,2.4815,2.4977,2.4226,2.3816,2.4107,2.408,2.4293,2.4907,2.5064,2.5221,2.5359,2.5813,2.5631,2.4729,0.0,0.0,0.0,0.0,0.0,0.0,0.0,0.0,0.0,0.0,0.0,0.0,0.0,0.0,0.0,0.0,0.0,0.0,0.0,0.0,0.0,0.0,0.0,0.0,0.0,0.0,0.0,0.0,0.0,3.5836,3.7542,0.0,0.0,0.0,0.0,3.537,3.6092,3.6586,3.6696,3.6716,3.6808,3.6933,3.7599,3.7947,3.7983,3.8643,3.8625,3.793,3.7965,3.7579,3.69,3.7301,3.7468,3.7469,3.7933,3.8123,3.7983,3.6081,3.4888,3.4175,3.341,3.2663,3.2091,3.252,3.2651,3.2734,3.3196,3.3349,3.3364,3.3349,3.3226,3.2942,3.2206,3.2404,0.0,0.0,3.1936,3.1897,3.2123,3.1021,2.9844,2.9857,2.9269,2.8696,2.8659,2.859,2.8442,0.0,2.8032,2.7859,2.7334,0.0,2.6646,2.5839,2.61,2.6219,2.5694,2.5527,2.5664,2.6234,2.5078,2.4695,2.5782,2.5631,2.5697,2.6195,2.6624,2.6872,2.6888,2.6257,2.6158,2.6656,2.6175,0.0,0.0,0.0,0.0,0.0,0.0,0.0,0.0,0.0,0.0,0.0,0.0,0.0,0.0,0.0,0.0,0.0,0.0,0.0,0.0,0.0,0.0,0.0,0.0,0.0,0.0,0.0,0.0,3.7276,3.7885,0.0,3.6404,3.6589,3.6508,3.5756,3.6636,3.746,3.7993,3.8309,3.8689,3.9209,3.9011,3.8904,3.8904,3.8653,3.8402,3.8133,3.8133,3.799,3.7739,3.7898,3.795,3.795,3.8123,3.8209,3.8066,3.6323,3.5773,3.5862,3.4576,3.3897,3.3625,3.3283,3.3147,3.3162,3.3334,3.3393,3.3393,3.3393,3.3349,3.325,3.2976,3.3039,3.319,3.2961,3.223,3.1529,3.1596,3.0438,2.9229,2.9229,2.8899,2.86,2.86,2.8574,2.8523,2.8375,2.8273,2.8063,2.7683,2.7248,2.6941,2.6916,2.6607,2.6478,2.6719,2.6595,2.6552,2.6757,2.6332,2.6197,2.6607,2.6553,2.6568,2.6741,2.6908,2.7006,2.7006,2.6908,2.6759,2.6547,2.7016,2.7163,0.0,0.0,0.0,0.0,0.0,0.0,0.0,0.0,0.0,0.0,0.0,0.0,0.0,0.0,0.0,0.0,0.0,0.0,0.0,0.0,0.0,0.0,0.0,0.0,0.0,0.0,3.8594,3.8627,3.8577,3.8319,3.7727,3.7768,3.761,3.713,3.8026,3.8744,3.8996,3.9298,3.9581,3.9782,3.9327,3.9073,3.9073,3.8528,3.8257,3.8224,3.8224,3.8257,3.8305,3.8305,3.8338,3.8453,3.8453,3.8453,3.8326,3.6668,3.6322,3.6632,3.4939,3.425,3.4151,3.3749,3.3563,3.3506,3.3577,3.3605,3.3605,3.3605,3.3605,3.3605,3.3605,3.3605,3.3605,3.3605,3.2733,3.1739,3.1482,3.0411,2.9322,2.9046,2.8868,2.8773,2.8773,2.8773,2.8737,2.8657,2.8466,2.8259,2.8003,2.7619,2.7445,2.7718,2.7291,2.7107,2.7577,2.7509,2.7398,2.7398,2.7384,2.7338,2.7276,2.7307,2.7324,2.7276,2.7322,2.7369,2.7398,2.7799,2.7847,2.7419,2.8386,2.8504,2.774,0.0,0.0,0.0,0.0,0.0,0.0,0.0,0.0,0.0,0.0,0.0,0.0,0.0,0.0,0.0,0.0,0.0,0.0,0.0,0.0,0.0,0.0,0.0,3.8464,3.9494,4.0035,3.9653,3.9572,3.9415,3.9049,3.9347,3.9549,3.9549,4.028,4.0388,3.9621,3.9584,3.9236,3.8449,3.843,3.843,3.843,3.843,3.8401,3.8322,3.8322,3.8403,3.8523,3.8523,3.8664,3.8906,3.8906,3.8906,3.8777,3.7128,3.6444,3.6232,3.4431,3.3591,3.3466,3.3873,3.3868,3.3739,3.3934,3.4011,3.4011,3.4011,3.4011,3.4011,3.4011,3.4011,3.4011,3.4011,3.3432,3.2631,3.1849,3.1048,3.0216,2.9385,2.9171,2.9152,2.9152,2.9123,2.906,2.8934,2.8632,2.8393,2.8327,2.8242,2.8191,2.8126,2.8164,0.0,2.8112,2.8164,2.8201,2.8201,2.8136,2.8025,2.7832,2.7922,2.7954,2.7818,2.7996,2.8122,2.8205,2.8884,2.9294,2.9376,3.0141,3.0144,2.9376,0.0,0.0,0.0,0.0,0.0,0.0,0.0,0.0,0.0,0.0,0.0,0.0,0.0,0.0,0.0,0.0,0.0,0.0,0.0,0.0,0.0,0.0,3.9283,3.9295,3.9582,3.9709,3.9604,3.9104,3.8915,3.9379,3.9008,3.8745,3.8745,3.8929,3.9061,3.9019,3.9019,3.901,3.898,3.898,3.898,3.898,3.898,3.8966,3.8952,3.8952,3.8966,3.9008,3.9008,3.9049,3.9122,3.9122,3.9122,3.9029,3.7994,3.7211,3.6503,3.4633,3.3881,3.3842,3.3959,3.3972,3.3934,3.4099,3.4148,3.4142,3.4201,3.4225,3.4225,3.4225,3.4225,3.4213,3.4165,3.3636,3.3041,3.281,3.2136,3.1425,3.1184,3.0565,3.0039,3.0039,2.9558,2.9093,2.9049,2.8971,2.8827,2.8556,2.8453,2.8388,2.8327,2.8286,0.0,2.8191,2.8187,2.8201,2.8201,2.8136,2.8112,2.8091,2.8081,2.8067,2.8091,2.8132,2.8191,2.8201,2.8388,2.8554,2.8663,2.8945,2.8945,0.0,0.0,0.0,0.0,0.0,0.0,0.0,0.0,0.0,0.0,0.0,0.0,0.0,0.0,0.0,0.0,0.0,0.0,0.0,0.0,0.0,0.0,4.0366,4.1211,4.1114,4.0609,4.0408,4.0848,3.9488,3.8933,3.9966,3.923,3.8737,3.8851,3.8865,3.8919,3.9087,3.91,3.9163,3.932,3.9332,3.9332,3.9332,3.9332,3.9288,3.9244,3.9244,3.9288,3.9371,3.9371,3.9408,3.9494,3.9494,3.9494,3.9438,3.8623,3.8014,0.0,0.0,0.0,0.0,0.0,3.4302,3.4401,3.4469,3.4491,3.4502,3.4548,3.4551,3.4551,3.4551,3.4551,3.454,3.4508,3.4212,3.383,3.3498,3.3026,3.2555,3.2197,3.1636,3.1094,3.0727,3.023,2.9723,2.9296,2.923,0.0,2.8868,2.8779,2.8731,2.8663,2.8633,2.8583,2.8461,2.8479,2.8466,2.8393,2.8313,2.83,2.8349,2.8273,0.0,0.0,0.0,2.8483,2.8806,2.8945,0.0,0.0,0.0,0.0,0.0,0.0,0.0,0.0,2.9334,2.9439,0.0,0.0,0.0,0.0,0.0,0.0,0.0,0.0,0.0,0.0,0.0,0.0,0.0,0.0,0.0,0.0,4.1973,4.3227,4.3321,4.2184,4.1615,4.2374,4.0362,3.9367,4.0457,3.9701,3.9245,3.9471,3.9514,3.9508,3.9532,0.0,0.0,0.0,0.0,3.9599,3.9599,3.9599,3.9525,3.9414,3.9414,3.9513,3.9689,3.9689,3.9781,3.9962,3.9962,3.9962,3.9886,3.9176,3.8826,3.8559,3.6764,3.548,3.4682,3.4854,3.5036,3.5183,3.5211,0.0,0.0,3.5069,3.5021,3.4926,3.4926,3.4926,3.4917,3.4936,3.4927,3.4756,3.4026,3.3837,3.3629,3.2882,3.2571,3.226,3.1469,3.1177,3.0781,2.9782,2.9603,2.9526,2.9233,2.9129,2.9075,2.9027,2.9053,2.9038,2.8857,2.8899,2.8851,2.8687,0.0,0.0,2.8752,2.8564,2.8533,2.8752,2.8636,2.8876,2.96,2.9867,3.0265,3.0883,3.1213,3.1043,3.0346,3.0461,3.0539,3.0598,3.0339,3.0287,0.0,0.0,0.0,0.0,0.0,0.0,0.0,0.0,0.0,0.0,0.0,0.0,0.0,0.0,0.0,4.1408,4.2511,4.342,4.4078,4.3362,4.237,4.1226,4.0624,4.0169,3.9771,3.954,3.9433,3.9502,3.9514,3.958,3.9807,3.9818,3.9914,4.0147,4.0147,4.0147,4.0147,4.0147,4.0128,4.0108,0.0,0.0,4.0166,4.0166,4.0195,4.0225,4.0225,4.0225,4.0206,4.0053,3.9586,3.8823,3.7602,3.6971,3.6818,3.6848,3.6879,3.6937,3.7034,3.6615,3.6045,3.6155,3.5704,3.5132,3.5132,3.5132,0.0,3.5136,3.5092,3.5019,3.4812,3.4709,3.4624,3.4463,3.3904,3.3383,3.3204,3.2617,3.187,3.103,3.0851,3.0615,2.9864,2.9388,2.9104,2.9075,2.9086,2.9093,2.9049,2.9049,2.9049,2.9004,2.8936,2.916,2.9759,2.915,2.9028,2.9764,2.9287,2.9037,2.9203,2.9266,2.9407,2.9639,3.0346,3.0682,3.0617,3.1393,3.1802,3.1823,3.0824,3.0798,0.0,0.0,0.0,0.0,0.0,0.0,0.0,0.0,0.0,0.0,0.0,3.8704,3.9199,0.0,4.1841,4.2716,4.3668,4.4433,4.4851,4.4547,4.3767,4.2315,4.1293,4.0659,4.0506,4.0019,3.9751,3.9881,3.9892,3.9965,4.0098,4.0098,4.0166,4.0301,4.0301,4.0301,4.0301,4.0301,4.0301,4.0301,4.0301,4.0301,4.0301,4.0301,4.0301,4.0301,4.0301,4.0301,4.0301,4.0301,4.0034,3.9594,3.9061,3.8328,3.7547,3.7547,3.7547,3.7566,3.7632,3.7364,3.702,3.7083,3.6519,3.5851,3.5851,3.5545,3.5201,3.5204,3.5179,3.5134,3.5117,3.5072,3.5046,3.5047,3.4716,3.428,3.3844,3.3381,3.2794,3.1969,3.1798,3.1665,3.124,3.0941,3.0591,3.011,3.0061,3.0168,3.0453,3.0497,3.0465,3.0357,3.0323,3.0443,3.0826,3.0453,3.0398,3.0814,3.054,3.038,3.0446,3.0522,3.0599,3.0758,3.1212,3.1487,3.1553,3.2015,3.2487,3.294,3.2322,3.231,0.0,0.0,0.0,0.0,0.0,0.0,0.0,0.0,3.8557,3.8598,3.9894,4.1105,4.1317,4.2701,4.383,4.3994,4.4803,4.54,4.54,4.54,4.5043,4.4068,4.2442,4.1423,4.1533,4.0747,4.026,4.032,4.031,4.031,4.031,4.031,4.031,4.031,4.0301,4.0301,4.0301,4.0301,4.0291,4.0301,4.0291,4.0291,4.0301,4.0301,4.0301,4.0301,4.0301,4.0301,4.0328,4.0328,4.0327,4.0354,4.0354,3.9475,3.8214,3.8199,3.8209,3.8209,3.8209,3.8094,3.7941,3.7941,3.7406,3.6729,3.6729,3.6233,3.5649,3.5488,3.545,3.5411,3.5248,3.5209,3.5201,3.5198,3.5164,3.492,3.4217,3.4032,3.3739,3.2874,3.2703,3.2665,3.2495,3.2448,3.2158,3.139,3.1279,3.144,3.1938,3.201,3.1939,3.1764,3.1771,3.173,3.1727,3.1864,3.1882,3.1734,3.173,3.1797,3.1912,3.2027,3.2136,3.2288,3.253,3.2686,3.2703,3.2866,3.3397,3.4243,3.4234,3.4215,3.9522,3.8662,3.8435,3.9362,3.9752,4.0111,0.0,0.0,4.1522,4.1535,4.1888,4.245,4.3232,4.3762,4.4306,4.5093,4.5314,4.54,4.54,4.54,4.5352,4.5208,4.4374,4.3245,4.1816,4.1568,4.1185,4.0447,4.0389,4.0389,4.0389,4.0389,4.0389,4.0389,4.0335,4.0298,4.0298,4.0298,4.029,4.0301,4.0299,4.029,4.0301,4.0301,4.0301,4.0301,4.0301,4.0326,4.0381,4.0381,4.0454,4.0571,4.0571,4.0369,4.0096,4.0031,4.0014,4.0014,4.0014,3.9508,3.8858,3.8858,3.8266,3.7559,3.7559,3.7502,3.7273,3.6557,3.6347,3.6175,3.5392,3.5209,3.5201,3.5201,3.5193,3.5155,3.5051,3.5051,3.4795,3.3982,3.381,3.3581,3.281,3.2615,3.2493,3.2272,3.2236,3.2275,3.2333,3.2352,3.2343,3.2315,3.2306,3.226,3.2127,3.2784,3.2896,3.2173,3.2241,3.2315,3.2324,3.2361,3.2424,3.2547,3.3257,3.3707,3.381,3.4533,3.5333,3.6188,3.6126,3.6026,4.0063,3.9666,0.0,0.0,4.1039,4.1496,4.2319,4.2716,4.2949,4.2986,4.3601,4.427,4.4609,4.4805,4.5036,0.0,4.5495,4.5513,4.5513,4.5513,4.534,4.4821,4.4917,4.4333,4.2572,4.1968,4.1336,4.0464,4.0407,4.0407,4.0407,4.043,4.0466,4.0466,4.0501,4.0524,4.0524,4.0524,4.0537,4.0535,4.0537,4.0537,4.0535,4.0535,4.0535,4.0535,4.0492,4.0499,4.0523,4.0518,4.0545,4.0595,4.0595,4.0559,4.05,4.0411,4.0317,4.032,4.0344,4.013,3.9804,3.9804,3.9248,3.855,3.8484,3.8094,3.7636,3.7292,3.7196,3.712,3.6757,3.6317,3.5965,3.5965,3.5564,3.5209,3.5209,3.5209,3.5095,3.4751,3.4694,3.4579,3.4208,3.4124,3.4099,3.405,3.3555,3.338,3.3799,3.3856,3.3856,3.3856,3.3856,3.3828,3.3772,3.4083,3.4121,3.3791,3.3819,3.3883,3.3975,3.3975,3.4018,3.4102,3.4435,3.4642,3.4694,3.504,3.5643,3.65,3.6464,3.6944,4.0396,0.0,0.0,4.1683,4.2195,4.2662,4.3446,4.3892,4.4102,4.4165,4.4819,4.54,4.5419,4.5476,4.5504,4.5522,4.5568,4.5594,4.5594,4.5637,4.542,4.4795,4.5086,4.4824,4.3516,4.2613,4.1769,4.0939,4.065,4.0508,4.0508,4.0564,4.0578,4.0578,4.0682,4.0721,4.0721,4.0721,4.0721,4.069,4.0721,4.0721,4.071,4.071,4.071,4.071,4.0645,4.0659,4.0682,4.0674,4.0693,4.0711,4.0711,4.0699,4.0668,4.057,4.0469,4.0388,4.0441,4.0462,4.0462,4.0462,4.0058,3.9569,3.9465,3.8999,3.8443,3.8213,3.8137,3.8098,3.7868,3.7193,3.6567,3.6567,3.5865,3.5209,3.5209,3.5209,3.5209,3.5209,3.5018,3.4942,3.5171,3.5018,3.4942,3.5171,3.4611,3.4381,3.4916,3.4992,3.4992,3.4992,3.4992,3.4992,3.4992,3.4992,3.4992,3.4992,3.4992,3.5019,3.5127,3.5127,3.5143,3.5201,3.5209,3.5209,3.5209,3.543,3.6003,3.6844,3.7073,3.7971,0.0,0.0,4.0761,4.2677,4.336,4.3763,4.4561,4.5052,4.536,4.536,4.538,4.5419,4.5485,4.5504,4.5513,4.5586,4.5594,4.5594,4.5594,4.5704,4.578,4.5761,4.5091,4.4621,0.0,4.3737,4.286,4.2102,4.1267,4.0796,4.0796,4.0781,4.0781,4.0781,4.0786,4.0796,4.0796,4.0796,4.0761,4.069,4.0761,4.0761,4.071,4.071,4.071,4.071,4.071,4.0776,4.0885,4.0881,4.0937,4.0984,4.0984,4.0953,4.0881,4.09,4.0762,4.0581,4.0588,4.0588,4.0588,4.0588,4.0588,4.0568,4.0542,4.0523,4.033,3.9481,3.925,3.9057,3.8279,3.7396,3.6695,3.6695,3.5925,3.5209,3.5209,3.5209,3.5209,3.5209,3.456,3.4273,3.5076,3.4541,3.4292,3.5076,3.5182,3.5163,3.5201,3.5201,3.5201,3.5201,3.5201,3.5201,3.5201,3.5201,3.5201,3.5201,3.5201,3.5201,3.5201,3.5201,3.5201,3.5209,3.5209,3.5209,3.5209,3.6042,3.6882,3.7674,3.8534,3.9412,0.0,0.0,4.2655,4.3296,4.414,4.4872,4.5148,4.531,4.541,4.5467,4.5467,4.5495,4.5559,4.5568,4.5577,4.5605,4.5676,4.5727,4.5727,4.5815,4.5669,4.5132,4.5295,0.0,0.0,0.0,0.0,4.2121,4.1281,4.081,4.081,4.0886,4.0937,4.0937,4.098,4.1,4.1,4.1,4.0998,4.0972,4.0998,4.0998,4.0972,4.0972,4.0972,4.097,4.0964,4.0984,4.1039,4.0977,4.0977,4.099,4.099,4.0981,4.0967,4.0967,4.0918,4.0863,4.0815,4.08,4.08,4.08,4.08,4.0784,4.0699,4.0636,4.0552,4.0301,4.0191,4.0114,3.9873,3.9154,3.8498,3.8483,3.7797,3.6948,3.6327,3.6197,3.6,3.5329,3.498,3.4885,3.5152,3.498,3.4885,3.5171,3.5209,3.5209,3.5209,3.5209,3.5209,3.5209,3.5209,3.5209,3.5209,3.5209,3.5209,3.5209,3.5209,3.5209,3.5209,3.5209,3.5209,3.5209,3.5209,3.5469,3.6061,3.6366,3.7207,3.8572,3.8858,3.947,4.1743,4.2723,4.3753,4.4154,4.4838,4.539,4.539,4.5419,4.5438,4.5495,4.5513,4.5559,4.5586,4.5646,4.5668,4.5668,4.5766,4.5841,4.5841,4.5908,4.5784,4.5263,4.5425,4.5503,0.0,0.0,0.0,4.3112,4.2038,4.1372,4.1372,4.1162,4.1044,4.1044,4.1076,4.1109,4.1109,4.1109,4.1109,4.1109,4.1109,4.1109,4.1109,4.1109,4.1109,4.1108,4.1095,4.1107,4.1107,4.1052,4.1044,4.1005,4.0694,4.0752,4.0967,4.0362,4.0323,4.0608,4.0847,4.0941,4.0941,4.0941,4.0941,4.091,4.083,4.0776,4.0747,4.0801,4.0543,4.0286,4.0339,3.9452,3.8621,3.8933,3.8316,3.7594,3.7311,3.7235,3.6954,3.5982,3.5551,3.5339,3.5345,3.5345,3.5338,3.5348,3.5597,3.5637,3.5245,3.5209,3.5209,3.5209,3.5209,3.5209,3.5209,3.5209,3.5209,3.5209,3.5209,3.5209,3.5209,3.5209,3.5362,3.566,3.566,3.608,3.692,3.7245,3.7952,3.9011,3.9317,3.9747,4.3303,4.3855,4.4126,4.515,4.541,4.541,4.541,4.5467,4.5504,4.5504,4.5559,4.5594,0.0,0.0,4.5865,4.5865,4.5929,4.5988,4.5988,4.6056,4.6105,0.0,0.0,0.0,0.0,0.0,0.0,4.4992,0.0,4.2396,4.2396,4.1576,4.1109,4.1109,4.1109,4.1109,4.1109,4.1109,4.1109,4.1109,4.1109,4.1109,4.1109,4.1109,4.1109,4.1109,4.1109,4.1109,4.1109,4.1109,4.107,4.0953,4.0112,4.0288,4.0777,3.9196,3.9079,3.9854,4.0608,4.088,4.088,4.088,4.088,4.088,4.088,4.0877,4.0877,4.0877,4.0273,3.963,3.9633,3.8371,3.7296,3.8121,3.7672,3.7254,3.8045,3.8244,3.8026,3.7143,3.6294,3.5732,3.5728,3.5708,3.5669,3.5739,3.6334,3.642,3.5399,3.5275,3.5294,3.5324,3.5248,3.5229,3.5324,3.5286,3.5286,3.5324,3.5324,3.5324,3.5324,3.5324,3.5717,3.6557,3.6557,3.6958,3.7769,3.8591,3.903,3.9088,3.99,4.0301,4.3953,4.4547,4.5064,4.5333,4.5438,4.5466,4.5466,4.5541,4.5577,4.5577,4.5586,4.5594,0.0,0.0,0.0,4.6762,4.6915,0.0,4.7022,4.6563,0.0,4.6245,0.0,4.6066,4.628,4.589,0.0,0.0,4.3743,4.2396,4.2396,4.1576,4.1109,4.1109,4.1109,4.1109,4.1109,4.1109,4.1109,4.1109,4.1109,4.1109,4.1109,4.1109,4.1109,4.1109,4.1109,4.1109,4.1109,4.1109,4.0717,4.0112,3.9897,3.9566,3.9196,3.8767,3.8728,3.8941,3.9146,3.9201,3.9201,3.9201,3.9201,3.9199,3.915,3.9141,3.9134,3.9145,3.8985,3.8824,3.8865,3.85,3.8188,3.8465,3.88,3.8922,3.8458,3.8863,3.9039,3.8054,3.7691,3.7536,3.7545,3.6993,3.6794,3.7434,3.7167,3.6726,3.6308,3.6297,3.6516,3.7022,3.5954,3.5706,3.6967,3.6509,3.6424,3.7024,3.7063,3.7063,3.7063,3.7063,3.7177,3.7387,3.7387,3.7808,3.8667,3.8897,3.9336,3.9957,4.0205,4.0301,4.4717,4.514,4.5495,4.5495,4.5513,4.5531,4.5531,4.5577,4.5594,4.5594,4.5594,0.0,0.0,0.0,0.0,0.0,0.0,0.0,4.7546,4.7123,4.6729,0.0,4.63,0.0,4.63,4.63,4.63,0.0,4.4231,4.2962,4.2962,4.1773,4.1109,4.1109,4.1109,4.1109,4.1109,4.1109,4.1109,4.1109,4.1109,4.1109,4.1109,4.1109,4.1109,4.1109,0.0,4.1109,4.107,4.0698,4.0249,3.9761,3.9409,3.9001,3.8552,3.8162,3.8025,3.7966,3.7594,3.7458,3.7594,3.8357,3.8591,3.859,3.8566,3.8539,3.8536,3.8543,3.8266,3.797,3.8022,3.7723,3.7501,3.7925,3.8367,3.8668,3.8514,3.8863,3.9048,3.8497,3.8079,3.792,3.8312,3.7968,3.7809,3.8252,3.8233,3.8112,3.7934,3.759,3.7501,3.7877,3.7053,3.6839,3.78,3.7456,3.7394,3.7844,3.7882,3.7882,3.7882,3.7502,3.746,3.7786,3.7436,3.7825,3.9011,3.9011,3.9459,4.0344,4.0319,4.0355,4.5385,4.5594,4.5594,4.5594,4.5594,4.5594,4.5594,4.5594,4.5594,4.5594,0.0,4.5646,4.5778,4.6563,4.7281,4.7529,0.0,4.8427,4.784,4.7567,4.7159,4.6397,4.6302,4.6302,4.6302,4.6303,4.6303,4.6302,4.4683,4.3705,4.3705,4.2163,4.1226,4.1109,4.1109,4.1109,4.1109,4.1109,4.1109,4.1109,4.1109,4.1109,4.1109,4.1109,4.1031,4.0934,4.1051,0.0,4.0875,4.0249,3.9976,3.9897,3.9079,3.8767,3.865,3.7789,3.7477,3.736,3.6617,3.6344,3.6558,3.7849,3.8259,3.8259,3.8259,3.8259,3.8259,3.8259,3.7711,3.7126,3.7126,3.6578,3.6187,3.695,3.7223,3.7516,3.8259,3.8513,3.8591,3.8591,3.7986,3.775,3.8611,3.8767,3.8782,3.8842,3.9481,3.9931,3.9801,3.8974,3.8418,3.852,3.8285,3.8194,3.8421,3.8336,3.8318,3.8434,3.8453,3.8453,3.8453,3.7709,3.761,3.8265,3.7583,3.7899,3.9242,3.9225,3.9629,4.0427,4.037,4.0419,4.5556,4.5594,4.5594,4.5594,4.5594,4.5594,4.5594,4.5594,0.0,0.0,0.0,4.5646,4.5778,4.6563,0.0,4.8331,0.0,0.0,0.0,0.0,4.6475,0.0,0.0,0.0,0.0,0.0,0.0,0.0,0.0,4.3692,4.3705,4.2728,4.1849,4.1129,4.1109,4.1109,4.1109,4.1109,4.1109,4.1109,4.1109,4.1109,4.1109,4.1109,4.0717,4.0073,4.0797,0.0,4.0073,4.0639,4.0875,4.0797,3.9937,3.9585,3.9488,3.8689,3.8376,3.8357,3.8201,3.8142,3.7966,3.6813,3.6441,3.6441,3.6441,3.6441,3.6441,3.6441,3.6344,3.6226,3.6226,3.6109,3.6031,3.6187,3.6774,3.734,3.7497,3.8084,3.8591,3.8591,3.8474,3.863,3.9449,3.9585,3.9839,4.0538,4.0773,4.0867,4.084,3.9965,3.9591,4.0197,3.9009,3.8738,4.0137,3.9594,3.9472,4.0198,4.0256,4.0256,4.0256,4.0093,4.0087,4.0213,4.0084,4.0136,4.0416,4.0346,4.0404,4.0572,4.0547,4.0571,4.5594,4.5594,4.5594,4.5594,4.5594,4.5479,4.5037,0.0,0.0,0.0,0.0,4.5723,4.5828,0.0,0.0,0.0,0.0,0.0,0.0,0.0,0.0,0.0,0.0,0.0,0.0,0.0,0.0,0.0,0.0,4.4185,4.3725,4.2435,4.1537,4.1109,4.1109,4.1109,4.1109,4.1109,4.0875,4.0424,4.0424,4.0424,4.0405,3.9997,3.9801,3.9819,4.0249,0.0,4.0464,4.0444,4.0698,4.1012,4.0132,3.98,3.9819,3.9879,3.9606,3.9214,3.9214,3.8942,3.8454,3.7614,3.734,3.734,3.734,3.734,3.734,3.734,3.734,3.734,3.734,3.734,3.734,3.734,3.7672,3.7849,3.7399,3.7633,3.8064,3.8513,3.824,3.8181,3.9039,3.9175,3.9313,3.9743,3.9801,3.9801,3.9801,3.9733,4.0009,4.0822,4.0181,4.0034,4.0844,4.0497,4.0407,4.0831,4.087,4.087,4.087,4.0443,4.0198,4.0121,3.9717,3.9679,4.0023,3.999,4.0234,4.0756,4.068,4.0718,4.5652,4.5748,4.5825,4.5652,4.5594,4.5421,4.472,4.5114,0.0,0.0,0.0,4.5751,4.5645,0.0,0.0,0.0,0.0,0.0,0.0,0.0,0.0,0.0,0.0,0.0,0.0,0.0,0.0,0.0,0.0,0.0,4.3476,4.1953,4.1094,4.1094,4.1093,4.1189,4.1384,4.1012,4.0561,4.0073,3.9702,3.9546,3.9527,3.8884,3.8942,3.9546,3.9743,0.0,0.0,4.0487,4.0879,4.1582,4.0896,4.0759,4.0955,4.1265,4.0952,4.0327,4.0132,3.9663,3.9138,3.9138,3.8884,3.8591,3.8591,3.8591,3.8591,3.8591,3.8591,3.8591,3.8591,3.8591,3.8591,3.8591,3.8591,3.8415,3.7731,3.7575,3.777,3.8474,3.8045,3.7848,3.8708,3.8864,3.8923,3.9118,3.9138,3.9079,3.8884,3.9566,4.0268,4.0777,4.0996,4.1103,4.1103,4.1044,4.1011,4.1011,4.1011,4.1011,4.1011,4.0411,4.0028,3.9912,3.9295,3.9237,3.976,3.977,4.0177,4.0941,4.0811,4.0844,4.5825,4.6182,4.6586,4.5806,4.5594,4.5575,4.5498,0.0,0.0,0.0,4.5658,4.5577,4.4858,0.0,0.0,0.0,0.0,0.0,0.0,0.0,0.0,0.0,0.0,0.0,0.0,0.0,0.0,0.0,0.0,0.0,4.2569,4.1613,4.1106,4.1106,4.1101,4.1488,4.2271,4.0702,4.0288,4.0953,3.943,3.8708,3.8708,3.863,3.863,3.8747,3.9554,0.0,0.0,4.1573,4.2668,4.3449,4.3366,4.3833,4.4338,4.2829,4.224,4.2045,4.1264,4.0934,4.0875,4.0875,3.984,3.8591,3.8591,3.8591,3.8591,3.8591,3.8591,3.8591,3.8591,3.8591,3.8591,3.8591,3.8591,3.8572,3.8494,3.8474,3.8494,3.8572,3.8533,3.8747,3.9546,3.9683,3.9956,4.0758,4.0875,4.0582,3.978,4.0444,4.0717,3.9995,4.0638,4.1106,4.1106,4.1085,4.1085,4.1085,4.1085,4.1085,4.1085,4.1028,4.0968,4.0964,4.0888,4.0886,4.0941,4.0937,4.0983,4.1083,4.1013,4.0977,4.7067,4.7355,4.7548,4.7182,4.674,4.6105,4.5047,0.0,4.5306,4.4297,4.5037,4.5766,4.5442,4.5126,0.0,0.0,0.0,0.0,0.0,0.0,0.0,0.0,0.0,0.0,0.0,0.0,0.0,0.0,0.0,0.0,4.0819,4.0933,4.1035,4.1035,4.0566,4.0507,4.089,3.9696,3.8992,3.8796,3.8132,3.8093,3.8602,3.8603,3.8896,3.9422,4.0265,0.0,0.0,4.2122,4.3216,4.4387,4.3331,4.3448,4.4071,4.2859,4.2406,4.2345,4.1993,4.1542,4.1109,4.1109,4.0641,4.0094,4.0094,4.0094,4.0094,4.0094,4.0094,4.0094,4.0094,4.0094,3.9977,3.9449,3.9723,3.9958,3.9449,3.9312,3.9312,3.9312,3.8923,3.8708,3.9021,3.9079,3.9196,3.9548,3.9606,3.947,3.9118,3.98,4.0171,3.9839,4.0581,4.1109,4.1109,4.1109,4.1109,4.1109,4.1109,4.1109,4.1109,4.1109,4.1109,4.1109,4.1109,4.1109,4.1109,4.1101,4.1097,4.1097,4.1061,4.1067,4.7663,4.8105,4.8413,4.8163,4.7509,4.6586,0.0,0.0,4.5267,4.4085,4.4931,4.5744,4.5258,4.5072,4.5031,4.5129,0.0,4.5304,0.0,0.0,0.0,0.0,0.0,0.0,0.0,0.0,0.0,0.0,0.0,0.0,4.0091,4.0387,4.0478,4.0235,3.967,3.9524,3.9843,3.875,3.8143,3.8026,3.7535,3.7768,3.8607,3.8608,3.9213,4.0287,4.0874,0.0,0.0,4.3063,4.3883,4.4879,4.3648,4.3531,4.396,4.2825,4.2393,4.2351,4.2097,4.1607,4.1095,4.1093,4.1093,4.1093,4.1109,4.1109,4.1109,4.1109,4.1109,4.1109,4.1109,4.1109,4.0953,4.0327,4.0659,4.0934,4.0327,4.0171,4.0171,4.0171,3.9723,3.9333,3.9333,3.9333,3.9333,3.9333,3.9333,3.9255,3.8982,3.9663,4.0093,3.9839,4.0581,4.1109,4.1109,4.1109,4.1109,4.1109,4.1109,4.1109,4.1109,4.1109,4.1109,4.1109,4.1109,4.1109,4.1109,4.1109,4.1109,4.1109,4.1355,4.162,4.7135,4.8125,4.9183,4.8317,4.7509,4.6904,0.0,4.6201,4.5594,4.5575,4.5743,4.5394,4.3733,4.4293,4.4444,4.2728,4.3878,0.0,0.0,0.0,0.0,0.0,0.0,0.0,0.0,0.0,0.0,0.0,0.0,0.0,4.0936,4.0081,3.9253,3.8453,3.8412,3.8831,3.9692,3.8051,3.8082,3.9743,3.8085,3.7768,3.8609,3.8609,3.9506,0.0,0.0,0.0,0.0,4.4629,4.498,4.5,4.4979,4.4979,4.4783,4.3041,4.2395,4.2278,4.1419,4.1107,4.1106,4.11,4.1098,4.1098,4.1091,4.1109,4.1109,4.1109,4.1109,4.1109,4.1109,4.1109,4.1109,4.109,4.109,4.1109,4.109,4.109,4.109,4.109,4.109,4.107,4.107,4.107,4.107,4.107,4.107,4.0758,3.9897,4.0542,4.0758,3.9897,4.0581,4.1109,4.1109,4.1109,4.1109,4.1109,4.1109,4.1109,4.1109,4.1109,4.1109,4.1109,4.1109,4.1109,4.1109,4.1109,4.1109,4.1129,4.1986,4.2845,4.7644,4.8105,4.8452,4.8182,4.7509,4.674,4.6144,4.5806,4.5441,4.4836,4.5356,4.5569,4.4432,4.4157,4.4328,4.4953,4.5037,0.0,0.0,0.0,0.0,0.0,0.0,0.0,0.0,0.0,0.0,0.0,0.0,0.0,4.1664,4.0876,4.0058,3.9249,3.865,3.8192,3.7934,3.7398,3.7717,3.8848,3.834,3.8831,4.0192,4.0842,4.1417,0.0,0.0,0.0,0.0,4.4883,4.5,4.4941,4.4336,4.375,4.3086,4.1991,4.1541,4.1461,4.1208,4.1109,4.1107,4.1105,4.1105,4.1104,4.1103,4.1097,4.1109,4.1109,4.1109,4.1109,4.1109,4.1109,4.1109,4.1109,4.1109,4.1109,4.1109,4.1109,4.1109,4.1109,4.1109,4.1109,4.1109,4.1109,4.1109,4.1109,4.1109,4.0992,4.0717,4.0934,4.0992,4.0717,4.0934,4.1109,4.1109,4.1109,4.1109,4.1109,4.1109,4.1109,4.1109,4.1674,4.1986,4.1986,4.2572,4.2886,4.2886,4.2886,4.2886,4.2886,4.3157,4.3762,0.0,4.7875,4.8105,4.8105,4.7509,4.6759,4.6201,4.5845,4.5458,4.4966,4.5415,4.5541,4.4409,4.4468,4.4701,4.4802,4.5198,0.0,0.0,0.0,0.0,0.0,0.0,0.0,0.0,0.0,0.0,0.0,0.0,0.0,4.2492,4.1699,4.1021,4.0518,3.9374,3.851,3.8012,3.77,3.7983,3.884,3.8928,3.966,4.0968,4.1866,4.2459,0.0,0.0,0.0,0.0,4.5488,4.5293,4.4902,4.4043,4.3164,4.2305,4.1504,4.1172,4.1132,4.1132,4.1132,4.113,4.111,4.1108,4.1107,4.1107,4.1101,4.1093,4.1093,4.1091,4.1109,4.1109,4.1109,4.1109,4.1109,4.1109,4.1109,4.1109,4.1109,4.1109,4.1109,4.1109,4.1109,4.1109,4.1109,4.1109,4.1109,4.1109,4.1109,4.1109,4.1382,4.1596,4.1596,4.189,4.2085,4.2085,4.148,4.1109,4.1109,4.14,4.1596,4.1596,4.2435,4.2884,4.2884,4.3411,4.3705,4.3705,4.3705,4.386,4.4192,4.4192,4.466,0.0,4.7355,4.7913,4.7913,4.7355,4.6817,4.6817,4.6182,0.0,4.5771,4.5801,4.5347,4.3879,4.4924,4.5288,4.3031,0.0,0.0,0.0,0.0,0.0,0.0,0.0,0.0,0.0,0.0,0.0,0.0,0.0,0.0,4.3479,4.2705,4.226,4.226,4.0642,3.9675,3.9501,3.8767,3.8839,3.9693,3.9765,4.0286,4.1205,4.1951,4.2807,0.0,0.0,0.0,0.0,4.623,4.5683,4.4824,4.3945,4.3086,4.2226,4.1484,4.1191,4.1191,4.1191,4.1191,4.1191,4.1132,4.111,4.1108,4.1108,4.1104,4.1099,4.1099,4.1095,4.1091,4.109,4.1109,4.1109,4.1109,4.1109,4.1109,4.1109,4.1109,4.1109,4.1109,4.1148,4.1168,4.1109,4.1207,4.1265,4.1207,4.1246,4.1285,4.1285,4.1986,4.2494,4.2494,4.3216,4.3705,4.3705,4.2222,4.1285,4.1285,4.2045,4.2494,4.2494,4.3333,4.3782,4.3782,4.3842,4.3881,4.3881,4.3881,4.4309,4.5088,4.5088,4.5539,4.5845,0.0,4.6191,4.6191,4.6047,4.5913,0.0,4.5748,4.5646,4.5771,0.0,0.0,4.4561,4.3856,0.0,0.0,0.0,0.0,0.0,0.0,0.0,0.0,0.0,0.0,0.0,0.0,0.0,0.0,0.0,4.52,4.52,4.5014,4.4917,4.4917,4.3285,4.1467,3.952,3.9317,3.9682,4.0601,4.0664,4.1477,4.2926,4.3163,4.3755,0.0,0.0,0.0,4.625,4.5586,4.4785,4.3926,4.3047,4.2207,4.1465,4.1269,4.1191,4.1191,4.1191,4.1191,4.1191,4.1172,4.1172,4.1171,4.1171,4.113,4.1105,4.1105,4.1105,4.1103,4.1098,4.1097,4.1095,4.1091,4.1109,4.1109,4.1109,4.1109,4.1109,4.1109,4.1635,4.1888,4.1207,4.2202,4.2864,4.2181,4.265,4.31,4.31,4.3274,4.3391,4.3391,4.3587,4.3705,4.3705,4.3315,4.31,4.31,4.3274,4.3391,4.3391,4.4231,4.4699,4.4699,4.5343,4.5695,4.5695,4.5695,4.5792,4.5987,4.5987,4.6105,4.5594,4.5594,4.5594,4.5594,4.5594,4.5594,4.5594,0.0,0.0,0.0,0.0,0.0,0.0,0.0,0.0,0.0,0.0,0.0,0.0,0.0,0.0,0.0,0.0,0.0,0.0,0.0,0.0,0.0,0.0,4.5807,4.5807,4.5807,4.5807,4.5807,4.4562,4.3034,4.1255,4.0502,4.0586,4.1456,4.1524,4.2244,4.3513,4.3955,4.4411,0.0,0.0,0.0,4.5644,4.4766,4.3887,4.3066,4.2578,4.1914,4.1191,4.1191,4.1191,4.1191,4.1191,4.1191,4.1191,4.1191,4.1191,4.1191,4.1191,4.1171,4.1131,4.111,4.1108,4.1107,4.1103,4.1103,4.1102,4.11,4.1411,4.1587,4.1197,4.1409,4.1699,4.1699,4.2087,4.2376,4.2319,4.3081,4.3548,4.3079,4.3391,4.3705,4.3705,4.4055,4.4309,4.4309,4.4641,4.4894,4.4894,4.4894,4.4543,4.3744,4.4075,4.4309,4.4309,4.5129,4.5597,4.5597,4.6066,4.63,4.63,4.63,4.63,4.63,4.63,4.6515,4.5594,4.5594,4.5594,4.5594,4.5498,4.5402,4.5402,0.0,0.0,0.0,0.0,0.0,0.0,0.0,0.0,0.0,0.0,0.0,0.0,0.0,0.0,0.0,0.0,0.0,0.0,0.0,0.0,0.0,0.0,4.5807,4.5807,4.5807,4.5807,4.5807,4.5026,4.4168,4.3305,4.1956,4.1621,4.2304,4.2372,4.2802,4.3563,4.4304,4.466,4.4711,0.0,0.0,4.4726,4.3867,4.3066,4.2383,4.2266,4.1797,4.1191,4.1191,4.1191,4.1191,4.1191,4.1191,4.1191,4.1191,4.1191,4.1211,4.1348,4.1308,4.123,4.1444,4.1306,4.1148,4.1265,4.1303,4.1322,4.1479,4.2065,4.2397,4.1654,4.2081,4.2605,4.2605,4.2717,4.2985,4.3609,4.3922,4.4057,4.392,4.4016,4.4096,4.4096,4.4738,4.5207,4.5207,4.5851,4.63,4.63,4.63,4.5675,4.4193,4.4797,4.5207,4.5207,4.5909,4.63,4.63,4.63,4.63,4.63,4.63,4.63,4.63,4.6436,4.6885,4.5594,4.5594,4.5594,4.5594,4.5056,4.4489,4.4489,0.0,0.0,0.0,0.0,0.0,0.0,0.0,0.0,0.0,0.0,0.0,0.0,0.0,0.0,0.0,0.0,0.0,0.0,0.0,0.0,0.0,0.0,4.5807,4.5807,4.5807,4.5807,4.5807,4.5026,4.4168,4.3305,4.3054,4.3056,4.3279,4.3289,4.3426,4.367,4.3806,4.3865,4.3886,0.0,4.3886,4.3828,4.2969,4.2519,4.2324,4.1641,4.1308,4.1191,4.1191,4.1191,4.1191,4.1191,4.1191,4.1191,4.1191,4.1191,4.1328,4.2012,4.1738,4.1484,4.2891,4.2285,4.1347,4.203,4.2204,4.2399,4.3139,4.3393,4.3451,4.3334,4.3412,4.3509,4.3509,4.4094,4.4403,4.3793,4.4925,4.5644,4.4914,4.5421,4.589,4.589,4.6027,4.6105,4.6105,4.6222,4.63,4.63,4.63,4.6183,4.5929,4.6027,4.6105,4.6105,4.6222,4.63,4.63,4.63,4.63,4.63,4.63,4.63,4.6319,4.7061,4.7469,4.4239,4.4566,4.4893,4.4893,4.496,4.5024,4.5086,0.0,0.0,0.0,0.0,0.0,0.0,0.0,0.0,0.0,0.0,0.0,0.0,0.0,0.0,0.0,0.0,0.0,0.0,0.0,0.0,0.0,0.0,0.0,4.5142,4.4717,4.4852,4.5768,4.4562,4.4136,4.4639,4.4214,4.3826,4.3494,4.3543,4.3844,4.4394,4.3906,4.3691,4.3672,0.0,4.3008,4.293,4.2109,4.1758,4.1719,4.1348,4.1191,4.125,4.1699,4.2148,4.2558,4.2558,4.2558,4.2558,4.2558,4.2558,4.2617,4.2988,4.2832,4.2715,4.3476,4.2812,4.2031,4.2871,4.3105,4.3203,4.3593,4.4061,4.4276,4.3807,4.406,4.4391,4.4391,4.4721,4.5012,4.5088,4.5771,4.616,4.5761,4.6033,4.6306,4.6302,4.63,4.63,4.63,4.63,4.63,4.63,4.63,4.63,4.63,4.63,4.63,4.63,4.63,4.63,4.63,4.63,4.63,4.63,4.63,4.6534,4.7002,4.7411,4.8094,4.3104,4.3547,4.4028,4.4028,0.0,4.5175,4.5673,4.5101,0.0,0.0,0.0,0.0,0.0,0.0,0.0,0.0,0.0,0.0,0.0,0.0,0.0,0.0,0.0,0.0,0.0,0.0,0.0,0.0,0.0,0.0,4.4304,4.3672,4.3982,4.5471,4.4272,4.4214,4.551,4.5084,4.4508,4.3782,4.3827,4.4028,4.4311,4.367,4.326,4.3046,4.2402,4.2129,4.207,4.1445,4.1191,4.1191,4.1191,4.1328,4.1582,4.2402,4.3125,4.3691,4.3691,4.3691,4.3691,4.3691,4.3691,4.373,4.3945,4.3867,4.3789,4.4199,4.3672,4.3164,4.3828,4.4004,4.4062,4.4258,4.4824,4.5117,4.4453,4.4824,4.5292,4.5292,4.529,4.5523,4.6186,4.6303,4.6301,4.6296,4.6295,4.6293,4.6305,4.6305,4.6305,4.6302,4.6302,4.6303,4.63,4.6495,4.6593,4.6593,4.6417,4.63,4.63,4.63,4.6397,4.6593,4.6593,4.669,4.6885,4.6885,4.7237,4.7899,4.8094,4.8874,4.3104,4.3143,4.3181,4.3181,4.3273,0.0,4.5441,4.4709,0.0,4.4723,0.0,0.0,0.0,0.0,0.0,0.0,0.0,0.0,0.0,0.0,0.0,0.0,0.0,0.0,0.0,0.0,0.0,0.0,0.0,0.0,4.3401,4.3324,4.373,4.4652,4.4574,4.4555,4.469,4.5374,4.5338,4.4608,4.4618,4.3836,4.2398,4.2407,4.1992,4.1289,4.1287,4.1289,4.1289,4.1211,4.1191,4.1191,4.1191,4.166,4.2422,4.3281,4.3652,4.3691,4.3691,4.3691,4.3691,4.3691,4.3691,4.3848,4.4668,4.4336,4.4043,4.5664,4.5488,4.4824,4.4883,4.4902,4.5117,4.5918,4.6152,4.6191,4.6133,4.6152,4.6211,4.6211,4.6211,4.623,4.6287,4.6307,4.6306,4.6301,4.6301,4.63,4.6293,4.6297,4.6296,4.6302,4.6308,4.6309,4.6302,4.7042,4.7508,4.7508,4.6749,4.63,4.63,4.63,4.6671,4.7489,4.7508,4.7861,4.8623,4.8623,4.8642,4.872,4.9538,4.9987,4.1477,4.2277,4.311,4.3142,4.3653,0.0,0.0,4.5562,4.6074,4.6495,0.0,0.0,0.0,0.0,0.0,0.0,0.0,0.0,0.0,0.0,0.0,0.0,0.0,0.0,0.0,0.0,0.0,0.0,0.0,0.0,4.2492,4.2028,4.2376,4.375,4.2783,4.2744,4.3788,4.3556,4.3292,4.3038,4.361,4.3305,4.2188,4.1755,4.1382,4.1091,4.117,4.1191,4.1191,4.1191,4.1191,4.125,4.1758,4.2793,4.4062,4.4394,4.4844,4.5312,4.5312,4.5312,4.5312,4.5312,4.5312,4.5371,4.5703,4.5586,4.5449,4.6113,4.6055,4.5801,4.5801,4.5801,4.5898,4.6211,4.6308,4.6308,4.6308,4.6308,4.6308,4.6308,4.6308,4.6308,4.6308,4.6308,4.6308,4.6306,4.6305,4.6304,4.63,4.6301,4.6513,4.705,4.7556,4.7845,4.7842,4.8154,4.8349,4.8349,4.8037,4.7842,4.7842,4.7842,4.8017,4.8349,4.8349,4.8505,4.8798,4.8798,4.9072,4.9616,4.9948,5.0397,4.0964,4.1839,4.2821,4.3181,0.0,0.0,4.4708,4.5958,4.723,4.7871,0.0,0.0,0.0,0.0,0.0,0.0,0.0,0.0,0.0,0.0,0.0,0.0,0.0,0.0,0.0,0.0,0.0,0.0,0.0,0.0,0.0,4.1106,4.1429,4.286,4.1777,4.1854,4.3285,4.2705,4.228,4.2009,4.2656,4.2544,4.1746,4.1273,4.107,4.1074,4.1168,4.1191,4.1191,4.1191,4.1348,4.1699,4.2793,4.3945,4.5039,4.5312,4.5781,4.6308,4.6308,4.6308,4.6308,4.6308,4.6308,4.6308,4.6308,4.6308,4.6308,4.6308,4.6308,4.6308,4.6308,4.6308,4.6308,4.6308,4.6308,4.6308,4.6308,4.6308,4.6308,4.6308,4.6308,4.6308,4.6308,4.6523,4.6719,4.6718,4.6933,4.7127,4.7125,4.7125,4.7358,4.7958,4.8476,4.8802,4.8821,4.9054,4.9208,4.9208,4.9462,4.9364,4.8818,4.8798,4.8935,4.9208,4.9208,4.9345,4.9618,4.9618,4.993,5.0514,5.0514,5.0828,4.1951,4.1987,4.223,0.0,0.0,0.0,4.471,4.5632,4.6796,4.8535,0.0,0.0,0.0,0.0,0.0,0.0,0.0,0.0,0.0,0.0,0.0,0.0,0.0,0.0,0.0,0.0,0.0,0.0,0.0,0.0,0.0,4.0797,4.1164,4.197,4.199,4.2396,4.3266,4.3285,4.2841,4.199,4.199,4.1564,4.0803,4.0941,4.099,4.1019,4.1143,4.1191,4.1191,4.1211,4.1699,4.2598,4.4336,4.5019,4.5117,4.5976,4.6308,4.6308,4.6308,4.6308,4.6308,4.6308,4.6308,4.6308,4.6308,4.6308,4.6308,4.6308,4.6308,4.6308,4.6308,4.6308,4.6308,4.6308,4.6308,4.6308,4.6308,4.6308,4.6308,4.6308,4.6308,4.6308,4.6308,4.7031,4.7617,4.7598,4.834,4.8906,4.8905,4.8906,4.8906,4.8905,4.8858,4.885,4.8928,4.9641,5.0104,5.0104,5.0926,5.0633,4.8896,4.8818,4.9228,5.0104,5.0104,5.0534,5.1394,5.1394,5.1394,5.1394,5.1394,5.1394,4.1228,4.1574,0.0,0.0,0.0,0.0,0.0,4.656,0.0,0.0,0.0,0.0,0.0,0.0,0.0,0.0,0.0,0.0,0.0,0.0,0.0,0.0,0.0,0.0,0.0,0.0,0.0,0.0,0.0,0.0,0.0,4.1106,4.1164,4.197,4.1448,4.128,4.1545,4.1545,4.1409,4.1164,4.1164,4.1029,4.0803,4.0941,4.099,4.1019,4.1143,4.1191,4.123,4.1816,4.291,4.4277,4.4805,4.5371,4.5957,4.6191,4.6308,4.6308,4.6308,4.6308,4.6308,4.6308,4.6308,4.6308,4.6308,4.6308,4.6308,4.6308,4.6308,4.6308,4.6308,4.6308,4.6308,4.6308,4.6308,4.6308,4.6308,4.6308,4.6484,4.7109,4.7207,4.7207,4.7207,4.7949,4.8301,4.7695,4.834,4.8906,4.8906,4.9433,4.9803,4.9741,5.0261,5.0645,5.0656,5.0889,5.1004,5.1004,5.1258,5.118,5.0653,5.0633,5.075,5.1004,5.1004,5.1141,5.1394,5.1394,5.1394,5.1394,5.1394,5.1394,4.2281,0.0,0.0,0.0,0.0,0.0,0.0,0.0,0.0,0.0,0.0,0.0,0.0,0.0,0.0,0.0,0.0,0.0,0.0,0.0,0.0,0.0,0.0,0.0,0.0,0.0,0.0,0.0,0.0,0.0,0.0,4.2067,4.1854,4.2009,4.1525,4.1126,4.0797,4.0797,4.0797,4.0797,4.0797,4.0797,4.0803,4.0902,4.0968,4.0995,4.1441,4.1658,4.1777,4.2949,4.4043,4.5039,4.5371,4.584,4.6308,4.6308,4.6308,4.6308,4.6308,4.6308,4.6308,4.6308,4.6308,4.6308,4.6308,4.6308,4.6308,4.6308,4.6543,4.6816,4.6816,4.707,4.7168,4.6465,4.6562,4.6816,4.6816,4.709,4.748,4.8008,4.8125,4.8125,4.8125,4.8848,4.9238,4.8711,4.9355,4.9883,4.9883,5.0351,5.0663,5.0622,5.1088,5.1395,5.1407,5.1403,5.1398,5.1394,5.1394,5.1394,5.1394,5.1394,5.1394,5.1394,5.1394,5.1394,5.1394,5.1394,5.1394,5.1394,5.1394,5.1394,4.4209,0.0,0.0,0.0,0.0,0.0,0.0,0.0,0.0,0.0,0.0,0.0,0.0,0.0,0.0,0.0,0.0,0.0,0.0,0.0,0.0,0.0,0.0,0.0,0.0,0.0,0.0,0.0,0.0,0.0,0.0,4.3343,4.2937,4.2144,4.2048,4.1603,4.0816,4.0797,4.0797,4.0797,4.0797,4.0797,4.0797,4.0858,4.0917,4.0963,4.1902,4.2395,4.2656,4.4316,4.5058,4.5195,4.5996,4.6308,4.6308,4.6308,4.6308,4.6308,4.6308,4.6308,4.6308,4.6308,4.6308,4.6308,4.6308,4.6308,4.6328,4.6406,4.6992,4.7617,4.7695,4.8301,4.8496,4.6914,4.7148,4.7715,4.7715,4.834,4.8926,4.9004,4.9023,4.9023,4.9023,4.9746,5.0312,5.0312,5.0937,5.1406,5.1406,5.1406,5.1406,5.1406,5.1405,5.1403,5.1398,5.1393,5.1405,5.1394,5.1394,5.1394,5.1394,5.1394,5.1394,5.1394,5.1394,5.1394,5.1394,5.1394,5.1394,5.1394,5.1394,5.1394,0.0,4.3258,0.0,0.0,0.0,0.0,0.0,0.0,0.0,0.0,0.0,0.0,0.0,0.0,0.0,0.0,0.0,0.0,0.0,0.0,0.0,0.0,0.0,0.0,0.0,0.0,0.0,0.0,0.0,0.0,4.4284,4.3672,4.3208,4.3034,4.2357,4.1603,4.0816,4.0797,4.0797,0.0,4.0797,4.0797,4.0797,4.0858,4.0968,4.1105,4.1984,4.2773,4.3496,4.4551,4.5391,4.6035,4.623,4.6308,4.6308,4.6308,4.6308,4.6308,4.6308,4.6308,4.6308,4.6308,4.6308,4.6308,4.6308,4.6308,4.6445,4.7129,4.7461,4.7754,4.8437,4.8769,4.8808,4.8437,4.8476,4.8613,4.8613,4.8769,4.9101,4.9785,4.9922,4.9922,4.9922,5.0605,5.1133,5.1133,5.1289,5.1406,5.1406,5.1406,5.1406,5.1405,5.1402,5.1398,5.1393,5.1403,5.1396,5.1394,5.1394,5.1394,5.1394,5.1394,5.1394,5.1394,5.1394,5.1394,5.1394,5.1394,5.1394,5.1394,5.1394,5.1394,0.0,0.0,0.0,0.0,0.0,0.0,0.0,0.0,0.0,0.0,0.0,0.0,0.0,0.0,0.0,0.0,0.0,0.0,0.0,0.0,0.0,0.0,0.0,0.0,0.0,0.0,0.0,0.0,0.0,4.4697,4.5142,4.4736,4.4311,4.3924,4.3073,4.2222,4.1371,4.099,4.0797,4.0797,4.0797,4.0797,4.0797,4.0858,4.0964,4.112,4.2407,4.326,4.3808,4.5098,4.5898,4.6308,4.6308,4.6308,4.6308,4.6308,4.6308,4.6308,4.6308,4.6308,4.6308,4.6308,4.6308,4.6308,4.6308,4.6582,4.7012,4.7461,4.8203,4.8945,4.9394,4.9805,5.0098,5.0098,4.9805,4.9512,4.9512,4.9824,5.0234,5.0683,5.0762,5.0762,5.0762,5.1113,5.1406,5.1406,5.1406,5.1406,5.1406,5.1406,5.1406,5.1406,5.1404,5.14,5.1395,5.1407,5.14,5.1394,5.1394,5.1394,5.1394,5.1394,5.1394,5.1394,5.1394,5.1394,5.1394,5.1394,5.1394,5.1394,5.1394,5.1394,0.0,0.0,0.0,0.0,0.0,0.0,0.0,0.0,0.0,0.0,0.0,0.0,0.0,0.0,0.0,0.0,0.0,0.0,0.0,0.0,0.0,0.0,0.0,0.0,0.0,0.0,0.0,0.0,0.0,4.5807,4.5807,4.5807,4.5432,4.4632,4.375,4.2879,4.2009,4.1203,4.0797,4.0797,4.0797,4.0797,4.0803,4.0878,4.1011,4.1308,4.2916,4.3725,4.4043,4.5644,4.6308,4.6308,4.6308,4.6308,4.6308,4.6308,4.6308,4.6308,4.6308,4.6308,4.6308,4.6308,4.6308,4.6328,4.6484,4.7031,4.7656,4.7969,4.9082,5.0234,5.0371,5.0898,5.1406,5.1406,5.0898,5.041,5.041,5.0937,5.1406,5.1406,5.1406,5.1406,5.1406,5.1406,5.1406,5.1406,5.1406,5.1406,5.1406,5.1406,5.1406,5.1406,5.1406,5.1403,5.1398,5.1394,5.1405,5.1394,5.1394,5.1394,5.1394,5.1394,5.1394,5.1394,5.1394,5.1394,5.1394,5.1394,5.1394,5.1394,5.1394,5.1394,0.0,0.0,4.5234,0.0,0.0,0.0,0.0,0.0,0.0,0.0,0.0,0.0,0.0,0.0,0.0,0.0,0.0,0.0,0.0,0.0,0.0,0.0,0.0,0.0,0.0,0.0,0.0,0.0,4.5807,4.5807,4.5807,4.5807,4.5432,4.4632,4.375,4.2879,4.2009,4.1203,4.0797,4.0797,4.0797,4.0797,4.0803,4.0928,4.1374,4.2094,4.3211,4.4121,4.4902,4.5898,4.6308,4.6308,4.6308,4.6308,4.6308,4.6308,4.6308,4.6308,4.6308,4.6308,4.6308,4.6308,4.6308,4.6445,4.7207,4.7519,4.791,4.9433,5.0019,5.0351,5.1055,5.1328,5.1406,5.1406,5.1328,5.123,5.123,5.1328,5.1406,5.1406,5.1406,5.1406,5.1406,5.1406,5.1406,5.1406,5.1406,5.1406,5.1406,5.1406,5.1406,5.1406,5.1406,5.1403,5.1398,5.1394,5.1405,5.1394,5.1394,5.1394,5.1394,5.1394,5.1394,5.1394,5.1394,5.1394,5.1394,5.1394,5.1394,5.1394,5.1394,5.1394,4.2846,4.4043,4.543,0.0,0.0,0.0,0.0,0.0,0.0,0.0,0.0,0.0,0.0,0.0,0.0,0.0,0.0,0.0,0.0,0.0,0.0,0.0,0.0,0.0,0.0,0.0,0.0,0.0,4.5807,4.5807,4.5807,4.5807,4.5652,4.5278,4.3982,4.3131,4.2725,4.1448,4.1029,4.1467,4.1467,4.1743,4.2264,4.237,4.2085,4.1607,4.3078,4.3926,4.4375,4.5742,4.6308,4.6308,4.6308,4.6308,4.6308,4.6308,4.6308,4.6308,4.6308,4.6308,4.6308,4.6308,4.6621,4.7109,4.748,4.8281,4.9219,4.998,5.0527,5.0957,5.1308,5.1406,5.1406,5.1406,5.1406,5.1406,5.1406,5.1406,5.1406,5.1406,5.1406,5.1406,5.1406,5.1406,5.1406,5.1406,5.1406,5.1406,5.1406,5.1406,5.1406,5.1406,5.1406,5.1403,5.1398,5.1394,5.1405,5.1394,5.1394,5.1394,5.1394,5.1394,5.1394,5.1394,5.1394,5.1394,5.1394,5.1394,5.1394,5.1394,5.1394,5.1394,0.0,0.0,4.5098,4.6836,0.0,0.0,0.0,0.0,0.0,0.0,0.0,0.0,0.0,0.0,0.0,0.0,0.0,0.0,0.0,0.0,0.0,0.0,0.0,0.0,0.0,0.0,0.0,0.0,4.5778,4.5778,4.5793,4.5793,4.5793,4.5807,4.4175,4.3305,4.3305,4.1835,4.1409,4.2009,4.2222,4.2704,4.3382,4.3467,4.2825,4.1721,4.3331,4.416,4.4453,4.5762,4.6308,4.6308,4.6308,4.6308,4.6308,4.6308,4.6308,4.6308,4.6308,4.6445,4.6621,4.6621,4.7226,4.7969,4.8183,4.918,5.0234,5.0449,5.0937,5.1406,5.1406,5.1406,5.1406,5.1406,5.1406,5.1406,5.1406,5.1406,5.1406,5.1406,5.1406,5.1406,5.1406,5.1406,5.1406,5.1406,5.1406,5.1406,5.1406,5.1406,5.1406,5.1406,5.1406,5.1404,5.1399,5.1395,5.1408,5.1394,5.1394,5.1394,5.1394,5.1394,5.1394,5.1394,5.1394,5.1394,5.1394,5.1394,5.1394,5.1394,5.1394,5.1394,0.0,4.3105,0.0,4.5937,0.0,0.0,0.0,0.0,0.0,0.0,0.0,0.0,0.0,0.0,0.0,0.0,0.0,0.0,0.0,0.0,0.0,0.0,0.0,0.0,0.0,0.0,0.0,0.0,4.5715,4.5731,4.5807,4.5807,4.581,4.5807,4.4175,4.3305,4.3305,4.2396,4.1951,4.2009,4.2841,4.3266,4.3305,4.3435,4.3452,4.3439,4.4484,4.5391,4.6172,4.6269,4.6308,4.6308,4.6308,4.6308,4.6308,4.6308,4.6308,4.6308,4.6308,4.6836,4.7539,4.7539,4.8125,4.8984,4.9805,5.0137,5.0351,5.1113,5.1367,5.1406,5.1406,5.1406,5.1406,5.1406,5.1406,5.1406,5.1406,5.1406,5.1406,5.1406,5.1406,5.1406,5.1406,5.1406,5.1406,5.1406,5.1406,5.1406,5.1406,5.1406,5.1406,5.1406,5.1406,5.1405,5.1399,5.1398,5.1393,5.1396,5.1394,5.1394,5.1394,5.1394,5.1394,5.1394,5.1394,5.1394,5.1394,5.1394,5.1394,5.1394,5.1394,5.1394,0.0,0.0,0.0,4.5723,4.6777,4.7712,0.0,0.0,0.0,0.0,0.0,0.0,0.0,0.0,0.0,0.0,0.0,0.0,0.0,0.0,0.0,0.0,0.0,0.0,0.0,0.0,0.0,0.0,0.0,4.4711,4.4213,4.4193,4.4452,4.5007,4.3363,4.2473,4.2473,4.2164,4.2576,4.3743,4.4054,4.454,4.516,4.5209,4.526,4.532,4.5683,4.5683,4.5508,4.6074,4.6308,4.6308,4.6308,4.6308,4.6308,4.6308,4.6641,4.7129,4.7129,4.7715,4.8437,4.8437,4.9023,4.9785,5.0117,5.0566,5.1035,5.1328,5.1406,5.1406,5.1406,5.1406,5.1406,5.1406,5.1406,5.1406,5.1406,5.1406,5.1406,5.1406,5.1406,5.1406,5.1406,5.1406,5.1406,5.1406,5.1406,5.1406,5.1406,5.1406,5.1406,5.1406,5.1406,5.1406,5.1403,5.14,5.1395,5.1405,5.1398,5.1394,5.1394,5.1394,5.1394,5.1394,5.1394,5.1394,5.1394,5.1394,5.1394,5.1394,5.1394,5.1707,4.125,0.0,0.0,0.0,0.0,4.6795,4.8699,0.0,5.01,0.0,0.0,0.0,0.0,0.0,0.0,0.0,0.0,0.0,0.0,0.0,0.0,0.0,0.0,0.0,0.0,0.0,0.0,0.0,0.0,0.0,4.3303,4.3271,4.3529,4.413,4.3324,4.2725,4.2434,4.275,4.3513,4.4695,4.5026,4.5511,4.6162,4.6197,4.6215,4.6267,4.6289,4.5976,4.5488,4.6055,4.6308,4.6308,4.6308,4.6308,4.6348,4.6621,4.7109,4.7637,4.793,4.8613,4.9336,4.9336,4.9902,5.0605,5.0605,5.0976,5.1406,5.1406,5.1406,5.1406,5.1406,5.1406,5.1465,5.1777,5.1836,5.1914,5.2207,5.1816,5.1406,5.1406,5.1406,5.1406,5.1406,5.1406,5.1406,5.1406,5.1406,5.1406,5.1406,5.1406,5.1406,5.1406,5.1406,5.1406,5.1405,5.1401,5.1396,5.139,5.1673,5.1707,5.1414,5.196,5.2136,5.1843,5.1843,5.1843,5.1843,5.1531,5.1394,5.1394,5.1394,5.2019,0.0,0.0,0.0,0.0,0.0,0.0,0.0,0.0,4.9796,4.9644,0.0,0.0,0.0,0.0,0.0,0.0,0.0,0.0,0.0,0.0,0.0,0.0,0.0,0.0,0.0,0.0,0.0,0.0,4.4322,4.3935,4.3192,4.3168,4.3204,4.3266,4.4105,4.4163,4.3357,4.4259,4.472,4.4764,4.5679,4.6105,4.6109,4.6167,4.6204,4.6206,4.6267,4.6308,4.6308,4.6308,4.6308,4.6308,4.6308,4.6328,4.6445,4.7285,4.7637,4.7793,4.8633,4.9512,5.0234,5.0234,5.0762,5.1406,5.1406,5.1406,5.1406,5.1406,5.1406,5.1406,5.1426,5.1465,5.1699,5.2539,5.2734,5.2969,5.3828,5.2676,5.1484,5.1484,5.1484,5.1484,5.1484,5.1484,5.1484,5.1484,5.1445,5.1445,5.1445,5.1426,5.1406,5.1406,5.1406,5.1406,5.1405,5.1401,5.1416,5.1449,5.2222,5.2331,5.1511,5.3093,5.36,5.2743,5.2743,5.2724,5.2704,5.1824,5.1414,5.1433,5.1492,5.2429,3.9412,0.0,0.0,0.0,0.0,0.0,0.0,0.0,0.0,4.9254,4.9362,0.0,0.0,0.0,0.0,0.0,0.0,0.0,0.0,0.0,0.0,0.0,0.0,0.0,0.0,0.0,0.0,0.0,4.3832,4.3158,4.236,4.2382,4.2419,4.2426,4.3311,4.3988,4.4385,4.4639,4.5105,4.5794,4.6043,4.6202,4.6242,4.6266,4.6267,4.6268,4.6289,4.6308,4.6308,4.6308,4.6308,4.6308,4.6308,4.6699,4.7266,4.7519,4.8398,4.9512,4.9766,5.0371,5.1074,5.1074,5.1211,5.1406,5.1406,5.1406,5.1406,5.1406,5.1406,5.1543,5.2187,5.2812,5.334,5.3574,5.3633,5.3711,5.3945,5.3613,5.3281,5.3281,5.3281,5.3281,5.3281,5.3281,5.3281,5.3281,5.2734,5.2344,5.2344,5.1797,5.1406,5.1406,5.1406,5.1406,5.1406,5.1402,5.1671,5.2294,5.2576,5.2878,5.3268,5.3737,5.3893,5.3659,5.3639,5.3327,5.2704,5.1824,5.1726,5.237,5.362,5.4478,0.0,0.0,0.0,0.0,0.0,0.0,0.0,4.556,0.0,0.0,4.8612,4.8761,0.0,0.0,0.0,0.0,0.0,0.0,0.0,0.0,0.0,0.0,0.0,0.0,0.0,4.6336,4.5804,4.4996,4.4176,4.3214,4.2092,4.2106,4.2138,4.2135,4.3389,4.4286,4.4796,4.5198,4.5653,4.6202,4.6235,4.6265,4.6308,4.6308,4.6308,4.6308,4.6308,4.6308,4.6308,4.6308,4.6308,4.6348,4.6699,4.7148,4.7695,4.8418,4.9336,5.0254,5.0586,5.1016,5.1406,5.1406,5.1406,5.1406,5.1406,5.1406,5.1406,5.1406,5.166,5.2051,5.2578,5.3359,5.4082,5.4453,5.4531,5.4648,5.5019,5.5078,5.4863,5.4141,5.4004,5.4004,5.4004,5.4004,5.4004,5.4004,5.3574,5.3242,5.3242,5.2793,5.248,5.248,5.248,5.248,5.248,5.2477,5.2706,5.3211,5.357,5.3854,5.399,5.4693,5.4908,5.4556,5.4537,5.4108,5.3249,5.2722,5.2741,5.3288,5.4654,5.53,3.8363,3.9694,0.0,0.0,0.0,0.0,4.4335,4.5309,4.6136,0.0,0.0,4.8292,0.0,0.0,0.0,0.0,0.0,0.0,0.0,0.0,0.0,0.0,0.0,0.0,4.8105,4.7451,4.6707,4.5901,4.5059,4.3929,4.248,4.2455,4.2507,4.2503,4.401,4.4871,4.4968,4.5781,4.6209,4.6209,4.6267,4.6308,4.6308,4.6308,4.6308,4.6308,4.6308,4.6308,4.6308,4.6308,4.6308,4.6387,4.7266,4.7656,4.7949,4.959,5.0254,5.0449,5.1152,5.1406,5.1406,5.1406,5.1406,5.1406,5.1406,5.1406,5.1426,5.1523,5.2168,5.2871,5.2969,5.3633,5.4473,5.5254,5.5449,5.5664,5.6426,5.6601,5.6133,5.459,5.4297,5.4297,5.4297,5.4297,5.4297,5.4297,5.4219,5.4141,5.4141,5.4062,5.4004,5.4004,5.4004,5.4004,5.4002,5.3999,5.4034,5.4143,5.4877,5.5005,5.4322,5.5786,5.6235,5.5454,5.5357,5.4966,5.4283,5.4186,5.4147,5.4166,5.5044,5.5435,3.8293,3.9189,4.0281,0.0,0.0,0.0,0.0,4.3046,4.3805,0.0,4.6009,4.5985,0.0,0.0,0.0,0.0,0.0,0.0,0.0,0.0,0.0,0.0,0.0,0.0,4.8163,4.8007,4.7612,4.6806,4.6091,4.5261,4.4311,4.4334,4.438,4.4362,4.4754,4.5308,4.5992,4.619,4.6288,4.6288,4.6289,4.6308,4.6308,4.6308,4.6308,4.6308,4.6308,4.6308,4.6308,4.6308,4.6308,4.6387,4.7266,4.8027,4.8769,4.9824,5.0605,5.1191,5.1348,5.1406,5.1406,5.1406,5.1406,5.1406,5.1406,5.1406,5.1543,5.2246,5.3066,5.3906,5.4609,5.5449,5.6133,5.6308,5.6348,5.6387,5.6562,5.6601,5.6504,5.6152,5.6094,5.6094,5.6094,5.6094,5.6094,5.6094,5.5508,5.5058,5.5058,5.4433,5.4004,5.4004,5.4004,5.4004,5.4004,5.4001,5.4308,5.5009,5.5212,5.5532,5.6079,5.643,5.6528,5.6352,5.565,5.5552,5.6098,5.5396,5.5044,5.5064,5.5942,5.6352,3.8246,3.899,3.9977,4.0929,0.0,0.0,0.0,0.0,4.2908,4.4647,0.0,0.0,0.0,0.0,0.0,0.0,0.0,0.0,0.0,0.0,0.0,0.0,0.0,0.0,4.9534,4.9134,4.8595,4.7856,4.7139,4.6577,4.6175,4.5392,4.4956,4.4956,4.498,4.5215,4.5644,4.6074,4.6308,4.6308,4.6308,4.6308,4.6308,4.6308,4.6308,4.6308,4.6308,4.6308,4.6308,4.6308,4.6562,4.7031,4.791,4.8516,4.9043,5.0332,5.1055,5.1406,5.1406,5.1406,5.1406,5.1406,5.1406,5.1406,5.1406,5.1699,5.2148,5.2578,5.3633,5.4746,5.5195,5.5957,5.6601,5.6601,5.6601,5.6601,5.6601,5.6601,5.6601,5.6601,5.6601,5.6601,5.6601,5.6601,5.6601,5.6601,5.623,5.5957,5.5957,5.5566,5.5293,5.5293,5.5293,5.5293,5.5292,5.5308,5.5479,5.5924,5.595,5.6138,5.6586,5.6606,5.6606,5.6606,5.6177,5.6157,5.6606,5.6157,5.5942,5.5962,5.6391,5.6606,0.0,0.0,0.0,0.0,0.0,4.1367,0.0,0.0,0.0,0.0,0.0,0.0,0.0,0.0,0.0,0.0,0.0,0.0,0.0,0.0,0.0,0.0,0.0,0.0,5.0692,4.9918,4.9335,4.9141,4.8276,4.7834,4.8009,4.658,4.5664,4.5508,4.5332,4.5254,4.5254,4.5957,4.6308,4.6308,4.6308,4.6308,4.6308,4.6308,4.6308,4.6308,4.6308,4.6308,4.6308,4.6484,4.6973,4.7695,4.8555,4.9004,4.9336,5.084,5.1406,5.1406,5.1406,5.1406,5.1406,5.1406,5.1406,5.1426,5.1601,5.2148,5.2773,5.3105,5.4219,5.5332,5.5508,5.6074,5.6601,5.6601,5.6601,5.6601,5.6601,5.6601,5.6601,5.6601,5.6601,5.6601,5.6601,5.6601,5.6601,5.6601,5.6601,5.6601,5.6601,5.6601,5.6601,5.6601,5.6601,5.6601,5.66,5.6597,5.6591,5.6605,5.6593,5.6606,5.6606,5.6606,5.6606,5.6606,5.6606,5.6606,5.6606,5.6606,5.6606,5.6606,5.6606,5.6606,0.0,0.0,0.0,0.0,4.1147,0.0,0.0,0.0,0.0,0.0,0.0,0.0,0.0,0.0,0.0,0.0,0.0,0.0,0.0,0.0,0.0,0.0,0.0,0.0,0.0,4.9239,4.941,5.0876,4.9582,4.9082,4.9843,4.8984,4.8105,4.7324,4.6562,4.6152,4.6152,4.625,4.6308,4.6308,4.6308,4.6308,4.6308,4.6308,4.6308,4.6308,4.6308,4.6308,4.6367,4.7129,4.7519,4.7695,4.8555,4.9375,5.0156,5.1074,5.1406,5.1406,5.1406,5.1406,5.1406,5.1406,5.1406,5.1543,5.2324,5.2617,5.3027,5.457,5.5156,5.5488,5.625,5.6523,5.6601,5.6601,5.6601,5.6601,5.6601,5.6601,5.6601,5.6601,5.6601,5.6601,5.6601,5.6601,5.6601,5.6601,5.6601,5.6601,5.6601,5.6601,5.6601,5.6601,5.6601,5.6601,5.6601,5.6598,5.6593,5.6592,5.6596,5.6606,5.6606,5.6606,5.6606,5.6606,5.6606,5.6606,5.6606,5.6606,5.6606,5.6606,5.6606,5.6606,0.0,0.0,0.0,0.0,0.0,0.0,0.0,0.0,4.1699,0.0,0.0,0.0,0.0,0.0,0.0,0.0,0.0,0.0,0.0,0.0,0.0,0.0,0.0,0.0,0.0,0.0,0.0,0.0,5.0038,5.0019,5.0859,4.9629,4.873,4.8379,4.7012,4.6308,4.6308,4.6308,4.6308,4.6308,4.6308,4.6308,4.6308,4.6308,4.6308,4.6308,4.6308,4.6308,4.6367,4.7246,4.7891,4.8437,4.9316,4.9883,5.0293,5.1094,5.1406,5.1406,5.1406,5.1406,5.1406,5.1406,5.1738,5.2226,5.2598,5.3418,5.4355,5.5098,5.5664,5.6133,5.6504,5.6601,5.6601,5.6601,5.6601,5.6601,5.6601,5.6601,5.6601,5.6601,5.6601,5.6601,5.6601,5.6601,5.6601,5.6601,5.6601,5.6601,5.6601,5.6601,5.6601,5.6601,5.6601,5.6601,5.6601,5.6597,5.6591,5.6606,5.6595,5.6606,5.6606,5.6606,5.6606,5.6606,5.6606,5.6606,5.6606,5.6606,5.6606,5.6606,5.6606,5.6606,3.9649,0.0,0.0,0.0,0.0,0.0,0.0,0.0,0.0,0.0,0.0,0.0,0.0,0.0,0.0,0.0,0.0,0.0,0.0,0.0,0.0,0.0,0.0,0.0,0.0,0.0,0.0,0.0,0.0,5.0293,5.1348,4.9805,4.8906,4.8906,4.7207,4.6308,4.6308,4.6308,4.6308,4.6308,4.6308,4.6308,4.6308,4.6308,4.6308,4.6308,4.6308,4.6445,4.6719,4.7598,4.8476,4.9336,5.0195,5.0527,5.0605,5.1172,5.1406,5.1406,5.1406,5.1406,5.1445,5.168,5.2187,5.2793,5.3262,5.4297,5.5351,5.5586,5.6113,5.6601,5.6601,5.6601,5.6601,5.6601,5.6601,5.6601,5.6601,5.6601,5.6601,5.6601,5.6601,5.6601,5.6601,5.6601,5.6601,5.6601,5.6601,5.6601,5.6601,5.6601,5.6601,5.6601,5.6601,5.6601,5.6599,5.6596,5.6609,5.6598,5.6591,5.6606,5.6606,5.6606,5.6606,5.6606,5.6606,5.6606,5.6606,5.6606,5.6606,5.6606,5.6606,5.6606,0.0,0.0,0.0,4.1081,0.0,0.0,0.0,0.0,4.1426,0.0,0.0,0.0,0.0,0.0,0.0,0.0,0.0,0.0,0.0,0.0,0.0,0.0,0.0,0.0,0.0,0.0,0.0,0.0,4.9863,0.0,5.1308,4.9805,4.8906,4.8906,4.7207,4.6308,4.6308,4.6308,4.6308,4.6308,4.6308,4.6308,4.6308,4.6308,4.6308,4.6308,4.6308,4.6777,4.7637,4.8496,4.9375,5.0234,5.1055,5.1367,5.1367,5.1387,5.1406,5.1406,5.1406,5.1406,5.1543,5.2383,5.2676,5.3008,5.4707,5.5254,5.5488,5.6328,5.6582,5.6601,5.6601,5.6601,5.6601,5.6601,5.6601,5.6601,5.6601,5.6601,5.6601,5.6601,5.6601,5.6601,5.6601,5.6601,5.6601,5.6601,5.6601,5.6601,5.6601,5.6601,5.6601,5.6601,5.6601,5.6601,5.6599,5.6596,5.6606,5.6608,5.6606,5.6606,5.6606,5.6606,5.6606,5.6606,5.6606,5.6606,5.6606,5.6606,5.6606,5.6606,5.6606,5.6606,0.0,0.0,4.1289,4.1603,0.0,0.0,0.0,0.0,0.0,0.0,0.0,0.0,0.0,0.0,0.0,0.0,0.0,0.0,0.0,0.0,0.0,0.0,0.0,0.0,0.0,0.0,0.0,0.0,4.8359,0.0,5.0508,4.9512,4.916,4.9746,4.8066,4.7168,4.7168,4.6582,4.6308,4.6308,4.6308,4.6308,4.6308,4.6308,4.6308,4.6328,4.6914,4.7324,4.7715,4.916,4.9922,5.0273,5.1094,5.1406,5.1406,5.1406,5.1406,5.1406,5.1406,5.1777,5.2305,5.2598,5.3476,5.4531,5.5117,5.5703,5.6211,5.6523,5.6601,5.6601,5.6601,5.6601,5.6601,5.6601,5.6601,5.6601,5.6601,5.6601,5.6601,5.6601,5.6601,5.6601,5.6601,5.6601,5.6601,5.6601,5.6601,5.6601,5.6601,5.6601,5.6601,5.6601,5.6601,5.6601,5.6596,5.6605,5.6595,5.6606,5.6606,5.6606,5.6606,5.6606,5.6606,5.6606,5.6606,5.6606,5.6606,5.6606,5.6606,5.6606,5.6606,5.6606,4.1343,4.179,0.0,4.249,4.2546,0.0,4.2812,0.0,0.0,0.0,0.0,0.0,0.0,0.0,0.0,0.0,0.0,0.0,0.0,0.0,0.0,0.0,0.0,0.0,0.0,0.0,4.7129,4.8008,4.7773,0.0,0.0,0.0,4.9629,5.0176,4.9101,4.8379,4.8066,4.7207,4.6601,4.6308,4.6308,4.6308,4.6308,4.6621,4.6758,4.6816,4.7676,4.8242,4.8613,4.9746,5.0371,5.0683,5.1191,5.1406,5.1406,5.1406,5.1406,5.1445,5.1758,5.2226,5.2793,5.3418,5.4375,5.5351,5.5664,5.6152,5.6601,5.6601,5.6601,5.6601,5.6601,5.6601,5.6601,5.6601,5.6601,5.6601,5.6601,5.6601,5.6601,5.6601,5.6601,5.6601,5.6601,5.6601,5.6601,5.6601,5.6601,5.6601,5.6601,5.6601,5.6601,5.6601,5.6601,5.66,5.6591,5.6596,5.6606,5.6606,5.6606,5.6606,5.6606,5.6606,5.6606,5.6606,5.6606,5.6606,5.6606,5.6606,5.6606,5.6606,5.6606,5.6606]}]]